Date StartTime U_cm/s V_cm/s W_cm/s Ustd_cm/s Vstd_cm/s Wstd_cm/s Uvar_(cm/s)^2 Vvar_(cm/s)^2 Wvar_(cm/s)^2 KE_(m/s)^2 TurbulentKE_(m/s)^2 HorizWindSpeed_cm/s FrictionSpeec_cm/s DragCoef SpeedOfSound_m/s SonicTemperature_C Pressure_mb 
01/18/2015  00:00:00       34.592      -72.620       -2.571       35.272       49.250       37.616     1244.141     2425.570     1414.971        0.578        0.254       80.438       38.400        0.228      338.956       11.961      866.686
01/18/2015  00:01:00      -10.048      -76.082        3.128       60.749       77.971       35.806     3690.425     6079.406     1282.086        0.847        0.553       76.743       31.122        0.164      339.103       12.206      866.710
01/18/2015  00:02:00      -73.909      -51.353        3.095       63.851       75.403       28.299     4076.923     5685.607      800.822        0.933        0.528       89.998       22.285        0.061      339.115       12.227      866.709
01/18/2015  00:03:00      -56.144      -52.950        5.401       39.020       41.753       25.093     1522.575     1743.341      629.674        0.494        0.195       77.174       26.319        0.116      339.035       12.091      866.712
01/18/2015  00:04:00      -31.853      -77.622       -5.873       75.250       39.324       29.959     5662.526     1546.402      897.538        0.759        0.405       83.903       27.159        0.105      339.301       12.540      866.707
01/18/2015  00:05:00      -55.014     -117.880        7.340       41.260       54.098       30.676     1702.411     2926.631      941.035        1.127        0.279      130.085       31.653        0.059      339.499       12.873      866.661
01/18/2015  00:06:00     -180.265      -23.040       -3.581       71.156       82.490       33.091     5063.240     6804.518     1095.007        2.300        0.648      181.731       23.652        0.017      339.429       12.754      866.625
01/18/2015  00:07:00      -74.807      -22.306        1.492       78.450       33.606       28.327     6154.431     1129.394      802.410        0.709        0.404       78.062       38.621        0.245      339.237       12.433      866.633
01/18/2015  00:08:00     -134.407      -31.008        2.821       86.643       45.833       28.496     7506.926     2100.665      812.050        1.473        0.521      137.938       41.768        0.092      339.056       12.126      866.673
01/18/2015  00:09:00      -30.315      -28.112        4.211       37.966       31.757       19.240     1441.392     1008.475      370.182        0.227        0.141       41.344       19.078        0.213      339.196       12.364      866.650
01/18/2015  00:10:00      -48.497      -46.280       -4.669       65.213       38.014       24.921     4252.713     1445.057      621.032        0.542        0.316       67.036       21.217        0.100      339.376       12.666      866.644
01/18/2015  00:11:00      -83.104      -40.983        4.120       61.271       44.112       27.562     3754.177     1945.871      759.681        0.753        0.323       92.661       29.323        0.100      339.219       12.402      866.652
01/18/2015  00:12:00      -63.554     -123.210       -2.216       55.138       82.862       35.345     3040.169     6866.030     1249.287        1.519        0.558      138.635       39.702        0.082      339.256       12.464      866.649
01/18/2015  00:13:00      -85.015      -96.869       -0.209       88.916       46.562       38.580     7906.093     2167.996     1488.379        1.408        0.578      128.884       39.566        0.094      339.269       12.486      866.661
01/18/2015  00:14:00     -164.478      -99.484       -2.586       59.698       59.945       32.416     3563.890     3593.358     1050.814        2.258        0.410      192.224       31.823        0.027      339.142       12.272      866.716
01/18/2015  00:15:00      -88.144      -52.892       -1.824       34.847       36.146       26.880     1214.289     1306.566      722.538        0.691        0.162      102.796       23.940        0.054      339.066       12.144      866.744
01/18/2015  00:16:00     -142.248      -84.073        1.654       93.169       64.031       46.452     8680.380     4100.029     2157.783        2.112        0.747      165.235       38.508        0.054      339.337       12.598      866.707
01/18/2015  00:17:00     -105.241      -62.930       11.657       91.952       80.205       40.226     8455.188     6432.790     1618.143        1.584        0.825      122.621       49.052        0.160      339.368       12.652      866.709
01/18/2015  00:18:00        3.401       -4.583       14.933       22.992       45.255       21.196      528.652     2048.020      449.278        0.164        0.151        5.706       15.873        7.737      338.998       12.031      866.706
01/18/2015  00:19:00       48.726       48.557       32.824       60.667       43.215       27.031     3680.534     1867.575      730.701        0.604        0.314       68.790       40.388        0.345      338.902       11.869      866.692
01/18/2015  00:20:00       19.159        4.960       26.839       32.560       51.086       29.417     1060.158     2609.819      865.336        0.282        0.227       19.791       29.615        2.239      338.848       11.779      866.705
01/18/2015  00:21:00       -8.500       17.404       42.953       28.758       51.131       29.600      827.031     2614.364      876.167        0.327        0.216       19.369       33.284        2.953      338.901       11.867      866.724
01/18/2015  00:22:00       -6.503      -26.524       -5.033       17.876       13.149       13.933      319.554      172.898      194.115        0.073        0.034       27.309       13.591        0.248      339.104       12.208      866.742
01/18/2015  00:23:00      -27.861      -19.026       -2.208       18.493       14.087       12.147      341.995      198.433      147.549        0.092        0.034       33.738       12.330        0.134      338.919       11.897      866.756
01/18/2015  00:24:00       25.135      -25.546        5.498       28.067       32.502       13.274      787.770     1056.354      176.198        0.167        0.101       35.838       14.638        0.167      339.187       12.349      866.765
01/18/2015  00:25:00        4.577      -32.465       21.222       46.156       78.651       36.349     2130.408     6186.000     1321.276        0.558        0.482       32.786       12.199        0.138      339.082       12.172      866.751
01/18/2015  00:26:00       77.262       38.904       22.487       37.369       19.225       21.959     1396.408      369.604      482.206        0.512        0.112       86.504       14.731        0.029      338.973       11.988      866.729
01/18/2015  00:27:00       -0.648       37.260       29.342       14.849       17.939       11.894      220.504      321.814      141.466        0.147        0.034       37.266        8.273        0.049      339.109       12.217      866.677
01/18/2015  00:28:00       58.867       26.532       17.344       34.210       22.308       23.507     1170.358      497.629      552.573        0.334        0.111       64.570       10.803        0.028      339.035       12.092      866.672
01/18/2015  00:29:00       32.530       15.332        1.634       33.585       22.480       13.320     1127.941      505.333      177.410        0.155        0.091       35.962       10.930        0.092      338.990       12.017      866.709
01/18/2015  00:30:00      -45.515       -4.979      -23.214       45.072       35.548       17.883     2031.503     1263.635      319.788        0.312        0.181       45.787       20.103        0.193      339.415       12.732      866.728
01/18/2015  00:31:00       41.349       36.821       23.008       25.773       19.496       20.454      664.250      380.084      418.357        0.253        0.073       55.367       15.295        0.076      339.073       12.157      866.727
01/18/2015  00:32:00       18.434        0.470       17.932       34.791       19.891       18.333     1210.380      395.642      336.110        0.130        0.097       18.440       15.000        0.662      338.831       11.749      866.745
01/18/2015  00:33:00       27.247       18.901       47.453       26.520       43.079       31.368      703.301     1855.814      983.964        0.345        0.177       33.161       29.974        0.817      338.783       11.669      866.775
01/18/2015  00:34:00       64.382       58.647       72.891       69.790       73.610       62.149     4870.694     5418.487     3862.549        1.352        0.708       87.089       72.103        0.685      339.023       12.072      866.775
01/18/2015  00:35:00       45.710      -32.781        5.393       23.331       24.126       14.276      544.343      582.056      203.808        0.226        0.067       56.249        6.081        0.012      339.143       12.273      866.803
01/18/2015  00:36:00        3.393       12.351       14.888       12.409       28.131       17.379      153.984      791.338      302.019        0.082        0.062       12.809       18.266        2.034      338.830       11.748      866.830
01/18/2015  00:37:00      -32.280        6.232       -3.109       12.748       12.735       10.964      162.509      162.182      120.210        0.077        0.022       32.877        8.919        0.074      338.806       11.709      866.852
01/18/2015  00:38:00      -11.913       11.851        7.718       18.753        6.637        5.155      351.667       44.051       26.571        0.038        0.021       16.804        6.802        0.164      338.801       11.698      866.837
01/18/2015  00:39:00       30.425       29.836       21.150        9.746        9.626        8.633       94.993       92.668       74.536        0.126        0.013       42.613        5.109        0.014      338.773       11.652      866.825
01/18/2015  00:40:00       45.620       25.387       16.172       12.090       17.088       20.381      146.165      291.988      415.384        0.192        0.043       52.208       11.742        0.051      338.652       11.448      866.828
01/18/2015  00:41:00       36.991       16.578        5.735        7.902        8.120        8.416       62.444       65.935       70.827        0.094        0.010       40.536        5.462        0.018      338.521       11.228      866.809
01/18/2015  00:42:00        9.154      -12.603       -1.570       13.182       18.136        7.933      173.770      328.920       62.928        0.041        0.028       15.576        4.001        0.066      338.514       11.216      866.789
01/18/2015  00:43:00       39.673      -29.263       -3.497       20.226       23.713       14.477      409.107      562.315      209.579        0.181        0.059       49.298        9.649        0.038      338.555       11.285      866.772
01/18/2015  00:44:00       48.867       24.104       40.319       30.686       28.434       26.045      941.654      808.521      678.350        0.351        0.121       54.488       12.606        0.054      338.469       11.140      866.745
01/18/2015  00:45:00       40.458       19.550       28.213       25.286       19.385       17.501      639.384      375.797      306.295        0.207        0.066       44.934       11.736        0.068      338.582       11.332      866.739
01/18/2015  00:46:00       11.333        1.499       15.510       15.846       27.203       18.579      251.099      739.996      345.161        0.085        0.067       11.431       18.401        2.591      338.429       11.074      866.727
01/18/2015  00:47:00        2.379      -12.858       12.908       17.923       30.902       19.890      321.223      954.925      395.620        0.100        0.084       13.076       21.808        2.781      338.413       11.047      866.704
01/18/2015  00:48:00       12.819      -58.508       -0.962       35.771       18.251       18.746     1279.582      333.090      351.420        0.278        0.098       59.896       21.212        0.125      338.623       11.401      866.701
01/18/2015  00:49:00       -5.489      -11.650       -1.577       20.991       16.206       18.412      440.634      262.639      338.992        0.061        0.052       12.878       10.060        0.610      338.381       10.994      866.701
01/18/2015  00:50:00        3.104      -24.665        7.257       25.958       29.473       18.248      673.836      868.642      332.999        0.127        0.094       24.860       15.367        0.382      338.533       11.249      866.691
01/18/2015  00:51:00      -16.406      -30.359       -4.708       15.275       36.925       13.315      233.319     1363.475      177.285        0.149        0.089       34.508       15.129        0.192      338.729       11.576      866.678
01/18/2015  00:52:00       39.404       23.276       14.185       31.503       20.944       19.765      992.432      438.646      390.644        0.206        0.091       45.765       20.016        0.191      338.573       11.317      866.636
01/18/2015  00:53:00       21.569        7.719       17.625       25.658       22.140       17.504      658.319      490.160      306.388        0.114        0.073       22.909       14.547        0.403      338.378       10.988      866.614
01/18/2015  00:54:00       14.815        5.995       18.049       23.538       14.730        8.309      554.024      216.960       69.040        0.071        0.042       15.982        8.224        0.265      338.239       10.756      866.609
01/18/2015  00:55:00       71.150       50.622       22.886       27.432       20.543       18.840      752.504      422.004      354.942        0.484        0.076       87.321       13.255        0.023      338.296       10.852      866.572
01/18/2015  00:56:00      -47.765      -13.286        8.180       28.515       25.097       17.386      813.101      629.836      302.264        0.213        0.087       49.579       21.039        0.180      337.980       10.319      866.574
01/18/2015  00:57:00      -77.516      -12.349       -9.140       28.826       15.497       18.359      830.933      240.159      337.070        0.383        0.070       78.494       17.129        0.048      337.467        9.459      866.584
01/18/2015  00:58:00      -88.169       17.102      -13.030       29.867       13.626        8.958      892.053      185.661       80.251        0.470        0.058       89.813        8.189        0.008      337.879       10.151      866.597
01/18/2015  00:59:00       12.894       38.718        3.845       34.109       13.392        8.347     1163.455      179.349       69.674        0.155        0.071       40.809        7.099        0.030      338.655       11.454      866.600
01/18/2015  01:00:00       60.384       75.838        9.208       21.666       16.907       11.981      469.396      285.842      143.550        0.519        0.045       96.942       13.248        0.019      338.540       11.261      866.591
01/18/2015  01:01:00      -10.259       86.388       -6.326       23.221       19.513        8.559      539.229      380.757       73.258        0.430        0.050       86.995        8.110        0.009      338.474       11.150      866.612
01/18/2015  01:02:00      -52.610       34.383       -9.645       22.913       42.989       12.880      524.986     1848.054      165.903        0.329        0.127       62.849        9.417        0.022      338.052       10.442      866.631
01/18/2015  01:03:00      -76.394       42.542      -14.699       16.628       24.365       12.203      276.478      593.672      148.925        0.444        0.051       87.441        9.103        0.011      338.329       10.905      866.641
01/18/2015  01:04:00      -26.454       56.063       -8.017       30.409       24.879       14.079      924.726      618.953      198.210        0.282        0.087       61.991       11.618        0.035      338.671       11.480      866.637
01/18/2015  01:05:00       12.794      101.244      -16.852       12.924       18.234        7.546      167.033      332.482       56.937        0.563        0.028      102.049        5.366        0.003      338.798       11.694      866.618
01/18/2015  01:06:00      -48.822       51.673       -9.369       29.447       55.819       16.034      867.137     3115.784      257.077        0.469        0.212       71.090       12.096        0.029      338.286       10.835      866.614
01/18/2015  01:07:00      -88.021      -17.474      -18.288       25.117       17.877       11.602      630.844      319.581      134.614        0.474        0.054       89.739        8.779        0.010      337.434        9.405      866.628
01/18/2015  01:08:00      -22.877       69.746       -5.611       34.286       50.498       20.524     1175.544     2549.999      421.243        0.478        0.207       73.402       19.772        0.073      337.871       10.138      866.618
01/18/2015  01:09:00        6.590      124.971      -17.597       31.978       29.359       18.589     1022.588      861.954      345.538        0.910        0.112      125.145       11.860        0.009      338.430       11.076      866.585
01/18/2015  01:10:00      -74.263       22.871      -16.125       18.008       54.711       13.847      324.300     2993.344      191.744        0.490        0.175       77.705       17.705        0.052      337.825       10.061      866.586
01/18/2015  01:11:00      -67.185       -6.295      -12.654       28.678       16.053       12.531      822.407      257.686      157.030        0.298        0.062       67.479        8.396        0.015      337.461        9.452      866.590
01/18/2015  01:12:00      -17.075      119.002      -17.309       24.121       57.465       11.156      581.834     3302.280      124.463        0.938        0.200      120.221        5.219        0.002      338.457       11.122      866.567
01/18/2015  01:13:00        7.064      178.898      -25.227       15.460       19.909        9.632      239.009      396.359       92.776        1.671        0.036      179.037        8.428        0.002      338.941       11.936      866.538
01/18/2015  01:14:00       20.830      159.791      -30.182       17.273       21.016       11.226      298.362      441.672      126.031        1.387        0.043      161.143        9.192        0.003      338.924       11.906      866.536
01/18/2015  01:15:00       -0.456      129.376      -23.955       24.036       20.777       11.367      577.747      431.680      129.198        0.923        0.057      129.377       10.457        0.007      338.766       11.640      866.540
01/18/2015  01:16:00      -52.491       82.457      -21.759       18.605       41.214       13.515      346.143     1698.595      182.652        0.613        0.111       97.747       17.190        0.031      338.558       11.292      866.520
01/18/2015  01:17:00      -26.814       85.483      -21.540       31.288       42.305       13.980      978.942     1789.672      195.441        0.573        0.148       89.590       17.752        0.039      338.900       11.865      866.519
01/18/2015  01:18:00       68.431       74.144       -9.922       30.676       25.038       18.558      940.998      626.878      344.406        0.610        0.096      100.897       19.990        0.039      339.130       12.254      866.544
01/18/2015  01:19:00      112.630       57.909       10.928       29.612       29.885       21.098      876.859      893.116      445.131        0.919        0.111      126.645        7.522        0.004      338.982       12.003      866.501
01/18/2015  01:20:00       28.277       97.384      -16.342       27.459       69.999       25.983      753.985     4899.855      675.107        0.844        0.316      101.406       37.286        0.135      338.709       11.546      866.489
01/18/2015  01:21:00      -30.289      191.902      -32.911       40.127       30.539       18.641     1610.165      932.620      347.479        2.086        0.145      194.277       10.385        0.003      339.007       12.047      866.503
01/18/2015  01:22:00      -36.507      101.720      -18.983       25.397       32.963       20.596      645.029     1086.532      424.187        0.710        0.108      108.073       14.451        0.018      339.030       12.084      866.520
01/18/2015  01:23:00      -35.415       42.863       -7.777       32.588       50.004       23.378     1061.967     2500.437      546.511        0.363        0.205       55.601       20.692        0.139      339.118       12.232      866.469
01/18/2015  01:24:00     -107.427      118.002      -22.341       39.210       37.889       24.915     1537.394     1435.577      620.771        1.478        0.180      159.578       20.638        0.017      339.211       12.388      866.445
01/18/2015  01:25:00      -82.676       59.043      -25.502       28.857       49.702       18.806      832.712     2470.329      353.672        0.731        0.183      101.594       10.917        0.012      338.874       11.822      866.457
01/18/2015  01:26:00      -49.097       51.543      -20.328       20.491       37.988       14.631      419.898     1443.058      214.077        0.378        0.104       71.184        9.018        0.016      338.885       11.841      866.461
01/18/2015  01:27:00      -70.317       75.752      -17.246       18.295       39.160       10.981      334.707     1533.529      120.581        0.648        0.099      103.358        7.175        0.005      338.887       11.844      866.452
01/18/2015  01:28:00      -53.840       80.501       -8.194       24.483       27.195       23.727      599.413      739.541      562.973        0.567        0.095       96.846       17.325        0.032      339.024       12.074      866.439
01/18/2015  01:29:00     -121.560       49.753      -17.403       20.960       26.400       14.963      439.302      696.940      223.894        0.946        0.068      131.347       10.028        0.006      338.921       11.902      866.423
01/18/2015  01:30:00     -133.978       45.446      -10.294       37.017       30.153       18.158     1370.282      909.193      329.695        1.136        0.130      141.475       11.412        0.007      338.742       11.600      866.439
01/18/2015  01:31:00      -79.525       25.275       -8.194       46.576       62.884       33.766     2169.299     3954.389     1140.164        0.715        0.363       83.445       26.190        0.099      338.813       11.720      866.440
01/18/2015  01:32:00     -135.604      -31.807      -10.123       43.478       66.768       26.782     1890.342     4458.002      717.296        1.328        0.353      139.285       14.671        0.011      338.599       11.359      866.424
01/18/2015  01:33:00      -81.898      -97.568       15.027       61.375       51.583       34.924     3766.879     2660.856     1219.675        1.205        0.382      127.384       33.275        0.068      338.797       11.692      866.431
01/18/2015  01:34:00      -25.965     -133.928       -6.542      107.902       67.589       41.121    11642.908     4568.318     1690.938        1.827        0.895      136.422       26.707        0.038      339.055       12.125      866.388
01/18/2015  01:35:00      -55.709     -166.587        1.000       47.688       84.174       28.729     2274.134     7085.308      825.374        2.052        0.509      175.655       25.247        0.021      338.990       12.015      866.394
01/18/2015  01:36:00       23.686       44.215       49.054       42.114       36.643       32.855     1773.628     1342.721     1079.480        0.456        0.210       50.159       22.814        0.207      338.452       11.114      866.355
01/18/2015  01:37:00       -1.526      -23.805       26.388       27.879       52.778       38.894      777.235     2785.547     1512.706        0.317        0.254       23.854       40.019        2.815      338.300       10.857      866.339
01/18/2015  01:38:00      -14.763      -18.449      -11.950       14.906       17.055       12.168      222.193      290.857      148.059        0.068        0.033       23.629        7.102        0.090      338.348       10.939      866.357
01/18/2015  01:39:00       22.504      -73.163       -8.019       40.166       32.255       20.441     1613.327     1040.375      417.834        0.450        0.154       76.545        7.176        0.009      338.457       11.121      866.367
01/18/2015  01:40:00      -40.345      -10.962       -2.521       27.296       20.148       13.598      745.063      405.944      184.899        0.154        0.067       41.807        7.306        0.031      338.379       10.990      866.387
01/18/2015  01:41:00      -51.697      -45.865      -12.500       53.864       20.286       14.651     2901.355      411.512      214.643        0.423        0.176       69.110        3.524        0.003      338.155       10.615      866.423
01/18/2015  01:42:00      -67.774      -59.688       -0.193       35.923       29.195       21.374     1290.464      852.369      456.844        0.538        0.130       90.310       14.187        0.025      338.136       10.583      866.436
01/18/2015  01:43:00       30.416      -36.318        2.248       39.329       15.205        9.717     1546.742      231.191       94.421        0.206        0.094       47.372        7.360        0.024      338.274       10.814      866.417
01/18/2015  01:44:00       88.248      -57.848       11.581       47.176       51.317       33.087     2225.614     2633.470     1094.747        0.861        0.298      105.518       32.427        0.094      338.536       11.254      866.393
01/18/2015  01:45:00       51.247     -146.923       -7.718       50.228       64.792       22.013     2522.871     4198.023      484.557        1.574        0.360      155.604       10.417        0.004      338.800       11.699      866.413
01/18/2015  01:46:00      -18.660      -59.692       -3.447       46.431       32.521       26.555     2155.804     1057.618      705.144        0.392        0.196       62.541       16.106        0.066      339.070       12.151      866.434
01/18/2015  01:47:00       30.294      -37.620        6.810       47.447       79.042       44.265     2251.229     6247.675     1959.388        0.642        0.523       48.301       56.303        1.359      338.690       11.511      866.431
01/18/2015  01:48:00       -4.773      -82.585       -4.563       42.751       48.524       24.883     1827.689     2354.605      619.148        0.583        0.240       82.723       19.021        0.053      338.428       11.073      866.410
01/18/2015  01:49:00      -61.829      -20.251       -4.002       16.828       22.956       14.335      283.186      526.956      205.480        0.263        0.051       65.061       10.312        0.025      338.249       10.771      866.419
01/18/2015  01:50:00        9.619       28.819       11.806       50.884       26.581       24.114     2589.132      706.563      581.472        0.247        0.194       30.382       30.756        1.025      338.664       11.468      866.394
01/18/2015  01:51:00       57.246      -16.024        6.047       33.592       46.921       20.945     1128.393     2201.616      438.701        0.367        0.188       59.447       20.355        0.117      338.487       11.172      866.390
01/18/2015  01:52:00     -186.756     -181.951      -14.580      165.260      109.956       60.687    27310.916    12090.307     3682.854        5.563        2.154      260.737       81.772        0.098      339.044       12.106      866.431
01/18/2015  01:53:00     -161.740     -100.284        2.383      133.672      114.466       66.448    17868.252    13102.557     4415.378        3.580        1.769      190.307       66.114        0.121      339.006       12.041      866.415
01/18/2015  01:54:00     -173.123     -301.901      -15.777       54.761       88.493       35.732     2998.748     7831.058     1276.790        6.673        0.605      348.017       24.222        0.005      339.262       12.471      866.445
01/18/2015  01:55:00     -180.498     -205.945        0.429      115.269       97.658       57.961    13287.025     9537.043     3359.460        5.058        1.309      273.848       55.049        0.040      339.178       12.329      866.448
01/18/2015  01:56:00      -59.455     -108.775       15.786       55.156       67.279       35.746     3042.176     4526.454     1277.785        1.223        0.442      123.964       32.227        0.068      339.089       12.184      866.420
01/18/2015  01:57:00       -5.887      -59.301        6.668       51.589       47.475       41.733     2661.411     2253.858     1741.649        0.513        0.333       59.592       25.655        0.185      338.969       11.981      866.407
01/18/2015  01:58:00      -33.075      -21.540        2.560       33.281       34.133       22.684     1107.602     1165.032      514.583        0.218        0.139       39.470       20.920        0.281      338.960       11.967      866.437
01/18/2015  01:59:00       13.174      -32.977       -0.960       23.297       28.392       20.743      542.738      806.087      430.280        0.152        0.089       35.511       13.248        0.139      338.844       11.770      866.424
01/18/2015  02:00:00       22.076      -35.988        1.687       41.765       43.565       34.936     1744.322     1897.932     1220.499        0.332        0.243       42.220       24.247        0.330      338.702       11.532      866.387
01/18/2015  02:01:00       25.171      -31.742        0.938       30.130       59.435       45.156      907.808     3532.520     2039.038        0.406        0.324       40.511       47.970        1.402      338.692       11.516      866.363
01/18/2015  02:02:00      -18.431      -21.993       25.917       51.265       56.505       51.264     2628.078     3192.765     2628.022        0.497        0.422       28.695       44.695        2.426      338.674       11.487      866.294
01/18/2015  02:03:00      -34.419        0.625       18.762       55.404       30.076       22.273     3069.580      904.553      496.077        0.300        0.224       34.425       19.076        0.307      338.652       11.449      866.313
01/18/2015  02:04:00      -63.351      -37.244       -1.623       48.226       34.459       20.508     2325.751     1187.439      420.564        0.467        0.197       73.488       24.285        0.109      338.589       11.342      866.317
01/18/2015  02:05:00      -78.343      -68.476       -7.389       63.368       53.944       16.648     4015.512     2909.906      277.170        0.904        0.360      104.051       25.119        0.058      338.917       11.893      866.299
01/18/2015  02:06:00     -109.616     -115.214       -5.810       48.492       38.981       28.360     2351.481     1519.542      804.281        1.500        0.234      159.029       18.598        0.014      339.008       12.048      866.279
01/18/2015  02:07:00     -142.745      -42.483       -7.572       55.494       37.204       25.369     3079.532     1384.156      643.594        1.367        0.255      148.933       25.036        0.028      338.851       11.784      866.270
01/18/2015  02:08:00      -71.698      -43.779        4.040       51.383       43.575       19.973     2640.233     1898.812      398.932        0.600        0.247       84.007       21.228        0.064      338.751       11.616      866.253
01/18/2015  02:09:00      -43.525      -37.879        3.960       39.921       43.235       22.770     1593.681     1869.232      518.473        0.366        0.199       57.700       27.496        0.227      339.014       12.058      866.255
01/18/2015  02:10:00      -88.895      -54.773       -3.127       39.161       44.759       28.839     1533.612     2003.409      831.712        0.764        0.218      104.415       19.312        0.034      339.165       12.312      866.291
01/18/2015  02:11:00      -22.244       -1.781        3.492       24.148       15.940       12.442      583.149      254.076      154.805        0.075        0.050       22.316        8.444        0.143      338.941       11.935      866.292
01/18/2015  02:12:00      -17.057       26.928       35.894       14.862       34.764       32.905      220.880     1208.525     1082.727        0.241        0.126       31.876       27.337        0.736      338.867       11.810      866.249
01/18/2015  02:13:00      -73.610        8.260       -1.515       34.702       25.694       24.927     1204.209      660.180      621.349        0.399        0.124       74.072       25.728        0.121      338.838       11.762      866.246
01/18/2015  02:14:00     -104.236      -64.985       -8.990       36.022       55.643       26.230     1297.549     3096.161      687.987        1.012        0.254      122.834       14.379        0.014      338.576       11.322      866.263
01/18/2015  02:15:00      -56.461      -67.061        1.520       42.234       36.013       21.179     1783.678     1296.954      448.567        0.561        0.176       87.664       22.448        0.066      338.581       11.329      866.275
01/18/2015  02:16:00      -89.114        8.900       -2.886       39.033       26.925       15.855     1523.542      724.963      251.394        0.526        0.125       89.557       17.963        0.040      338.739       11.596      866.285
01/18/2015  02:17:00       21.915        3.417        8.228       20.072       16.193       14.162      402.894      262.216      200.574        0.071        0.043       22.180       13.543        0.373      338.513       11.216      866.302
01/18/2015  02:18:00      -74.847      -33.876       -7.958       30.837       28.325       12.228      950.915      802.288      149.522        0.436        0.095       82.157        6.795        0.007      338.685       11.505      866.331
01/18/2015  02:19:00     -121.253      -49.524       -8.338       64.348       27.288       24.750     4140.626      744.630      612.575        1.136        0.275      130.977       30.529        0.054      338.899       11.864      866.346
01/18/2015  02:20:00      -53.614      -20.924        2.578       46.386       43.630       23.302     2151.679     1903.586      542.994        0.396        0.230       57.552       26.653        0.214      339.180       12.336      866.338
01/18/2015  02:21:00      -50.124      -52.707       -0.832       25.441       37.655       21.614      647.266     1417.863      467.164        0.391        0.127       72.736       15.591        0.046      339.103       12.207      866.336
01/18/2015  02:22:00      -65.058      -11.369       -8.048       50.328       25.149       19.642     2532.871      632.468      385.794        0.399        0.178       66.044       20.397        0.095      339.032       12.086      866.331
01/18/2015  02:23:00      -29.638      -28.779       -6.271       47.268       29.400       21.106     2234.297      864.385      445.466        0.264        0.177       41.311       11.107        0.072      339.139       12.267      866.349
01/18/2015  02:24:00        4.345      -16.610       -2.837       11.034       29.342       13.332      121.743      860.974      177.730        0.073        0.058       17.169       15.348        0.799      338.722       11.566      866.350
01/18/2015  02:25:00       23.884       44.624       -1.439       14.793        8.889        7.913      218.823       79.012       62.611        0.146        0.018       50.614        5.014        0.010      338.726       11.574      866.306
01/18/2015  02:26:00       52.881       28.697        2.553       21.355       23.610       19.775      456.032      557.413      391.056        0.252        0.070       60.166       11.534        0.037      338.707       11.541      866.320
01/18/2015  02:27:00       39.186       33.586       11.058       18.674       16.356       12.595      348.726      267.534      158.623        0.178        0.039       51.610        6.240        0.015      338.786       11.672      866.351
01/18/2015  02:28:00       33.606      -16.078        0.105       44.557       41.431       19.419     1985.291     1716.551      377.086        0.273        0.204       37.254       18.617        0.250      338.545       11.269      866.311
01/18/2015  02:29:00      -12.516        1.995        2.659       23.606       22.641       12.393      557.265      512.615      153.587        0.070        0.061       12.674        7.546        0.355      338.341       10.925      866.287
01/18/2015  02:30:00      -72.043        7.756        5.691       22.575       25.147       22.278      509.622      632.387      496.319        0.346        0.082       72.459       17.836        0.061      338.595       11.352      866.306
01/18/2015  02:31:00      -87.241      -16.049      -10.823       38.635       23.348       16.935     1492.667      545.111      286.784        0.515        0.116       88.705       15.179        0.029      338.058       10.451      866.292
01/18/2015  02:32:00      -74.289        9.350       -8.998       36.604       25.603       13.064     1339.827      655.505      170.676        0.393        0.108       74.875       10.678        0.020      338.329       10.906      866.263
01/18/2015  02:33:00      -71.854        9.859       -3.890       28.889       19.699       13.215      834.599      388.050      174.635        0.334        0.070       72.528       13.420        0.034      338.727       11.574      866.278
01/18/2015  02:34:00      -17.331      -14.677        5.588       35.722       25.791       19.719     1276.078      665.156      388.846        0.144        0.117       22.711       18.991        0.699      338.496       11.186      866.327
01/18/2015  02:35:00      -20.383      -21.505        8.880       24.634       16.772       19.400      606.816      281.309      376.364        0.111        0.063       29.629       14.139        0.228      338.475       11.152      866.341
01/18/2015  02:36:00       40.158       13.761       20.829       27.781       55.895       29.293      771.780     3124.287      858.097        0.349        0.238       42.450       33.927        0.639      338.444       11.100      866.246
01/18/2015  02:37:00        3.864       -0.072       31.106       34.321       56.323       34.553     1177.961     3172.266     1193.887        0.326        0.277        3.865       36.938       91.350      338.645       11.437      866.241
01/18/2015  02:38:00      -65.531      -50.163       -5.684       95.042       39.537       16.276     9033.019     1563.145      264.898        0.885        0.543       82.527       20.413        0.061      338.478       11.157      866.373
01/18/2015  02:39:00     -116.034      -70.363        0.879       69.265       45.113       30.972     4797.649     2035.194      959.246        1.310        0.390      135.701       31.652        0.054      337.998       10.350      866.431
01/18/2015  02:40:00       29.875       45.301       28.420       64.946       36.838       29.678     4217.919     1357.035      880.806        0.510        0.323       54.265       28.420        0.274      338.110       10.540      866.334
01/18/2015  02:41:00       58.737       45.261       17.565       45.539       17.327       22.173     2073.836      300.236      491.659        0.434        0.143       74.153        7.969        0.012      338.906       11.876      866.240
01/18/2015  02:42:00      -64.025      -24.189       -7.333       29.555       26.584       13.663      873.502      706.692      186.671        0.325        0.088       68.442       12.899        0.036      339.080       12.169      866.313
01/18/2015  02:43:00       21.354       26.318        0.740       37.630       22.630       12.978     1416.027      512.131      168.429        0.162        0.105       33.891       12.919        0.145      338.679       11.494      866.308
01/18/2015  02:44:00       66.213       36.318       25.080       28.831       37.878       30.312      831.212     1434.720      918.839        0.476        0.159       75.520       30.657        0.165      338.307       10.870      866.245
01/18/2015  02:45:00      -59.532      -45.613       -4.167       44.594       39.225       31.202     1988.622     1538.570      973.585        0.507        0.225       74.997       32.714        0.190      338.179       10.653      866.287
01/18/2015  02:46:00      -65.893      -18.766       -2.942       37.545       23.814       20.663     1409.638      567.099      426.966        0.355        0.120       68.513       15.993        0.054      338.608       11.375      866.290
01/18/2015  02:47:00       46.964       15.753       21.122       61.770       55.906       16.934     3815.537     3125.426      286.748        0.506        0.361       49.535        9.911        0.040      338.736       11.590      866.221
01/18/2015  02:48:00       19.165       22.270       -2.706       39.314       17.493       14.224     1545.584      306.010      202.332        0.146        0.103       29.382       16.352        0.310      338.415       11.051      866.226
01/18/2015  02:49:00      -48.311       22.890      -10.295       12.034       22.275        7.945      144.826      496.181       63.122        0.183        0.035       53.460        7.976        0.022      338.605       11.370      866.310
01/18/2015  02:50:00      -57.501      -14.130       -9.607       18.955       18.321       11.308      359.299      335.673      127.872        0.221        0.041       59.211       10.040        0.029      338.297       10.852      866.325
01/18/2015  02:51:00      -39.156      -17.077       -2.764       17.330       11.788       13.513      300.335      138.963      182.610        0.123        0.031       42.718        7.969        0.035      338.739       11.596      866.295
01/18/2015  02:52:00      -52.197        6.264        4.556       30.956       22.914       18.564      958.279      525.038      344.637        0.231        0.091       52.571       15.321        0.085      338.771       11.649      866.292
01/18/2015  02:53:00       36.804        1.845       18.073       36.062       26.121       21.781     1300.486      682.297      474.403        0.207        0.123       36.850       11.636        0.100      338.648       11.444      866.240
01/18/2015  02:54:00       33.649       10.152       22.760       19.870       23.814       19.358      394.797      567.110      374.715        0.154        0.067       35.147       18.027        0.263      338.481       11.162      866.226
01/18/2015  02:55:00       53.906       19.826       12.067       15.548       32.524       21.800      241.741     1057.804      475.262        0.261        0.089       57.436       22.768        0.157      338.631       11.413      866.254
01/18/2015  02:56:00        5.723       36.154       49.641       18.872       25.615       19.615      356.165      656.144      384.766        0.260        0.070       36.604       16.619        0.206      338.437       11.088      866.249
01/18/2015  02:57:00       34.657       34.195       31.027       35.329       21.514       25.338     1248.131      462.835      642.013        0.284        0.118       48.687       20.009        0.169      338.446       11.104      866.184
01/18/2015  02:58:00       18.643       21.351       23.151       36.665       28.759       17.113     1344.287      827.099      292.856        0.190        0.123       28.344       10.669        0.142      338.355       10.950      866.160
01/18/2015  02:59:00      -71.409        5.619       -8.210       30.631       25.696       11.343      938.283      660.274      128.656        0.346        0.086       71.630        9.559        0.018      338.444       11.099      866.231
01/18/2015  03:00:00      -83.258        1.237      -18.023       17.036       30.282       12.644      290.233      916.971      159.866        0.431        0.068       83.267       10.090        0.015      338.836       11.756      866.243
01/18/2015  03:01:00       18.160        0.953       -6.472       35.035       19.137       11.378     1227.484      366.209      129.460        0.105        0.086       18.185       14.641        0.648      339.222       12.408      866.194
01/18/2015  03:02:00       58.166       38.707        1.899       13.486       12.271        9.725      181.882      150.576       94.568        0.266        0.021       69.868        6.776        0.009      339.076       12.161      866.202
01/18/2015  03:03:00       45.251       64.878       -7.767       17.822       12.012        9.721      317.614      144.298       94.494        0.344        0.028       79.100        8.661        0.012      339.233       12.425      866.246
01/18/2015  03:04:00       55.465       78.273       -9.556       36.303       29.487       24.257     1317.927      869.454      588.408        0.603        0.139       95.933       25.447        0.070      339.114       12.225      866.227
01/18/2015  03:05:00       67.932       52.155        5.171       43.522       40.029       30.003     1894.199     1602.299      900.177        0.588        0.220       85.644       23.159        0.073      338.941       11.934      866.164
01/18/2015  03:06:00       54.161       -8.878        2.747       58.692       47.522       25.315     3444.809     2258.321      640.831        0.468        0.317       54.884       18.171        0.110      338.781       11.665      866.168
01/18/2015  03:07:00     -143.574      -85.017       -0.195       49.394       37.891       21.378     2439.758     1435.746      457.021        1.609        0.217      166.857       17.082        0.010      338.362       10.961      866.265
01/18/2015  03:08:00     -121.505      -54.517       -1.358       54.098       37.937       23.004     2926.548     1439.234      529.201        1.132        0.245      133.175       21.265        0.025      338.097       10.516      866.328
01/18/2015  03:09:00      -12.036      -11.988        1.197       29.660       12.425       11.362      879.732      154.391      129.098        0.073        0.058       16.987       12.259        0.521      338.247       10.769      866.291
01/18/2015  03:10:00       48.138      -19.199       -0.036        9.624       13.722        8.266       92.622      188.284       68.327        0.152        0.017       51.825        4.824        0.009      338.707       11.542      866.206
01/18/2015  03:11:00        6.033        7.975       13.308       29.747       19.222       15.467      884.874      369.476      239.231        0.089        0.075        9.999       10.538        1.111      338.433       11.082      866.102
01/18/2015  03:12:00      -86.702      -12.772      -15.014       54.031       21.914       13.415     2919.341      480.212      179.970        0.574        0.179       87.638       13.333        0.023      338.796       11.692      866.132
01/18/2015  03:13:00     -132.885      -41.393       -1.447       51.022       33.630       21.066     2603.281     1131.006      443.765        1.178        0.209      139.183       12.992        0.009      338.455       11.118      866.226
01/18/2015  03:14:00     -168.506      -39.123       -3.378       62.613       50.869       28.944     3920.407     2587.613      837.746        1.864        0.367      172.988       18.206        0.011      338.271       10.808      866.244
01/18/2015  03:15:00      -85.756      -16.868        4.160       61.533       70.449       35.189     3786.319     4963.047     1238.290        0.882        0.499       87.399       28.924        0.110      339.051       12.119      866.194
01/18/2015  03:16:00      -89.328      -79.538       13.055       80.265       55.326       29.755     6442.487     3060.979      885.372        1.243        0.519      119.607       37.226        0.097      338.780       11.665      866.143
01/18/2015  03:17:00     -162.051      -61.031       -8.628       85.212       65.798       40.875     7261.096     4329.330     1670.796        2.166        0.663      173.162       44.099        0.065      339.196       12.362      866.075
01/18/2015  03:18:00     -176.963      -76.241       -3.447       76.738       53.037       34.402     5888.689     2812.873     1183.517        2.351        0.494      192.688       33.336        0.030      338.970       11.981      866.079
01/18/2015  03:19:00     -234.725      -92.888       -3.740       97.315       66.819       37.698     9470.286     4464.770     1421.139        3.954        0.768      252.437       47.563        0.036      338.901       11.864      866.135
01/18/2015  03:20:00     -210.568      -86.792       -6.244      116.064       74.027       44.356    13470.763     5480.067     1967.465        3.641        1.046      227.754       46.586        0.042      338.962       11.967      866.158
01/18/2015  03:21:00     -203.234      -84.027       -2.593       67.618       56.291       33.675     4572.246     3168.673     1134.038        2.862        0.444      219.919       29.988        0.019      338.866       11.805      866.136
01/18/2015  03:22:00     -231.476      -83.574      -13.751       80.149       63.407       39.785     6423.887     4020.413     1582.873        3.639        0.601      246.101       35.408        0.021      338.986       12.007      866.124
01/18/2015  03:23:00     -107.671      -26.438        5.505       63.218       41.491       32.699     3996.472     1721.468     1069.234        0.955        0.339      110.869       35.006        0.100      338.751       11.616      866.104
01/18/2015  03:24:00     -116.879      -46.122        3.904       51.323       45.203       26.067     2634.058     2043.350      679.468        1.058        0.268      125.650       28.076        0.050      338.751       11.615      866.086
01/18/2015  03:25:00     -197.725      -98.923       -5.745       75.951       44.091       32.324     5768.593     1944.053     1044.853        2.883        0.438      221.091       35.454        0.026      338.845       11.770      866.096
01/18/2015  03:26:00     -220.515      -40.918       -6.023       92.414       80.742       39.784     8540.271     6519.249     1582.758        3.349        0.832      224.279       44.196        0.039      338.918       11.893      866.126
01/18/2015  03:27:00     -196.579      -90.614        6.055      103.056       72.466       43.726    10620.486     5251.330     1911.932        3.233        0.889      216.458       48.814        0.051      338.950       11.947      866.156
01/18/2015  03:28:00     -184.840      -63.369        5.579       82.430       64.356       36.353     6794.725     4141.684     1321.567        2.523        0.613      195.401       39.514        0.041      339.032       12.085      866.187
01/18/2015  03:29:00     -170.556      -71.515       -8.286       91.029       66.307       32.599     8286.299     4396.627     1062.725        2.401        0.687      184.942       38.810        0.044      339.010       12.048      866.236
01/18/2015  03:30:00     -192.704      -63.479       -1.477       57.073       64.742       30.082     3257.320     4191.535      904.926        2.476        0.418      202.890       31.347        0.024      339.072       12.152      866.246
01/18/2015  03:31:00     -170.492      -35.666       -1.295       77.136       53.100       40.462     5949.912     2819.624     1637.172        2.037        0.520      174.183       43.219        0.062      339.113       12.221      866.215
01/18/2015  03:32:00     -264.161     -115.550       -7.611       89.276       72.600       49.831     7970.291     5270.785     2483.143        4.945        0.786      288.327       41.562        0.021      339.188       12.346      866.202
01/18/2015  03:33:00     -210.572      -88.352       -8.573       93.180       80.135       37.691     8682.549     6421.652     1420.647        3.437        0.826      228.356       41.975        0.034      339.252       12.455      866.254
01/18/2015  03:34:00     -158.104      -56.649        3.035       77.849       81.693       37.226     6060.450     6673.675     1385.789        2.117        0.706      167.946       40.236        0.057      339.148       12.281      866.326
01/18/2015  03:35:00     -102.585     -111.367        1.596       61.928       56.903       38.301     3835.122     3237.919     1466.998        1.573        0.427      151.414       37.967        0.063      339.148       12.282      866.377
01/18/2015  03:36:00      -69.097     -157.329        1.348       47.343       46.012       27.872     2241.337     2117.102      776.853        1.733        0.257      171.833       19.497        0.013      339.303       12.543      866.387
01/18/2015  03:37:00        2.073      -57.629       -2.441       33.383       35.840       19.378     1114.436     1284.533      375.525        0.305        0.139       57.667        7.559        0.017      339.250       12.455      866.344
01/18/2015  03:38:00      -41.020       -4.694       -7.015       22.022       28.680       12.342      484.966      822.543      152.335        0.161        0.073       41.288        9.758        0.056      339.350       12.624      866.271
01/18/2015  03:39:00      -58.429      -40.616      -14.696       35.887       31.899       26.828     1287.890     1017.560      719.737        0.415        0.151       71.159       21.259        0.089      339.414       12.730      866.261
01/18/2015  03:40:00     -115.617      -80.570       -6.320       67.759       50.523       27.806     4591.266     2552.552      773.175        1.391        0.396      140.922       22.399        0.025      339.296       12.531      866.313
01/18/2015  03:41:00     -103.427      -62.684       -0.102       73.442       39.589       26.150     5393.663     1567.320      683.808        1.113        0.382      120.940       11.706        0.009      338.876       11.824      866.365
01/18/2015  03:42:00      -83.693      -94.704        0.995       76.110       37.506       27.742     5792.780     1406.672      769.612        1.197        0.398      126.386       36.836        0.085      339.140       12.268      866.356
01/18/2015  03:43:00      -61.419      -47.494       13.660       80.968       39.970       25.176     6555.814     1597.640      633.845        0.750        0.439       77.641       30.124        0.151      339.049       12.114      866.354
01/18/2015  03:44:00       -0.743      -46.974       13.704       30.174       60.811       18.725      910.487     3697.923      350.629        0.368        0.248       46.979       22.295        0.225      339.058       12.132      866.346
01/18/2015  03:45:00       -8.827      -32.038        9.569       25.710       35.699       21.288      660.993     1274.437      453.158        0.179        0.119       33.232       12.742        0.147      339.023       12.072      866.350
01/18/2015  03:46:00      -50.721      -30.257        2.875       39.104       22.777       19.008     1529.103      518.798      361.298        0.295        0.120       59.060       14.516        0.060      338.937       11.927      866.341
01/18/2015  03:47:00      -19.319      -86.054       -3.908       35.209       69.113       31.029     1239.679     4776.614      962.773        0.739        0.349       88.196       27.379        0.096      339.100       12.202      866.299
01/18/2015  03:48:00       59.645       18.396       34.778       56.808       43.538       31.150     3227.186     1895.550      970.308        0.560        0.305       62.418       33.691        0.291      338.893       11.854      866.236
01/18/2015  03:49:00      -51.269      -55.948       -3.432       42.510       40.013       22.258     1807.068     1601.070      495.433        0.484        0.195       75.886       21.214        0.078      339.088       12.183      866.251
01/18/2015  03:50:00      -16.496     -122.026       18.050       67.829      103.266       40.630     4600.838    10663.894     1650.764        1.620        0.846      123.136       33.708        0.075      339.067       12.145      866.314
01/18/2015  03:51:00     -122.968      -84.904       -0.458      122.316       50.550       39.473    14961.235     2555.256     1558.080        2.070        0.954      149.431       47.532        0.101      338.845       11.771      866.293
01/18/2015  03:52:00       -8.132      -94.762        5.033       67.418       81.365       39.022     4545.182     6620.300     1522.705        1.088        0.634       95.111       37.337        0.154      338.914       11.890      866.291
01/18/2015  03:53:00      -43.983     -166.501        1.814       77.939      123.024       58.275     6074.515    15134.935     3396.021        2.713        1.230      172.212       64.920        0.142      339.180       12.334      866.259
01/18/2015  03:54:00      -87.468     -199.808       -7.921       79.126       70.122       43.115     6260.948     4917.091     1858.885        3.033        0.652      218.115       14.502        0.004      339.182       12.337      866.302
01/18/2015  03:55:00     -116.676     -143.281       -7.968       51.421      107.845       32.339     2644.147    11630.533     1045.835        2.476        0.766      184.778       28.852        0.024      339.071       12.151      866.303
01/18/2015  03:56:00      -81.646        7.418       10.762       56.406       40.052       32.645     3181.693     1604.145     1065.721        0.634        0.293       81.982       29.340        0.128      338.849       11.779      866.265
01/18/2015  03:57:00     -106.050      -68.577       -3.397       44.487       38.072       20.722     1979.123     1449.479      429.382        0.991        0.193      126.291       15.265        0.015      338.841       11.766      866.259
01/18/2015  03:58:00     -104.424      -83.823        2.526       59.064       45.263       29.512     3488.552     2048.739      870.933        1.217        0.320      133.905       24.309        0.033      338.813       11.720      866.263
01/18/2015  03:59:00     -123.316      -87.119        4.011       65.253       70.733       34.644     4257.935     5003.197     1200.212        1.664        0.523      150.985       37.367        0.061      338.894       11.854      866.268
01/18/2015  04:00:00     -135.101      -80.963      -12.523       63.508       45.716       21.732     4033.227     2089.948      472.259        1.578        0.330      157.503       26.931        0.029      339.088       12.180      866.247
01/18/2015  04:01:00      -27.211      -16.066        4.409       23.570       28.113       10.299      555.559      790.361      106.077        0.123        0.073       31.600       12.674        0.161      338.877       11.827      866.216
01/18/2015  04:02:00      -54.068      -33.309        2.667       10.956       22.208       12.666      120.030      493.183      160.423        0.241        0.039       63.504        7.387        0.014      339.131       12.254      866.201
01/18/2015  04:03:00      -58.011       -5.340        3.310       22.160       28.535       18.516      491.073      814.235      342.839        0.253        0.082       58.256       13.716        0.055      338.787       11.675      866.248
01/18/2015  04:04:00     -107.591       16.886       -5.827       29.823       18.669       13.393      889.383      348.523      179.366        0.666        0.071      108.908        8.243        0.006      338.440       11.092      866.309
01/18/2015  04:05:00       -2.904       16.093        5.278       18.238       12.788       12.928      332.632      163.524      167.136        0.048        0.033       16.353       12.910        0.623      338.604       11.368      866.257
01/18/2015  04:06:00      -46.191      -24.195       -1.012       45.585       32.638       22.881     2077.965     1065.251      523.561        0.319        0.183       52.144       22.276        0.183      338.676       11.489      866.233
01/18/2015  04:07:00      -17.925      -55.623       15.824       60.104       66.585       28.173     3612.527     4433.613      793.693        0.625        0.442       58.440       27.711        0.225      338.977       11.996      866.242
01/18/2015  04:08:00       -6.732     -147.580      -19.238       74.542       72.374       48.693     5556.473     5238.048     2370.976        1.768        0.658      147.734       44.805        0.092      339.011       12.052      866.278
01/18/2015  04:09:00      -36.181       -2.511        3.084       20.184       22.755       23.304      407.414      517.771      543.057        0.140        0.073       36.268        8.446        0.054      339.087       12.181      866.276
01/18/2015  04:10:00      -34.117      -98.382        4.510       31.525       68.814       18.095      993.848     4735.318      327.417        0.846        0.303      104.129       19.465        0.035      339.042       12.103      866.291
01/18/2015  04:11:00        5.476       11.507       67.116       63.927       58.655       49.068     4086.699     3440.410     2407.654        0.730        0.497       12.744       41.223       10.463      338.775       11.655      866.249
01/18/2015  04:12:00      -76.871       10.323        8.828       52.549       32.021       24.547     2761.372     1025.344      602.573        0.524        0.219       77.561       15.558        0.040      338.705       11.537      866.215
01/18/2015  04:13:00      -85.844       11.379      -12.953       34.362       28.197       20.395     1180.729      795.072      415.940        0.503        0.120       86.595       12.925        0.022      338.705       11.539      866.280
01/18/2015  04:14:00      -97.127      -30.551        0.142       49.686       36.795       22.775     2468.697     1353.902      518.680        0.735        0.217      101.819       22.901        0.051      338.145       10.597      866.320
01/18/2015  04:15:00       48.027       24.696       26.558       39.822       23.358       18.154     1585.786      545.583      329.585        0.304        0.123       54.004       15.043        0.078      338.160       10.623      866.273
01/18/2015  04:16:00       10.865      -25.713       15.517       28.707       42.266       33.649      824.112     1786.433     1132.275        0.238        0.187       27.915       30.474        1.192      338.326       10.901      866.276
01/18/2015  04:17:00      -63.232     -147.846       -3.682       51.218       57.967       29.053     2623.265     3360.204      844.090        1.635        0.341      160.800       14.098        0.008      338.959       11.964      866.310
01/18/2015  04:18:00     -185.059      -86.340      -11.044       76.203       56.417       30.081     5806.829     3182.876      904.859        2.586        0.495      204.209       29.165        0.020      338.563       11.296      866.321
01/18/2015  04:19:00     -117.607      -75.278       -6.226       80.446       52.323       35.571     6471.531     2737.649     1265.299        1.500        0.524      139.636       40.717        0.085      338.517       11.223      866.334
01/18/2015  04:20:00     -110.943       11.378       -7.279       29.355       37.099       20.064      861.707     1376.334      402.557        0.757        0.132      111.525       15.001        0.018      337.942       10.257      866.336
01/18/2015  04:21:00        3.722       31.467        8.334       39.571       29.045       28.418     1565.858      843.593      807.576        0.214        0.161       31.686       28.533        0.811      338.291       10.842      866.286
01/18/2015  04:22:00      -29.053      -83.339       -2.865       23.980       25.063       15.204      575.052      628.153      231.158        0.462        0.072       88.258        7.159        0.007      338.565       11.303      866.286
01/18/2015  04:23:00      -95.956      -76.157       11.197      123.515       76.615       54.292    15256.025     5869.894     2947.584        1.960        1.204      122.505       71.061        0.336      338.521       11.229      866.302
01/18/2015  04:24:00     -174.501       50.472      -20.578       71.626       35.588       28.719     5130.294     1266.534      824.808        2.032        0.361      181.653       20.929        0.013      338.454       11.115      866.270
01/18/2015  04:25:00       52.791       65.435       12.764       60.361       49.881       37.254     3643.486     2488.143     1387.870        0.737        0.376       84.075       41.113        0.239      338.537       11.256      866.165
01/18/2015  04:26:00      -22.339      -22.910      -12.024       35.519       18.396       13.102     1261.625      338.412      171.662        0.147        0.089       31.998        7.641        0.057      338.283       10.829      866.172
01/18/2015  04:27:00      -30.308      -39.153        1.899       57.180       47.918       30.074     3269.575     2296.093      904.471        0.446        0.324       49.513       22.353        0.204      338.358       10.954      866.217
01/18/2015  04:28:00     -199.948     -124.774       -2.045       95.129       67.092       40.465     9049.532     4501.283     1637.401        3.537        0.759      235.686       39.795        0.029      338.651       11.445      866.258
01/18/2015  04:29:00     -110.051      -65.381        6.164       71.467       49.578       37.448     5107.475     2458.012     1402.348        1.269        0.448      128.007       37.656        0.087      338.627       11.407      866.307
01/18/2015  04:30:00      -13.358      -83.647        5.973       33.710       57.082       22.815     1136.340     3258.330      520.513        0.606        0.246       84.707       28.532        0.113      338.593       11.350      866.265
01/18/2015  04:31:00      -57.323       41.640      -22.329       52.093       37.937       37.869     2713.669     1439.217     1434.081        0.555        0.279       70.851       26.467        0.140      338.545       11.268      866.182
01/18/2015  04:32:00      -65.696       19.649       -0.725       56.370       28.572       21.084     3177.538      816.383      444.535        0.457        0.222       68.572       28.961        0.178      338.631       11.413      866.198
01/18/2015  04:33:00     -152.809       -8.954       -2.571       56.586       46.215       32.155     3201.996     2135.786     1033.927        1.490        0.319      153.071       31.881        0.043      338.532       11.247      866.258
01/18/2015  04:34:00      -36.632       -8.572       24.080       58.252       72.421       38.302     3393.245     5244.813     1467.032        0.605        0.505       37.622       36.514        0.942      338.351       10.944      866.278
01/18/2015  04:35:00      -23.365       -9.610       27.094       74.529       67.290       36.127     5554.588     4527.956     1305.169        0.638        0.569       25.264       42.611        2.845      338.305       10.867      866.238
01/18/2015  04:36:00       26.336      -25.017       25.341       31.127       23.677       22.730      968.863      560.618      516.663        0.200        0.102       36.324       19.903        0.300      338.542       11.264      866.128
01/18/2015  04:37:00     -146.618      -34.760        0.979       73.291       67.737       39.300     5371.531     4588.288     1544.513        1.710        0.575      150.682       26.423        0.031      338.716       11.556      866.147
01/18/2015  04:38:00      -54.815      -24.144       20.247       89.176       60.839       38.789     7952.349     3701.341     1504.614        0.858        0.658       59.896       44.253        0.546      338.484       11.166      866.241
01/18/2015  04:39:00      -82.210     -117.807        6.148       78.429       59.583       43.936     6151.178     3550.077     1930.348        1.615        0.582      143.656       38.804        0.073      338.533       11.248      866.264
01/18/2015  04:40:00        0.423      -67.406       11.625       48.771       77.494       41.212     2378.568     6005.273     1698.464        0.738        0.504       67.407       36.074        0.286      338.348       10.938      866.159
01/18/2015  04:41:00       -7.216       47.075       63.142       30.199       45.674       37.530      911.975     2086.092     1408.507        0.533        0.220       47.625       24.260        0.259      337.744        9.926      866.033
01/18/2015  04:42:00      -68.926      -46.217        4.682       69.798       34.550       28.762     4871.819     1193.737      827.271        0.690        0.345       82.987       14.733        0.032      337.956       10.281      866.150
01/18/2015  04:43:00      -74.460      -70.965       -1.414       50.821       42.779       26.069     2582.734     1830.056      679.607        0.784        0.255      102.861       17.164        0.028      337.955       10.279      866.302
01/18/2015  04:44:00      -82.376     -116.695      -13.176       91.580       32.236       23.744     8386.918     1039.140      563.767        1.528        0.499      142.841       11.664        0.007      338.352       10.944      866.259
01/18/2015  04:45:00       10.531      -16.595       14.316       31.219       52.088       24.932      974.622     2713.125      621.629        0.245        0.215       19.654       29.541        2.259      338.167       10.634      866.162
01/18/2015  04:46:00       14.753       16.281       -3.549       29.239       18.316       12.447      854.931      335.490      154.926        0.092        0.067       21.970       11.029        0.252      338.170       10.640      866.159
01/18/2015  04:47:00       -8.626      -19.305       -0.828       22.046       17.839       13.233      486.020      318.242      175.100        0.071        0.049       21.145       10.678        0.255      338.171       10.641      866.223
01/18/2015  04:48:00      -33.459      -15.041        3.466       27.628       16.158       16.910      763.279      261.074      285.940        0.133        0.066       36.684        6.634        0.033      338.015       10.380      866.244
01/18/2015  04:49:00      -43.243      -92.263       -4.919       33.352       44.911       16.478     1112.341     2017.029      271.525        0.690        0.170      101.894       15.086        0.022      338.126       10.566      866.295
01/18/2015  04:50:00      -96.261     -184.476       -9.572       34.287       39.276       22.782     1175.633     1542.595      519.028        2.331        0.162      208.081       19.840        0.009      338.571       11.312      866.329
01/18/2015  04:51:00      -82.705      -98.177       -6.954       57.371       56.065       28.358     3291.380     3143.260      804.176        1.188        0.362      128.370       26.217        0.042      338.478       11.155      866.328
01/18/2015  04:52:00     -107.460     -114.083      -12.896       42.380       44.966       27.728     1796.074     2021.902      768.837        1.466        0.229      156.724       16.488        0.011      338.411       11.044      866.380
01/18/2015  04:53:00      -54.734     -124.919       -0.846       38.923       66.224       33.360     1514.978     4385.580     1112.913        1.281        0.351      136.384       24.965        0.034      338.458       11.122      866.381
01/18/2015  04:54:00       -1.442        9.310        1.436       67.266       66.602       30.636     4524.682     4435.890      938.565        0.499        0.495        9.421       19.429        4.253      338.216       10.715      866.272
01/18/2015  04:55:00       34.426       22.445       22.147       51.262       34.263       23.236     2627.837     1173.935      539.913        0.326        0.217       41.097       20.577        0.251      337.848       10.099      866.191
01/18/2015  04:56:00      -95.616      -79.187       -8.509       52.355       56.690       28.965     2741.035     3213.727      838.947        1.114        0.340      124.149       22.729        0.034      338.133       10.577      866.372
01/18/2015  04:57:00      -28.112      -94.162       11.247       51.710       64.976       41.190     2673.915     4221.859     1696.605        0.919        0.430       98.269       37.296        0.144      338.177       10.651      866.481
01/18/2015  04:58:00      -73.709      -92.427        3.628       55.000       57.402       25.901     3024.951     3294.976      670.871        1.049        0.350      118.219       23.573        0.040      338.530       11.243      866.439
01/18/2015  04:59:00      -16.367       -6.520        6.279       70.586       51.364       20.766     4982.436     2638.230      431.243        0.420        0.403       17.617       30.400        2.978      338.459       11.126      866.371
01/18/2015  05:00:00       47.751       57.518       51.692       71.265       50.355       31.807     5078.669     2535.601     1011.670        0.844        0.431       74.756       35.444        0.225      338.443       11.098      866.303
01/18/2015  05:01:00     -130.599      -62.372       -5.301       60.962       35.199       21.695     3716.423     1238.979      470.682        1.320        0.271      144.729       26.069        0.032      338.025       10.394      866.407
01/18/2015  05:02:00     -105.428      -66.004        2.765       59.149       29.811       23.409     3498.573      888.677      547.973        1.021        0.247      124.385       16.925        0.019      337.950       10.272      866.528
01/18/2015  05:03:00     -103.514      -43.813        5.039       62.025       38.490       24.516     3847.102     1481.492      601.043        0.929        0.296      112.404       29.279        0.068      338.004       10.361      866.501
01/18/2015  05:04:00        0.532       -8.443       10.351       14.786       19.263       16.301      218.613      371.066      265.725        0.052        0.043        8.459       13.982        2.732      337.700        9.852      866.410
01/18/2015  05:05:00      -28.095      -57.768       -2.009       29.318       27.508       19.984      859.517      756.677      399.344        0.307        0.101       64.237       15.314        0.057      337.964       10.294      866.451
01/18/2015  05:06:00      -18.701      -21.025       20.491       35.309       28.029       19.219     1246.733      785.602      369.361        0.181        0.120       28.138       21.919        0.607      337.724        9.891      866.504
01/18/2015  05:07:00       16.665       35.383       40.931       24.120       25.285       16.880      581.759      639.338      284.922        0.236        0.075       39.111       17.555        0.201      336.835        8.404      866.478
01/18/2015  05:08:00       96.441       56.798       16.591       31.148       14.707       15.948      970.198      216.297      254.330        0.712        0.072      111.924        6.956        0.004      336.606        8.022      866.417
01/18/2015  05:09:00       77.136       14.221       15.951       44.260       42.959       31.900     1958.928     1845.461     1017.597        0.561        0.241       78.436       29.693        0.143      336.628        8.057      866.441
01/18/2015  05:10:00       10.328      -52.320        8.589       30.955       21.034       23.865      958.221      442.449      569.545        0.244        0.099       53.330       14.405        0.073      336.728        8.225      866.529
01/18/2015  05:11:00      -25.913      -30.712       16.538       26.157       26.701       25.021      684.181      712.956      626.030        0.196        0.101       40.184       11.428        0.081      336.658        8.109      866.525
01/18/2015  05:12:00      -24.163       25.073       16.495       23.293       26.457       17.939      542.585      699.996      321.813        0.152        0.078       34.821       18.344        0.278      336.629        8.060      866.466
01/18/2015  05:13:00       65.656       73.670       13.801       35.251       25.423       38.434     1242.656      646.353     1477.138        0.665        0.168       98.681       24.656        0.062      336.287        7.488      866.317
01/18/2015  05:14:00       45.123       42.058       -3.953       33.734       24.451       19.651     1138.013      597.857      386.155        0.297        0.106       61.684       14.532        0.056      336.268        7.456      866.265
01/18/2015  05:15:00      -83.141       51.721      -19.751       58.356       18.797       10.730     3405.373      353.325      115.131        0.693        0.194       97.916        8.765        0.008      336.396        7.669      866.412
01/18/2015  05:16:00      -55.474        8.123       -3.307       19.969       17.426       11.649      398.766      303.682      135.704        0.200        0.042       56.065       11.077        0.039      336.846        8.421      866.493
01/18/2015  05:17:00      -16.510       28.645        1.689       31.139       45.580       19.511      969.620     2077.558      380.686        0.226        0.171       33.062       10.931        0.109      336.532        7.897      866.440
01/18/2015  05:18:00       66.461       63.493        7.792       23.266       24.302       18.148      541.293      590.585      329.334        0.498        0.073       91.916        9.759        0.011      336.612        8.032      866.313
01/18/2015  05:19:00       88.859       65.332       -8.068       39.926       35.360       27.592     1594.075     1250.295      761.325        0.792        0.180      110.291       22.865        0.043      336.060        7.107      866.254
01/18/2015  05:20:00      -49.852      -44.539       -8.807       34.088       38.719       20.059     1161.992     1499.193      402.371        0.380        0.153       66.850       20.386        0.093      336.260        7.440      866.390
01/18/2015  05:21:00     -107.568      -24.064      -15.340       30.194       23.579       12.883      911.667      555.992      165.965        0.701        0.082      110.227       12.251        0.012      336.652        8.098      866.480
01/18/2015  05:22:00     -112.466       -8.976       -6.593       50.726       25.111       21.802     2573.084      630.580      475.327        0.823        0.184      112.824       24.698        0.048      336.331        7.561      866.476
01/18/2015  05:23:00      -60.526      -13.999       -1.774       44.360       36.162       17.281     1967.844     1307.703      298.634        0.372        0.179       62.124       16.066        0.067      336.828        8.392      866.465
01/18/2015  05:24:00       -9.550      -20.286        7.133       31.511       25.036       12.201      992.957      626.810      148.866        0.116        0.088       22.421       11.159        0.248      336.910        8.528      866.454
01/18/2015  05:25:00      -82.723      -30.723        0.033       20.297       21.768       15.460      411.954      473.837      239.020        0.446        0.056       88.244       12.790        0.021      336.909        8.528      866.485
01/18/2015  05:26:00      -26.188      -26.425        5.540       39.532       20.546       15.000     1562.795      422.145      225.011        0.181        0.110       37.204       10.798        0.084      336.677        8.141      866.519
01/18/2015  05:27:00       11.635       -2.133        4.514       11.119       12.354        9.149      123.627      152.617       83.710        0.026        0.018       11.829        4.245        0.129      336.500        7.843      866.503
01/18/2015  05:28:00       72.644       59.071       12.569       17.574       25.771       15.310      308.847      664.124      234.407        0.507        0.060       93.630       16.531        0.031      336.214        7.364      866.432
01/18/2015  05:29:00       94.335       75.000       -7.510       38.230       25.869       19.031     1461.550      669.208      362.198        0.854        0.125      120.516        8.459        0.005      336.277        7.470      866.375
01/18/2015  05:30:00       14.917       37.062       -3.514       26.643       26.802       14.427      709.843      718.334      208.147        0.162        0.082       39.951       13.745        0.118      336.302        7.511      866.395
01/18/2015  05:31:00      -75.390      -13.195      -11.063       38.042       43.877        8.676     1447.175     1925.176       75.270        0.471        0.172       76.536       13.909        0.033      336.592        7.998      866.467
01/18/2015  05:32:00     -123.901      -64.957      -12.636       34.049       23.969       16.797     1159.305      574.498      282.136        1.087        0.101      139.896        5.014        0.001      336.286        7.485      866.506
01/18/2015  05:33:00      -81.256      -68.030        4.364       36.874       25.254       19.042     1359.691      637.748      362.591        0.680        0.118      105.974       18.825        0.032      336.367        7.622      866.502
01/18/2015  05:34:00      -90.166      -58.470        4.668       43.935       30.853       21.763     1930.255      951.904      473.638        0.746        0.168      107.464       22.643        0.044      336.855        8.437      866.497
01/18/2015  05:35:00      -59.790      -31.843        0.896       33.845       22.363       16.159     1145.478      500.124      261.111        0.325        0.095       67.741       15.397        0.052      336.877        8.472      866.483
01/18/2015  05:36:00      -61.458      -55.573       -0.906       25.635       24.431       15.449      657.160      596.876      238.670        0.418        0.075       82.858       14.556        0.031      336.935        8.569      866.467
01/18/2015  05:37:00      -47.512      -51.089       -0.137       47.328       15.098       14.506     2239.968      227.959      210.413        0.377        0.134       69.767       16.680        0.057      337.016        8.706      866.466
01/18/2015  05:38:00      -67.735      -82.640        1.268       30.695       31.531       17.200      942.186      994.176      295.838        0.683        0.112      106.852       15.909        0.022      336.851        8.430      866.482
01/18/2015  05:39:00      -71.761     -147.539      -14.383       54.785       59.821       31.962     3001.431     3578.550     1021.539        1.736        0.380      164.065       29.897        0.033      337.578        9.647      866.478
01/18/2015  05:40:00      -90.527      -90.611        3.304       58.511       57.448       37.014     3423.504     3300.230     1370.017        1.225        0.405      128.084       30.958        0.058      337.160        8.946      866.500
01/18/2015  05:41:00      -63.943      -47.683        7.236       49.683       28.012       23.198     2468.421      784.656      538.149        0.510        0.190       79.764       19.090        0.057      337.026        8.722      866.496
01/18/2015  05:42:00       33.460       -4.496        8.470       22.574       53.135       26.175      509.565     2823.381      685.150        0.261        0.201       33.761       33.647        0.993      336.645        8.085      866.474
01/18/2015  05:43:00       48.185       60.807       -2.009       15.867       12.911        8.892      251.772      166.698       79.061        0.326        0.025       77.584        6.501        0.007      336.356        7.601      866.474
01/18/2015  05:44:00       21.696       24.406       -6.721       18.573       28.020        5.950      344.944      785.098       35.399        0.114        0.058       32.656        3.292        0.010      336.313        7.529      866.481
01/18/2015  05:45:00      -81.391      -42.346       -1.548       31.241       22.818       10.310      975.979      520.672      106.287        0.501        0.080       91.748        7.364        0.006      336.588        7.991      866.510
01/18/2015  05:46:00     -117.496      -31.769       -2.006       29.287       24.877       15.708      857.727      618.872      246.757        0.827        0.086      121.716       12.102        0.010      336.390        7.660      866.542
01/18/2015  05:47:00      -69.488      -19.903       -1.425       19.529       16.774       10.703      381.385      281.370      114.565        0.300        0.039       72.282        6.159        0.007      336.407        7.689      866.545
01/18/2015  05:48:00      -43.570      -31.038       -2.873       16.975       15.787        8.906      288.167      249.215       79.324        0.174        0.031       53.495        9.254        0.030      336.481        7.812      866.542
01/18/2015  05:49:00      -23.087      -25.377        7.567       18.282       14.828        9.228      334.242      219.873       85.164        0.094        0.032       34.307        8.171        0.057      336.505        7.851      866.559
01/18/2015  05:50:00      -10.315      -36.051        7.482       12.493       17.329        7.277      156.077      300.310       52.949        0.099        0.025       37.498        3.541        0.009      336.625        8.053      866.571
01/18/2015  05:51:00      -46.436      -50.959        3.856       25.079       21.108       15.232      628.973      445.528      232.029        0.304        0.065       68.943        8.839        0.016      336.723        8.217      866.582
01/18/2015  05:52:00      -40.814      -71.681        3.123       35.610       29.567       20.320     1268.051      874.217      412.897        0.468        0.128       82.486       17.242        0.044      336.596        8.004      866.600
01/18/2015  05:53:00      -40.932      -83.624       -1.668       26.536       28.566       14.279      704.167      815.995      203.890        0.520        0.086       93.104       10.453        0.013      336.875        8.471      866.577
01/18/2015  05:54:00      -60.974      -54.746       -8.184       22.416       24.356       12.032      502.481      593.193      144.776        0.401        0.062       81.944       10.934        0.018      336.856        8.439      866.544
01/18/2015  05:55:00      -64.984      -40.739       -6.545       39.313       12.942        9.349     1545.484      167.505       87.397        0.386        0.090       76.698       13.082        0.029      336.942        8.581      866.540
01/18/2015  05:56:00     -109.960      -24.202       -5.422       41.702       28.361       22.098     1739.058      804.371      488.306        0.787        0.152      112.592       21.982        0.038      336.203        7.346      866.600
01/18/2015  05:57:00     -105.030      -63.790        7.109       49.239       36.213       19.589     2424.436     1311.411      383.724        0.963        0.206      122.884       19.140        0.024      336.725        8.220      866.631
01/18/2015  05:58:00     -111.916      -42.077        1.841       45.151       37.480       28.445     2038.576     1404.726      809.137        0.928        0.213      119.565       26.360        0.049      337.092        8.833      866.611
01/18/2015  05:59:00     -117.659      -42.096        5.490       42.407       28.497       16.428     1798.339      812.065      269.890        0.926        0.144      124.962       18.830        0.023      337.224        9.054      866.601
01/18/2015  06:00:00     -127.707      -81.145        4.631       56.618       30.830       28.329     3205.633      950.502      802.510        1.394        0.248      151.306       27.175        0.032      337.372        9.302      866.633
01/18/2015  06:01:00     -130.140      -72.792        7.476       54.540       42.177       24.895     2974.605     1778.937      619.769        1.383        0.269      149.114       23.114        0.024      337.169        8.961      866.669
01/18/2015  06:02:00      -87.473      -93.526        6.375       45.997       42.935       27.043     2115.705     1843.431      731.330        1.056        0.235      128.057       21.838        0.029      337.809       10.035      866.649
01/18/2015  06:03:00     -116.651     -120.085      -18.019       40.695       69.560       21.669     1656.047     4838.602      469.555        1.766        0.348      167.415       23.016        0.019      338.811       11.717      866.624
01/18/2015  06:04:00      -68.938      -15.056        3.432       45.743       34.386       22.784     2092.448     1182.429      519.089        0.439        0.190       70.563       16.820        0.057      337.478        9.479      866.642
01/18/2015  06:05:00      -62.101      -14.519        1.034       32.043       22.554       14.984     1026.733      508.675      224.533        0.291        0.088       63.776       16.868        0.070      336.762        8.280      866.655
01/18/2015  06:06:00      -86.875      -53.857       -7.210       24.638       27.846       13.599      607.028      775.424      184.923        0.603        0.078      102.215       15.886        0.024      337.389        9.331      866.657
01/18/2015  06:07:00      -90.074      -81.313        2.010       35.078       35.499       20.767     1230.443     1260.208      431.278        0.883        0.146      121.347       21.383        0.031      337.843       10.091      866.666
01/18/2015  06:08:00      -85.809      -54.691        0.324       33.869       20.017       19.884     1147.077      400.680      395.375        0.615        0.097      101.756       16.462        0.026      337.502        9.519      866.669
01/18/2015  06:09:00      -96.803      -26.470       -9.340        8.878       11.013        7.295       78.814      121.279       53.222        0.521        0.013      100.356        3.568        0.001      337.031        8.732      866.685
01/18/2015  06:10:00      -89.049      -66.059       -6.016       12.665       38.286        8.671      160.399     1465.854       75.182        0.702        0.085      110.877        9.360        0.007      337.527        9.561      866.716
01/18/2015  06:11:00      -78.340      -94.866       -6.101       21.597       21.416       20.535      466.416      458.629      421.675        0.826        0.067      123.031       11.443        0.009      338.079       10.487      866.729
01/18/2015  06:12:00      -64.372      -27.944       -5.173       25.189       24.186       10.744      634.469      584.952      115.432        0.314        0.067       70.176        7.895        0.013      337.632        9.736      866.703
01/18/2015  06:13:00      -42.187      -28.238       -2.933       11.150       11.351        6.675      124.322      128.848       44.556        0.144        0.015       50.765        3.989        0.006      338.015       10.379      866.664
01/18/2015  06:14:00      -64.698      -83.652       -4.837       23.151       19.174        7.028      535.959      367.636       49.389        0.608        0.048      105.752        6.814        0.004      338.536       11.254      866.686
01/18/2015  06:15:00      -95.744      -77.644        0.058       33.395       36.059       24.154     1115.237     1300.281      583.409        0.910        0.150      123.270       20.695        0.028      337.281        9.151      866.771
01/18/2015  06:16:00      -81.050     -110.359        6.748       59.111       73.843       28.526     3494.103     5452.777      813.744        1.428        0.488      136.925       33.240        0.059      337.771        9.969      866.813
01/18/2015  06:17:00      -68.391     -178.267        1.744       29.944       50.641       24.962      896.653     2564.507      623.114        2.027        0.204      190.936       23.787        0.016      338.481       11.159      866.781
01/18/2015  06:18:00      -15.337      -46.189        1.359       43.523       62.371       17.681     1894.229     3890.168      312.623        0.423        0.305       48.668       23.857        0.240      338.172       10.645      866.749
01/18/2015  06:19:00       82.633       60.764       -0.906       43.495       33.901       31.061     1891.851     1149.254      964.808        0.726        0.200      102.569       22.363        0.048      336.449        7.757      866.774
01/18/2015  06:20:00       39.813       82.498       86.374       55.604       45.466       30.891     3091.835     2067.136      954.227        1.098        0.306       91.603       27.542        0.090      335.764        6.615      866.795
01/18/2015  06:21:00       63.343      111.133       96.786       48.570       35.743       28.473     2359.086     1277.539      810.721        1.509        0.222      127.918       19.826        0.024      335.594        6.332      866.836
01/18/2015  06:22:00       40.241       36.257       29.339       37.727       48.059       41.938     1423.299     2309.645     1758.770        0.464        0.275       54.166       38.135        0.496      335.349        5.923      866.885
01/18/2015  06:23:00       18.817       60.503        4.317       27.362       44.146       22.557      748.661     1948.877      508.833        0.362        0.160       63.361       20.171        0.101      335.185        5.651      866.934
01/18/2015  06:24:00       75.684       90.864       -8.648       37.775       28.306       23.010     1426.964      801.248      529.459        0.841        0.138      118.256       14.431        0.015      335.352        5.928      866.926
01/18/2015  06:25:00       88.326       41.612       29.550       38.277       36.587       31.485     1465.091     1338.632      991.274        0.710        0.190       97.637       22.403        0.053      335.425        6.049      866.933
01/18/2015  06:26:00        1.844      -18.853        7.642       34.732       18.690       14.006     1206.293      349.335      196.159        0.108        0.088       18.943        3.424        0.033      335.588        6.321      866.984
01/18/2015  06:27:00      -40.924       -4.828       -8.188       21.664       17.044       10.504      469.308      290.512      110.327        0.132        0.044       41.208       10.548        0.066      335.515        6.201      867.005
01/18/2015  06:28:00      -25.388       -7.472       -8.504       24.647       14.556        9.421      607.464      211.863       88.753        0.084        0.045       26.464       12.273        0.215      335.688        6.488      867.021
01/18/2015  06:29:00       40.661       28.405       27.861       24.411       30.022       26.449      595.880      901.346      699.540        0.272        0.110       49.600       24.969        0.253      335.900        6.841      867.033
01/18/2015  06:30:00       74.107       66.994       36.923       25.020       24.689       28.794      625.978      609.531      829.072        0.670        0.103       99.900        8.581        0.007      335.949        6.923      867.001
01/18/2015  06:31:00       56.020       22.710       -5.914       26.891       40.440       22.089      723.139     1635.419      487.939        0.327        0.142       60.449       12.013        0.039      335.655        6.435      867.002
01/18/2015  06:32:00       56.468       -8.433       11.067       29.761       49.441       23.032      885.694     2444.414      530.491        0.362        0.193       57.095       19.548        0.117      336.135        7.234      867.063
01/18/2015  06:33:00       70.609       31.688       43.279       29.927       38.667       27.410      895.596     1495.109      751.331        0.550        0.157       77.394       24.668        0.102      336.254        7.431      867.066
01/18/2015  06:34:00       81.820      107.374       87.831       43.514       39.433       42.821     1893.487     1554.975     1833.627        1.561        0.264      134.995       32.524        0.058      336.205        7.350      867.011
01/18/2015  06:35:00       14.782       65.298       99.241       34.599       46.298       31.446     1197.081     2143.541      988.862        0.933        0.216       66.950       28.677        0.183      336.136        7.235      867.008
01/18/2015  06:36:00       36.954      -33.570       32.232       36.819       40.791       31.956     1355.657     1663.928     1021.182        0.379        0.202       49.925       24.030        0.232      336.105        7.182      867.036
01/18/2015  06:37:00       18.928      -11.679       33.678       30.579       51.288       31.815      935.046     2630.413     1012.204        0.310        0.229       22.241       36.453        2.686      336.214        7.366      867.049
01/18/2015  06:38:00      -17.088      -15.141        4.140       17.510       21.551       14.859      306.588      464.440      220.793        0.076        0.050       22.831       11.986        0.276      336.155        7.269      867.084
01/18/2015  06:39:00      -10.067       -9.967        1.890       19.356       19.305       12.600      374.648      372.668      158.758        0.056        0.045       14.166       11.957        0.712      335.976        6.967      867.082
01/18/2015  06:40:00       75.640       52.851       26.350       38.008       17.135       21.144     1444.616      293.598      447.058        0.570        0.109       92.274       19.212        0.043      335.992        6.995      867.022
01/18/2015  06:41:00       18.819        3.987        9.471       27.107       28.331       17.757      734.769      802.654      315.300        0.116        0.093       19.237       15.803        0.675      335.884        6.815      867.011
01/18/2015  06:42:00      -18.989       18.209       -0.362       14.484       15.284        7.934      209.787      233.604       62.944        0.060        0.025       26.308        8.661        0.108      335.993        6.996      867.050
01/18/2015  06:43:00      -12.868       30.229        3.093       12.629       11.088        9.570      159.489      122.946       91.584        0.073        0.019       32.854        3.902        0.014      336.245        7.419      867.083
01/18/2015  06:44:00       21.965        9.580        9.483       13.383       12.927        9.872      179.100      167.113       97.449        0.055        0.022       23.963        4.766        0.040      336.221        7.378      867.066
01/18/2015  06:45:00       53.942      -12.476        2.015       35.158       25.546       14.132     1236.063      652.584      199.708        0.258        0.104       55.366       11.371        0.042      336.330        7.559      867.058
01/18/2015  06:46:00       25.710       -1.627       27.409       36.652       49.214       29.434     1343.402     2421.984      866.368        0.302        0.232       25.762       32.252        1.567      336.203        7.347      867.032
01/18/2015  06:47:00       47.437       43.624       44.214       22.148       31.554       17.747      490.516      995.683      314.945        0.395        0.090       64.446       17.097        0.070      336.089        7.155      867.019
01/18/2015  06:48:00      -32.580       13.677       12.275       42.175       31.458       25.344     1778.747      989.610      642.342        0.240        0.171       35.335       32.342        0.838      336.253        7.432      867.026
01/18/2015  06:49:00      -63.429       27.811       -5.717       27.970       36.151       22.075      782.334     1306.868      487.318        0.370        0.129       69.258       17.813        0.066      336.398        7.674      867.072
01/18/2015  06:50:00      -67.687       67.154      -17.873       27.561       22.765       13.305      759.598      518.246      177.016        0.543        0.073       95.348       13.355        0.020      336.268        7.455      867.105
01/18/2015  06:51:00      -37.661       72.155       -4.954       16.803       26.659       14.756      282.345      710.700      217.750        0.393        0.061       81.392       13.748        0.029      336.416        7.704      867.108
01/18/2015  06:52:00       25.294       71.908       -1.627       38.438       21.443       14.831     1477.470      459.818      219.972        0.398        0.108       76.227       15.282        0.040      336.275        7.467      867.083
01/18/2015  06:53:00        3.952       27.826       -5.097       49.105       34.293       15.246     2411.316     1176.013      232.439        0.232        0.191       28.105       23.303        0.687      335.980        6.974      867.066
01/18/2015  06:54:00        0.727        3.274       -9.177       18.064       14.170        7.679      326.301      200.786       58.962        0.034        0.029        3.353        9.098        7.362      336.264        7.450      867.081
01/18/2015  06:55:00       45.156       27.457       -2.413       51.669       12.698        9.067     2669.661      161.229       82.216        0.286        0.146       52.848       20.092        0.145      336.648        8.092      867.097
01/18/2015  06:56:00       72.249       21.332       -0.403       59.875       45.536       25.695     3585.026     2073.494      660.241        0.600        0.316       75.332       28.493        0.143      336.108        7.189      867.092
01/18/2015  06:57:00       62.481       -2.478        9.869       26.838       27.408       19.057      720.281      751.196      363.159        0.292        0.092       62.530       14.182        0.051      335.949        6.923      867.145
01/18/2015  06:58:00      120.272       57.204       22.403       37.633       34.342       35.853     1416.248     1179.351     1285.470        1.106        0.194      133.182       16.164        0.015      336.017        7.037      867.136
01/18/2015  06:59:00       88.477       48.595       12.286       43.405       32.645       32.267     1884.001     1065.720     1041.155        0.717        0.200      100.944       18.570        0.034      335.856        6.769      867.100
01/18/2015  07:00:00       23.061       56.485       -3.337       33.746       28.027       22.376     1138.762      785.529      500.690        0.308        0.121       61.012       18.077        0.088      335.798        6.672      867.108
01/18/2015  07:01:00        7.337       87.130      -18.967       14.235       15.487       12.626      202.628      239.835      159.427        0.430        0.030       87.439       11.730        0.018      335.926        6.885      867.122
01/18/2015  07:02:00      -56.903       42.383      -14.195       29.241       26.880       12.655      855.049      722.540      160.149        0.349        0.087       70.952       10.461        0.022      335.894        6.831      867.152
01/18/2015  07:03:00      -27.085       66.116       -3.586       20.082       28.237       13.910      403.279      797.321      193.491        0.326        0.070       71.449       15.130        0.045      336.037        7.071      867.169
01/18/2015  07:04:00      -35.970       42.280       -8.582       19.441       32.241        9.291      377.957     1039.467       86.323        0.233        0.075       55.511       12.955        0.054      336.363        7.615      867.164
01/18/2015  07:05:00      -35.135      -21.817       -6.945       14.032       19.037        6.760      196.902      362.422       45.697        0.118        0.030       41.358        5.178        0.016      336.336        7.570      867.171
01/18/2015  07:06:00      -93.840      -56.364       -5.891       44.462       19.735       14.688     1976.834      389.455      215.723        0.730        0.129      109.466       18.868        0.030      335.984        6.980      867.199
01/18/2015  07:07:00      -49.350      -58.616        4.466       27.121       24.409       11.238      735.558      595.819      126.291        0.367        0.073       76.624       12.853        0.028      336.667        8.125      867.194
01/18/2015  07:08:00      -36.140      -51.519       10.944       31.831       41.549       14.633     1013.231     1726.348      214.133        0.352        0.148       62.930       15.942        0.064      337.480        9.483      867.180
01/18/2015  07:09:00     -119.996      -48.929       -5.710       34.208       16.045       15.167     1170.207      257.457      230.029        0.924        0.083      129.588       11.709        0.008      336.167        7.287      867.197
01/18/2015  07:10:00      -84.354      -40.499       -5.236       26.755       21.066       13.626      715.826      443.783      185.659        0.506        0.067       93.572        6.955        0.006      335.934        6.899      867.208
01/18/2015  07:11:00     -143.524        0.382       -5.904       71.833       52.396       26.259     5159.996     2745.344      689.559        1.461        0.430      143.524       21.061        0.022      335.979        6.973      867.227
01/18/2015  07:12:00     -142.155      -36.460      -10.152       31.333       36.251       18.060      981.742     1314.165      326.160        1.213        0.131      146.756       15.920        0.012      336.367        7.621      867.239
01/18/2015  07:13:00      -26.004      -46.938        2.266       46.772       18.455       16.739     2187.624      340.587      280.210        0.285        0.140       53.660        5.823        0.012      336.329        7.557      867.253
01/18/2015  07:14:00       44.628      -68.913       -4.497       52.627       82.179       49.858     2769.559     6753.314     2485.784        0.938        0.600       82.101       51.561        0.394      335.977        6.971      867.275
01/18/2015  07:15:00       74.317     -124.719      -18.293       81.713      105.780       62.788     6676.957    11189.408     3942.308        2.161        1.090      145.182       67.683        0.217      335.349        5.921      867.271
01/18/2015  07:16:00       -3.828      -80.563       14.893       43.694       57.863       53.450     1909.147     3348.106     2856.934        0.742        0.406       80.654       41.747        0.268      335.208        5.691      867.274
01/18/2015  07:17:00       26.104     -102.118      -24.518       59.259       74.261       40.204     3511.658     5514.732     1616.382        1.117        0.532      105.402       24.273        0.053      335.250        5.759      867.313
01/18/2015  07:18:00       -8.769      -23.587        0.340       45.265       34.151       32.893     2048.940     1166.277     1081.973        0.246        0.215       25.164       24.302        0.933      335.469        6.123      867.357
01/18/2015  07:19:00       -5.485      -43.161        1.492       20.755       30.313       19.420      430.751      918.881      377.149        0.181        0.086       43.508       19.095        0.193      335.336        5.901      867.365
01/18/2015  07:20:00      -16.633        8.732       10.876       24.465       19.288       13.744      598.527      372.021      188.901        0.082        0.058       18.786       14.537        0.599      335.220        5.709      867.333
01/18/2015  07:21:00        8.662      -45.581        9.161       35.239       46.897       28.114     1241.808     2199.326      790.422        0.323        0.212       46.397       17.650        0.145      335.099        5.507      867.337
01/18/2015  07:22:00       13.056      -53.119       -6.544       23.897       40.834       22.157      571.082     1667.396      490.921        0.288        0.136       54.700       14.170        0.067      335.384        5.981      867.363
01/18/2015  07:23:00      -16.808      -22.527       11.177       29.851       28.837       16.909      891.096      831.595      285.903        0.146        0.100       28.107       11.256        0.160      335.315        5.867      867.366
01/18/2015  07:24:00     -110.202       11.300       -6.658       30.094       25.367       17.703      905.677      643.489      313.405        0.709        0.093      110.779       13.138        0.014      335.270        5.790      867.401
01/18/2015  07:25:00      -66.722      -12.208       -1.296       44.340       20.558       12.923     1966.076      422.619      167.000        0.358        0.128       67.829       19.290        0.081      335.033        5.399      867.408
01/18/2015  07:26:00       -8.679      -63.839        1.358       33.895       33.888       16.410     1148.871     1148.381      269.301        0.336        0.128       64.426       12.826        0.040      335.537        6.238      867.381
01/18/2015  07:27:00        6.475       -7.656        7.418       12.332       22.339       12.068      152.079      499.022      145.629        0.048        0.040       10.027        8.972        0.801      335.429        6.056      867.351
01/18/2015  07:28:00       11.078       12.189       10.048       16.093       11.877        9.908      258.978      141.060       98.160        0.044        0.025       16.471       10.933        0.441      335.359        5.939      867.356
01/18/2015  07:29:00      -22.370        6.621        1.269       16.488       13.793       11.059      271.839      190.255      122.292        0.057        0.029       23.329        7.674        0.108      335.469        6.124      867.355
01/18/2015  07:30:00      -15.255      -18.521        0.257       16.943       18.952        7.328      287.079      359.190       53.696        0.064        0.035       23.994        7.855        0.107      335.330        5.890      867.368
01/18/2015  07:31:00        4.079      -32.759       -0.742       15.701       13.150        8.703      246.527      172.928       75.739        0.079        0.025       33.012        5.589        0.029      335.374        5.961      867.396
01/18/2015  07:32:00       40.588       53.936       33.987       26.568       38.048       35.193      705.851     1447.644     1238.543        0.455        0.170       67.502       32.051        0.225      335.296        5.834      867.385
01/18/2015  07:33:00       10.631       39.299       24.399       21.854       30.414       23.160      477.587      925.026      536.400        0.210        0.097       40.711       21.172        0.270      335.259        5.772      867.376
01/18/2015  07:34:00       12.191        6.362       -6.305       16.845       12.515        7.849      283.760      156.632       61.602        0.037        0.025       13.751        7.502        0.298      335.311        5.859      867.390
01/18/2015  07:35:00       49.843       32.034        6.339       26.756       22.127       13.570      715.901      489.625      184.138        0.247        0.069       59.249       10.537        0.032      335.191        5.660      867.367
01/18/2015  07:36:00       43.559       49.329       28.163       46.857       30.764       32.406     2195.542      946.406     1050.176        0.466        0.210       65.809       30.420        0.214      334.996        5.337      867.343
01/18/2015  07:37:00       67.777       52.435       28.567       31.464       27.048       24.269      990.005      731.604      588.985        0.523        0.116       85.692       16.610        0.038      334.945        5.253      867.349
01/18/2015  07:38:00       55.299       66.626       -3.311       27.405       25.124       21.810      751.008      631.218      475.658        0.468        0.093       86.585       14.249        0.027      334.867        5.123      867.359
01/18/2015  07:39:00       57.543       60.836       -3.010       24.569       23.639       18.630      603.649      558.819      347.084        0.427        0.075       83.739       13.043        0.024      334.894        5.168      867.372
01/18/2015  07:40:00       46.172       48.887        0.199       42.416       30.025       12.670     1799.085      901.518      160.520        0.369        0.143       67.244        8.953        0.018      334.912        5.197      867.380
01/18/2015  07:41:00      -15.518       15.058       -1.974       22.151       16.678        8.264      490.659      278.164       68.287        0.065        0.042       21.623        5.782        0.071      334.990        5.329      867.420
01/18/2015  07:42:00       87.825       44.253       12.275       39.698       25.202       19.601     1575.937      635.141      384.189        0.621        0.130       98.344       15.792        0.026      334.960        5.278      867.436
01/18/2015  07:43:00       24.510       96.970       85.825       29.925       37.183       24.887      895.498     1382.559      619.355        1.013        0.145      100.020       20.059        0.040      334.634        4.735      867.469
01/18/2015  07:44:00       87.220       52.824       34.015       24.039       23.027       23.137      577.897      530.245      535.339        0.660        0.082      101.969       10.665        0.011      334.796        5.005      867.490
01/18/2015  07:45:00       17.121       62.554       -6.752       34.247       29.173       17.133     1172.843      851.088      293.552        0.328        0.116       64.854       20.917        0.104      334.937        5.239      867.510
01/18/2015  07:46:00       -9.675      104.168      -16.492       13.025       17.476        8.014      169.653      305.401       64.229        0.588        0.027      104.617        6.378        0.004      335.236        5.734      867.515
01/18/2015  07:47:00       15.579       82.690       -5.657       21.459       23.450       10.106      460.481      549.909      102.130        0.411        0.056       84.145       10.687        0.016      335.371        5.959      867.490
01/18/2015  07:48:00       -8.003       29.380       -5.361       17.202       19.370        9.560      295.902      375.197       91.394        0.086        0.038       30.451        9.500        0.097      335.407        6.018      867.462
01/18/2015  07:49:00        0.128       18.121        1.726       11.783       21.082        6.212      138.842      444.463       38.586        0.048        0.031       18.121        8.862        0.239      335.407        6.020      867.446
01/18/2015  07:50:00       14.849        1.473        5.644       13.900        8.091        6.676      193.197       65.468       44.564        0.028        0.015       14.922        5.863        0.154      335.337        5.904      867.463
01/18/2015  07:51:00      -43.551       -5.345       -4.908        7.987        7.506        4.170       63.791       56.343       17.386        0.104        0.007       43.877        2.963        0.005      335.266        5.784      867.461
01/18/2015  07:52:00      -31.088        2.728       -0.165       10.599       21.852        5.982      112.330      477.524       35.783        0.080        0.031       31.208        8.691        0.078      335.249        5.758      867.449
01/18/2015  07:53:00      -14.975       45.156       -3.868       13.218       11.101       10.254      174.728      123.241      105.138        0.134        0.020       47.574        9.115        0.037      335.525        6.217      867.428
01/18/2015  07:54:00       17.029       64.525       -1.048       25.466       19.807       16.111      648.532      392.333      259.563        0.288        0.065       66.735        9.869        0.022      335.575        6.301      867.401
01/18/2015  07:55:00       52.428       32.606        7.506       25.112       18.509       11.866      630.590      342.574      140.790        0.249        0.056       61.741        7.628        0.015      335.670        6.460      867.376
01/18/2015  07:56:00       23.524      -17.638        2.195       18.053       16.061        9.844      325.903      257.947       96.911        0.077        0.034       29.402       10.781        0.134      335.639        6.408      867.383
01/18/2015  07:57:00       -7.534        6.000        0.554       23.890        9.669        7.690      570.732       93.497       59.141        0.041        0.036        9.631        9.717        1.018      335.581        6.312      867.399
01/18/2015  07:58:00      -79.267       17.791      -12.912       17.352       17.770        7.971      301.097      315.756       63.533        0.372        0.034       81.239        7.022        0.007      335.191        5.660      867.428
01/18/2015  07:59:00      -58.879       40.515      -13.191       12.731       16.521        7.583      162.078      272.937       57.504        0.289        0.025       71.472        4.676        0.004      335.506        6.185      867.418
01/18/2015  08:00:00       15.443       78.756       -9.755       20.783       16.084       11.230      431.919      258.708      126.117        0.368        0.041       80.255        8.529        0.011      335.668        6.454      867.403
01/18/2015  08:01:00      -69.454       45.493      -13.861       31.767       36.498       10.429     1009.146     1332.137      108.760        0.477        0.123       83.027        9.555        0.013      335.642        6.411      867.411
01/18/2015  08:02:00     -105.546       -5.900      -18.604       14.326       21.785       11.198      205.240      474.592      125.396        0.616        0.040      105.710        6.637        0.004      335.178        5.637      867.446
01/18/2015  08:03:00     -135.449      -36.203      -11.398       24.784       23.287       17.001      614.246      542.276      289.037        1.062        0.072      140.204       13.538        0.009      335.068        5.458      867.481
01/18/2015  08:04:00      -86.516       -8.919       -4.353       45.851       33.278       24.686     2102.280     1107.429      609.409        0.570        0.191       86.974       24.529        0.080      335.065        5.453      867.507
01/18/2015  08:05:00      -84.370      -17.344        1.430       41.775       24.285       16.527     1745.113      589.752      273.125        0.501        0.130       86.134       18.557        0.046      335.157        5.605      867.514
01/18/2015  08:06:00     -128.759      -24.645       -9.542       38.671       23.702       18.051     1495.442      561.779      325.850        0.983        0.119      131.097       18.263        0.019      335.161        5.611      867.510
01/18/2015  08:07:00      -86.611      -17.899        2.876       33.433       18.517       22.086     1117.765      342.884      487.780        0.489        0.097       88.441       22.783        0.066      335.207        5.687      867.502
01/18/2015  08:08:00     -141.758        0.320      -13.004       46.160       23.604       21.349     2130.707      557.168      455.760        1.170        0.157      141.758       26.459        0.035      335.248        5.755      867.490
01/18/2015  08:09:00     -142.171        1.905      -18.994       23.363       30.530       18.430      545.812      932.059      339.669        1.120        0.091      142.184       12.547        0.008      335.309        5.856      867.473
01/18/2015  08:10:00     -113.292        3.037       -9.871       24.895       33.366       17.797      619.782     1113.267      316.724        0.750        0.102      113.332       13.695        0.015      335.423        6.046      867.415
01/18/2015  08:11:00     -115.854        7.389      -12.465       20.658       21.671       15.100      426.754      469.642      228.013        0.738        0.056      116.089        8.975        0.006      335.377        5.970      867.367
01/18/2015  08:12:00     -120.716      -28.386       -7.669       32.845       24.208       14.918     1078.780      586.044      222.555        0.866        0.094      124.009       14.279        0.013      335.361        5.943      867.350
01/18/2015  08:13:00     -101.519      -19.123       -7.605       42.644       34.011       20.266     1818.552     1156.760      410.714        0.706        0.169      103.305       20.215        0.038      335.335        5.899      867.365
01/18/2015  08:14:00     -115.383      -17.608        3.914       50.447       37.010       24.577     2544.863     1369.744      604.009        0.908        0.226      116.719       26.914        0.053      335.439        6.074      867.392
01/18/2015  08:15:00     -144.681        1.478      -13.801       27.062       23.679       16.848      732.331      560.693      283.849        1.135        0.079      144.689       15.142        0.011      335.489        6.157      867.404
01/18/2015  08:16:00      -98.485      -47.723        0.819       30.675       26.745       19.351      940.933      715.309      374.465        0.700        0.102      109.439       15.702        0.021      335.698        6.506      867.410
01/18/2015  08:17:00     -105.162      -46.744        0.513       31.878       29.919       17.934     1016.224      895.143      321.617        0.774        0.112      115.083       13.356        0.013      336.064        7.115      867.398
01/18/2015  08:18:00     -106.807      -45.678        2.350       36.787       24.075       17.207     1353.298      579.606      296.093        0.786        0.111      116.165       17.690        0.023      336.085        7.150      867.386
01/18/2015  08:19:00     -126.199      -26.994       -3.434       45.001       30.998       18.627     2025.112      960.869      346.952        1.000        0.167      129.053       21.021        0.027      335.935        6.901      867.389
01/18/2015  08:20:00     -107.497      -35.473        4.903       31.621       28.910       18.082      999.916      835.794      326.955        0.750        0.108      113.198       13.290        0.014      335.942        6.912      867.383
01/18/2015  08:21:00      -91.339      -75.470        3.017       40.348       46.250       22.867     1627.988     2139.024      522.886        0.917        0.214      118.484       21.163        0.032      336.262        7.446      867.386
01/18/2015  08:22:00     -140.220      -82.422       -6.004       43.661       45.343       25.080     1906.252     2055.956      628.997        1.554        0.230      162.650       27.542        0.029      336.483        7.816      867.400
01/18/2015  08:23:00     -127.686      -72.541       -6.060       52.582       36.204       27.014     2764.824     1310.751      729.758        1.320        0.240      146.854       26.363        0.032      336.668        8.125      867.376
01/18/2015  08:24:00     -164.610     -105.844       -1.512       83.905       57.187       35.201     7039.972     3270.392     1239.108        2.492        0.577      195.702       35.239        0.032      336.988        8.656      867.384
01/18/2015  08:25:00     -112.940     -102.662        6.897       73.287       63.759       34.800     5370.986     4065.188     1211.051        1.699        0.532      152.627       27.094        0.032      337.221        9.048      867.419
01/18/2015  08:26:00     -200.222     -152.342      -10.691       64.235       54.532       32.984     4126.158     2973.748     1087.937        3.580        0.409      251.589       29.924        0.014      337.783        9.988      867.437
01/18/2015  08:27:00     -188.028     -142.575       -5.012       93.157       66.777       44.524     8678.282     4459.208     1982.399        3.541        0.756      235.971       47.653        0.041      338.226       10.730      867.448
01/18/2015  08:28:00     -209.659     -121.533        4.980      113.382       75.940       49.963    12855.415     5766.957     2496.293        3.993        1.056      242.337       49.095        0.041      338.279       10.821      867.447
01/18/2015  08:29:00     -122.580      -88.956       21.891      109.331       83.541       47.869    11953.257     6979.074     2291.431        2.232        1.061      151.456       48.784        0.104      338.337       10.918      867.436
01/18/2015  08:30:00      -23.115     -105.241       23.565       36.206       54.166       34.462     1310.871     2933.943     1187.613        0.880        0.272      107.749       29.986        0.077      338.471       11.145      867.435
01/18/2015  08:31:00      -38.135      -37.991        2.876       35.986       33.536       22.894     1295.014     1124.668      524.130        0.292        0.147       53.829       22.316        0.172      338.386       11.002      867.452
01/18/2015  08:32:00      -24.347      -73.887       14.171       34.049       32.033       21.796     1159.324     1026.082      475.063        0.446        0.133       77.795       16.772        0.046      338.402       11.029      867.479
01/18/2015  08:33:00        0.582      -22.616       14.319       61.704       40.265       25.611     3807.425     1621.281      655.947        0.340        0.304       22.623       18.437        0.664      337.893       10.174      867.477
01/18/2015  08:34:00       29.236       11.661        1.691       43.264       37.418       24.062     1871.792     1400.082      578.980        0.242        0.193       31.476       25.731        0.668      337.300        9.181      867.468
01/18/2015  08:35:00       97.098       41.129        1.965       29.848       34.510       28.322      890.892     1190.955      802.127        0.700        0.144      105.449       13.411        0.016      336.329        7.556      867.453
01/18/2015  08:36:00       54.041       72.734      -15.562       21.624       19.988       19.749      467.613      399.524      390.015        0.485        0.063       90.613        5.945        0.004      336.162        7.279      867.464
01/18/2015  08:37:00      102.686       75.878       16.615       28.225       18.240       28.458      796.655      332.713      809.837        0.926        0.097      127.680       17.001        0.018      336.123        7.214      867.445
01/18/2015  08:38:00       73.327       92.777       53.997       44.151       35.632       40.705     1949.289     1269.643     1656.915        1.089        0.244      118.256       36.806        0.097      336.188        7.322      867.454
01/18/2015  08:39:00      146.754       91.816       32.869       43.406       38.991       39.637     1884.041     1520.334     1571.104        1.801        0.249      173.110       32.201        0.035      335.933        6.897      867.451
01/18/2015  08:40:00       65.537       98.127       74.704       42.597       36.947       34.699     1814.463     1365.084     1204.039        1.194        0.219      118.000       18.674        0.025      336.032        7.062      867.457
01/18/2015  08:41:00      119.727       79.843       42.637       35.798       29.733       31.425     1281.479      884.031      987.541        1.284        0.158      143.908       23.227        0.026      335.983        6.980      867.454
01/18/2015  08:42:00       52.045       34.747        2.681       40.130       28.405       19.155     1610.404      806.855      366.919        0.335        0.139       62.579       11.724        0.035      335.985        6.982      867.482
01/18/2015  08:43:00       74.456       51.524       -3.935       27.362       26.976       19.938      748.680      727.723      397.525        0.504        0.094       90.545       15.102        0.028      335.935        6.900      867.516
01/18/2015  08:44:00       87.748       46.061        9.848       18.038       16.477       15.711      325.378      271.484      246.822        0.538        0.042       99.103        8.975        0.008      335.912        6.862      867.532
01/18/2015  08:45:00      118.792       77.763       -1.142       26.081       23.533       14.096      680.234      553.795      198.711        1.080        0.072      141.981        7.204        0.003      335.870        6.790      867.532
01/18/2015  08:46:00      102.636       89.936       44.598       46.140       32.931       38.089     2128.917     1084.436     1450.798        1.264        0.233      136.465       16.888        0.015      335.913        6.862      867.533
01/18/2015  08:47:00      167.420       91.570       40.617       43.905       36.899       41.116     1927.683     1361.561     1690.523        2.152        0.249      190.826       26.945        0.020      335.799        6.672      867.530
01/18/2015  08:48:00       69.916       41.982       61.850       50.296       40.226       36.526     2529.649     1618.092     1334.148        0.798        0.274       81.552       29.503        0.131      335.915        6.866      867.541
01/18/2015  08:49:00      140.013       75.626       51.847       70.301       42.782       48.815     4942.298     1830.270     2382.891        1.858        0.458      159.132       40.670        0.065      335.903        6.845      867.536
01/18/2015  08:50:00      128.857       70.649       57.890       70.009       59.128       52.482     4901.275     3496.087     2754.345        1.805        0.558      146.953       46.514        0.100      335.887        6.818      867.530
01/18/2015  08:51:00       53.834      132.197      115.238       50.122       51.151       43.957     2512.183     2616.434     1932.247        2.036        0.353      142.738       24.477        0.029      335.935        6.899      867.540
01/18/2015  08:52:00      146.437      117.107       82.876       65.464       56.777       55.173     4285.562     3223.635     3044.085        2.629        0.528      187.505       39.431        0.044      335.840        6.738      867.529
01/18/2015  08:53:00       73.375       59.842       60.597       60.866       55.900       42.157     3704.724     3124.801     1777.171        1.062        0.430       94.683       37.011        0.153      335.878        6.804      867.525
01/18/2015  08:54:00      185.716      118.214       50.634       43.399       37.417       28.533     1883.497     1400.018      814.106        2.756        0.205      220.147       17.458        0.006      335.804        6.678      867.504
01/18/2015  08:55:00      129.025       77.346       22.314       31.533       30.616       30.128      994.321      937.311      907.695        1.298        0.142      150.432       21.836        0.021      335.788        6.655      867.513
01/18/2015  08:56:00      109.696       88.538        8.174       44.662       46.609       40.923     1994.732     2172.409     1674.683        1.289        0.292      140.969       31.851        0.051      335.850        6.757      867.520
01/18/2015  08:57:00       84.329       62.942        6.966       59.325       45.873       40.866     3519.491     2104.325     1670.055        0.921        0.365      105.229       23.953        0.052      335.896        6.834      867.516
01/18/2015  08:58:00      129.110       84.166       26.973       63.711       51.943       32.541     4059.129     2698.054     1058.934        1.615        0.391      154.121       22.472        0.021      335.885        6.815      867.549
01/18/2015  08:59:00      107.879       67.561        4.999       52.957       34.490       27.592     2804.474     1189.546      761.322        1.049        0.238      127.289       14.352        0.013      335.894        6.833      867.579
01/18/2015  09:00:00      116.433       82.743       16.493       34.859       35.675       28.496     1215.129     1272.728      811.994        1.199        0.165      142.839       13.166        0.008      335.986        6.985      867.578
01/18/2015  09:01:00      126.297       87.304       14.998       37.888       35.049       29.168     1435.479     1228.414      850.759        1.366        0.176      153.535       16.368        0.011      336.062        7.110      867.581
01/18/2015  09:02:00      126.481       79.229        7.485       40.259       43.192       33.046     1620.783     1865.511     1092.038        1.345        0.229      149.247       27.518        0.034      336.116        7.200      867.587
01/18/2015  09:03:00      142.562       89.302       25.852       39.056       38.383       38.484     1525.391     1473.225     1481.033        1.672        0.224      168.223       25.768        0.023      336.151        7.258      867.601
01/18/2015  09:04:00      141.995      114.158       36.309       60.069       38.044       54.777     3608.340     1447.382     3000.473        2.128        0.403      182.194       38.468        0.045      336.211        7.358      867.578
01/18/2015  09:05:00      117.639       69.214       38.484       87.938       70.224       60.887     7733.120     4931.466     3707.186        1.824        0.819      136.490       52.418        0.147      336.243        7.413      867.565
01/18/2015  09:06:00      106.013       89.588       57.107       76.859       35.452       35.340     5907.324     1256.847     1248.940        1.547        0.421      138.797       38.246        0.076      336.250        7.425      867.572
01/18/2015  09:07:00       15.929       55.362       71.956       37.825       37.784       18.790     1430.744     1427.647      353.076        0.585        0.161       57.608       11.510        0.040      336.588        7.992      867.590
01/18/2015  09:08:00       33.218       77.677       83.860       51.655       44.398       38.474     2668.284     1971.154     1480.259        1.014        0.306       84.481       32.619        0.149      336.625        8.054      867.571
01/18/2015  09:09:00       69.810       66.706       20.440       47.523       29.100       43.875     2258.396      846.828     1925.028        0.738        0.252       96.556       39.355        0.166      336.449        7.758      867.577
01/18/2015  09:10:00      115.075       81.549        9.200       32.856       30.398       34.653     1079.492      924.053     1200.831        1.159        0.160      141.041       20.476        0.021      336.328        7.556      867.588
01/18/2015  09:11:00      117.282       59.765        6.217       31.913       37.056       26.426     1018.439     1373.166      698.338        1.023        0.154      131.631       19.899        0.023      336.390        7.659      867.591
01/18/2015  09:12:00       98.315       71.961       14.236       34.933       17.047       26.049     1220.292      290.600      678.565        0.862        0.109      121.837       21.856        0.032      336.533        7.898      867.612
01/18/2015  09:13:00       33.414       34.557       38.107       26.222       36.951       29.796      687.581     1365.398      887.790        0.335        0.147       48.069       23.467        0.238      336.926        8.555      867.631
01/18/2015  09:14:00       45.723       48.526       60.685       39.850       28.922       21.741     1588.002      836.482      472.684        0.551        0.145       66.674       13.423        0.041      336.970        8.629      867.638
01/18/2015  09:15:00       67.581       39.496       32.053       44.109       34.576       37.501     1945.610     1195.468     1406.336        0.585        0.227       78.276       26.211        0.112      336.924        8.552      867.624
01/18/2015  09:16:00      125.043       59.905       23.087       51.556       37.397       33.117     2658.049     1398.545     1096.756        1.245        0.258      138.652       29.778        0.046      336.947        8.589      867.618
01/18/2015  09:17:00       74.708       58.748       41.243       59.510       39.859       36.183     3541.467     1588.776     1309.203        0.859        0.322       95.040       35.814        0.142      337.150        8.929      867.634
01/18/2015  09:18:00       35.038       58.639       77.614       47.358       45.656       33.293     2242.761     2084.458     1108.412        0.806        0.272       68.310       34.705        0.258      337.293        9.170      867.670
01/18/2015  09:19:00        6.682        4.653       59.004       30.385       37.988       19.992      923.224     1443.116      399.677        0.316        0.138        8.143       15.518        3.632      337.529        9.564      867.707
01/18/2015  09:20:00       79.312      -20.786       25.074       51.553       54.843       38.015     2657.701     3007.781     1445.117        0.723        0.356       81.991       43.140        0.277      337.206        9.023      867.718
01/18/2015  09:21:00        6.602        1.860       42.121       22.969       57.911       26.558      527.582     3353.670      705.313        0.320        0.229        6.859       22.710       10.961      337.378        9.311      867.725
01/18/2015  09:22:00       14.345        9.694       22.428       18.611       21.295       15.112      346.372      453.463      228.368        0.092        0.051       17.313        5.052        0.085      337.505        9.524      867.708
01/18/2015  09:23:00       25.723       63.791       58.196       33.068       35.429       36.638     1093.503     1255.240     1342.320        0.590        0.185       68.782       31.518        0.210      337.426        9.392      867.689
01/18/2015  09:24:00      -15.060       85.577      114.180       17.921       43.896       29.455      321.161     1926.838      867.605        1.185        0.156       86.892       28.683        0.109      337.387        9.327      867.662
01/18/2015  09:25:00      137.750      114.497       62.658       55.248       35.506       46.214     3052.363     1260.690     2135.692        2.123        0.322      179.122       22.618        0.016      337.129        8.893      867.643
01/18/2015  09:26:00      113.289       88.414       15.426       45.334       36.253       41.789     2055.153     1314.269     1746.344        1.300        0.256      143.706       23.437        0.027      337.300        9.182      867.639
01/18/2015  09:27:00       59.734       99.490       77.272       59.443       45.688       52.613     3533.420     2087.431     2768.122        1.391        0.419      116.045       46.689        0.162      337.383        9.320      867.635
01/18/2015  09:28:00       57.925       80.645       56.739       75.715       46.954       48.905     5732.807     2204.679     2391.700        1.170        0.516       99.292       49.813        0.252      337.245        9.089      867.639
01/18/2015  09:29:00       37.110       87.051      108.563       68.313       50.290       36.223     4666.630     2529.133     1312.120        1.462        0.425       94.631       33.302        0.124      337.292        9.167      867.655
01/18/2015  09:30:00       48.175       44.703       94.223       55.867       80.770       47.244     3121.086     6523.817     2231.990        1.254        0.594       65.721       52.161        0.630      337.176        8.972      867.687
01/18/2015  09:31:00       35.158       -4.522       38.803       48.029       42.625       40.563     2306.751     1816.885     1645.341        0.426        0.288       35.448       31.253        0.777      337.551        9.603      867.721
01/18/2015  09:32:00       -6.604       71.615       85.015       16.206       40.948       28.239      262.629     1676.728      797.459        0.757        0.137       71.919       28.515        0.157      337.655        9.776      867.734
01/18/2015  09:33:00       34.000       42.608       47.572       32.271       36.825       37.108     1041.388     1356.107     1376.979        0.450        0.189       54.511       32.683        0.359      337.699        9.850      867.738
01/18/2015  09:34:00       44.420       76.224       77.293       59.045       37.698       22.883     3486.274     1421.172      523.624        0.959        0.272       88.223       19.332        0.048      337.771        9.969      867.718
01/18/2015  09:35:00      110.556      105.603       64.915       56.340       40.672       45.948     3174.229     1654.197     2111.213        1.726        0.347      152.887       35.420        0.054      337.605        9.692      867.709
01/18/2015  09:36:00       18.982       66.028       75.176       41.363       53.886       30.032     1710.865     2903.681      901.920        0.794        0.276       68.702       23.360        0.116      337.967       10.300      867.709
01/18/2015  09:37:00       41.315       72.586       63.375       58.674       28.001       32.808     3442.619      784.034     1076.334        0.815        0.265       83.521       32.581        0.152      337.896       10.181      867.725
01/18/2015  09:38:00       56.189       66.901       14.077       45.620       30.555       34.778     2081.146      933.589     1209.507        0.603        0.211       87.367       22.398        0.066      337.849       10.101      867.739
01/18/2015  09:39:00       16.345        4.873        7.595       37.670       48.627       23.038     1419.062     2364.544      530.754        0.233        0.216       17.056        8.678        0.259      337.960       10.287      867.754
01/18/2015  09:40:00       18.265      -64.449       -0.409       28.787       22.759       23.734      828.713      517.983      563.323        0.320        0.096       66.988       22.034        0.108      337.913       10.208      867.773
01/18/2015  09:41:00       48.109      -13.634       17.133       27.867       56.215       35.017      776.591     3160.118     1226.216        0.398        0.258       50.004       36.890        0.544      338.144       10.595      867.775
01/18/2015  09:42:00       32.379       62.753       74.222       43.417       63.703       37.861     1885.057     4058.022     1433.423        0.893        0.369       70.614       34.404        0.237      338.286       10.833      867.768
01/18/2015  09:43:00      123.797       98.420       50.234       59.405       35.495       49.084     3528.987     1259.914     2409.204        1.737        0.360      158.153       37.990        0.058      338.063       10.460      867.763
01/18/2015  09:44:00       82.673      109.772       75.228       40.650       36.350       33.497     1652.395     1321.294     1122.081        1.432        0.205      137.422       26.768        0.038      338.180       10.656      867.768
01/18/2015  09:45:00       37.490       56.027       24.893       58.779       49.663       28.363     3454.965     2466.413      804.446        0.594        0.336       67.413       28.229        0.175      338.395       11.018      867.802
01/18/2015  09:46:00        5.414       44.811       55.661       27.827       32.152       26.828      774.356     1033.737      719.745        0.383        0.126       45.136       16.249        0.130      338.793       11.685      867.826
01/18/2015  09:47:00      125.582       52.152       11.934       46.805       50.191       38.169     2190.690     2519.182     1456.890        1.240        0.308      135.980       24.040        0.031      338.437       11.087      867.819
01/18/2015  09:48:00       21.757       66.520       64.938       47.523       48.481       31.745     2258.455     2350.411     1007.730        0.736        0.281       69.988       28.173        0.162      338.739       11.595      867.820
01/18/2015  09:49:00       19.587       69.243       75.286       42.941       41.942       39.439     1843.915     1759.156     1555.403        0.800        0.258       71.960       34.880        0.235      338.723       11.568      867.836
01/18/2015  09:50:00        6.502       91.142       99.874       28.223       36.368       27.918      796.530     1322.604      779.433        1.061        0.145       91.374       22.872        0.063      338.742       11.600      867.843
01/18/2015  09:51:00       98.421       56.408       39.021       52.445       43.475       43.534     2750.459     1890.050     1895.173        1.046        0.327      113.439       30.078        0.070      338.621       11.397      867.832
01/18/2015  09:52:00      187.156      121.495       21.881       53.378       35.749       45.416     2849.203     1278.000     2062.599        2.823        0.309      223.133       25.714        0.013      338.539       11.255      867.830
01/18/2015  09:53:00      145.227       89.884       26.600       42.491       50.901       42.155     1805.478     2590.899     1777.024        1.802        0.309      170.793       30.109        0.031      338.730       11.579      867.840
01/18/2015  09:54:00       76.922       57.569       13.706       36.879       43.717       33.477     1360.052     1911.144     1120.695        0.690        0.220       96.079       19.923        0.043      338.958       11.965      867.852
01/18/2015  09:55:00       99.767       48.013       15.411       61.858       47.565       39.721     3826.408     2262.403     1577.771        1.008        0.383      110.719       27.147        0.060      338.805       11.705      867.889
01/18/2015  09:56:00       13.752       39.069       42.360       27.219       31.931       35.052      740.872     1019.587     1228.670        0.325        0.149       41.419       21.930        0.280      339.082       12.173      867.911
01/18/2015  09:57:00       32.253       37.965       61.892       48.426       34.588       30.988     2345.113     1196.311      960.272        0.541        0.225       49.815       31.464        0.399      338.957       11.962      867.929
01/18/2015  09:58:00       62.020       22.266       27.169       52.299       36.440       29.182     2735.165     1327.881      851.603        0.500        0.246       65.896       29.296        0.198      338.968       11.980      867.935
01/18/2015  09:59:00       32.667       86.348       94.420       34.803       45.647       30.383     1211.235     2083.664      923.099        1.083        0.211       92.321       27.842        0.091      339.223       12.407      867.941
01/18/2015  10:00:00       63.044      116.500      119.606       61.263       53.217       37.298     3753.126     2832.055     1391.177        1.991        0.399      132.464       33.699        0.065      339.088       12.182      867.929
01/18/2015  10:01:00       73.904      108.778       88.811       79.685       51.726       45.463     6349.716     2675.532     2066.905        1.814        0.555      131.508       45.195        0.118      339.209       12.384      867.909
01/18/2015  10:02:00       33.446       80.839      100.386       68.617       68.094       53.598     4708.320     4636.843     2872.775        1.497        0.611       87.484       59.344        0.460      339.072       12.156      867.903
01/18/2015  10:03:00      153.642       99.364       49.347       70.976       54.584       49.183     5037.530     2979.448     2418.991        2.317        0.522      182.973       25.719        0.020      339.069       12.147      867.922
01/18/2015  10:04:00      110.874       64.179       19.720       50.989       50.923       51.028     2599.830     2593.163     2603.889        1.230        0.390      128.110       25.062        0.038      339.167       12.314      867.956
01/18/2015  10:05:00       53.667       58.210       51.900       62.699       39.981       36.694     3931.117     1598.462     1346.479        0.792        0.344       79.174       39.346        0.247      339.455       12.799      867.977
01/18/2015  10:06:00       81.041       74.240       69.665       83.898       73.091       60.541     7038.864     5342.289     3665.191        1.649        0.802      109.905       49.404        0.202      339.277       12.499      867.973
01/18/2015  10:07:00      108.797       97.556       73.438       70.466       53.474       51.316     4965.419     2859.519     2633.342        1.860        0.523      146.130       51.168        0.123      339.203       12.374      867.963
01/18/2015  10:08:00       85.584       98.866       88.194       65.520       60.700       40.137     4292.871     3684.510     1610.995        1.723        0.479      130.764       31.824        0.059      339.334       12.596      867.940
01/18/2015  10:09:00      121.600       19.053        6.061       69.912       58.833       45.347     4887.726     3461.306     2056.369        1.279        0.520      123.084       37.982        0.095      339.442       12.778      867.927
01/18/2015  10:10:00      115.719       94.924       56.243       80.835       68.543       48.344     6534.372     4698.200     2337.144        1.956        0.678      149.671       29.768        0.040      339.427       12.752      867.948
01/18/2015  10:11:00       71.801       45.037       58.377       71.678       51.161       43.652     5137.683     2617.467     1905.490        1.012        0.483       84.757       44.943        0.281      339.655       13.136      867.950
01/18/2015  10:12:00       43.622       62.500       65.181       49.467       48.176       44.165     2446.979     2320.898     1950.544        0.839        0.336       76.218       27.939        0.134      339.714       13.236      867.958
01/18/2015  10:13:00       18.194       98.465      114.424       51.462       54.747       35.734     2648.347     2997.221     1276.940        1.502        0.346      100.132       34.299        0.117      339.651       13.130      867.970
01/18/2015  10:14:00       46.425       75.954       85.835       75.511       59.292       51.650     5701.945     3515.518     2667.748        1.359        0.594       89.019       43.570        0.240      339.678       13.176      867.971
01/18/2015  10:15:00      114.745      124.628       97.605       79.911       51.413       49.840     6385.732     2643.307     2484.015        2.487        0.576      169.407       38.657        0.052      339.658       13.140      867.962
01/18/2015  10:16:00       36.743       80.221      109.180       74.328       71.817       61.594     5524.688     5157.641     3793.761        1.709        0.724       88.235       63.755        0.522      339.818       13.412      867.976
01/18/2015  10:17:00        9.122       56.696       75.258       39.311       40.967       28.945     1545.332     1678.281      837.829        0.651        0.203       57.426       18.840        0.108      340.015       13.744      868.001
01/18/2015  10:18:00       64.976       80.919       86.843       89.150       60.745       48.486     7947.687     3689.895     2350.911        1.615        0.699      103.777       45.673        0.194      339.875       13.507      868.030
01/18/2015  10:19:00       85.113       63.497        5.601       65.828       43.806       39.725     4333.280     1918.979     1578.114        0.957        0.392      106.189       35.074        0.109      339.783       13.354      868.028
01/18/2015  10:20:00       60.863       65.443       66.736       72.239       62.345       55.486     5218.484     3886.855     3078.653        1.231        0.609       89.371       46.586        0.272      340.052       13.806      868.027
01/18/2015  10:21:00       52.159       25.671       40.624       52.161       54.133       43.534     2720.758     2930.424     1895.220        0.629        0.377       58.134       41.647        0.513      340.097       13.883      868.050
01/18/2015  10:22:00       17.510       23.095       42.502       27.572       30.508       26.457      760.220      930.756      699.969        0.252        0.120       28.982       16.691        0.332      340.368       14.340      868.078
01/18/2015  10:23:00       33.983       76.097       77.896       60.275       47.286       47.533     3633.089     2235.942     2259.425        1.057        0.406       83.340       46.084        0.306      340.109       13.903      868.099
01/18/2015  10:24:00       10.876       25.306       33.083       46.186       38.624       41.294     2133.115     1491.816     1705.216        0.359        0.267       27.544       35.597        1.670      340.317       14.254      868.105
01/18/2015  10:25:00      145.909       83.953       56.740       93.509       48.801       51.074     8743.917     2381.543     2608.545        2.264        0.687      168.337       41.327        0.060      339.980       13.682      868.101
01/18/2015  10:26:00       63.796       75.832       85.097       81.814       59.599       57.358     6693.490     3552.047     3289.955        1.530        0.677       99.098       44.914        0.205      340.138       13.952      868.072
01/18/2015  10:27:00      133.251       70.243       14.030       60.359       46.082       36.040     3643.263     2123.522     1298.871        1.498        0.353      150.632        9.040        0.004      339.955       13.642      868.062
01/18/2015  10:28:00      127.997       92.468       26.679       61.193       54.774       49.673     3744.542     3000.165     2467.440        1.743        0.461      157.903       27.990        0.031      340.014       13.741      868.046
01/18/2015  10:29:00      194.873      158.895       12.536       70.550       60.288       52.541     4977.372     3634.623     2760.560        3.737        0.569      251.442       40.148        0.025      339.873       13.501      868.033
01/18/2015  10:30:00      154.636      108.120       33.874       73.347       50.964       48.879     5379.778     2597.376     2389.153        2.356        0.518      188.685       24.581        0.017      340.043       13.790      868.033
01/18/2015  10:31:00       35.664       57.464       80.674       59.645       49.095       24.453     3557.481     2410.297      597.962        0.882        0.328       67.631       20.584        0.093      340.540       14.632      868.038
01/18/2015  10:32:00       45.632      -13.337       35.049       70.539       53.373       45.213     4975.817     2848.638     2044.203        0.668        0.493       47.541       43.521        0.838      340.426       14.439      868.020
01/18/2015  10:33:00       74.689      149.437      135.967       69.424       75.683       60.316     4819.734     5727.992     3638.008        3.029        0.709      167.063       46.521        0.078      340.165       13.995      867.971
01/18/2015  10:34:00       48.828      118.562      112.674       67.082       55.712       62.580     4500.017     3103.839     3916.282        2.033        0.576      128.223       60.044        0.219      340.208       14.067      867.952
01/18/2015  10:35:00       25.327        1.760       39.657       52.425       77.085       42.038     2748.431     5942.057     1767.213        0.634        0.523       25.388       33.282        1.718      340.427       14.439      867.945
01/18/2015  10:36:00       41.652       93.762      119.501       69.406       58.726       43.299     4817.241     3448.685     1874.816        1.747        0.507      102.597       32.947        0.103      340.423       14.432      867.945
01/18/2015  10:37:00       57.369        0.226       80.788       73.574      115.932       77.597     5413.083    13440.181     6021.324        1.734        1.244       57.370       80.835        1.985      340.395       14.384      867.955
01/18/2015  10:38:00       99.381       20.973       79.712       92.276       93.341       77.498     8514.817     8712.516     6005.925        1.995        1.162      101.570       73.999        0.531      340.414       14.416      867.940
01/18/2015  10:39:00       78.980      108.724      133.278       79.366       71.956       57.517     6298.981     5177.634     3308.188        2.530        0.739      134.382       44.985        0.112      340.441       14.462      867.906
01/18/2015  10:40:00       87.757      -40.381       74.642      101.997      112.323       68.230    10403.479    12616.480     4655.315        2.128        1.384       96.602       78.923        0.667      340.504       14.571      867.913
01/18/2015  10:41:00       58.427      -53.742       41.588       78.500      114.754       63.971     6162.280    13168.466     4092.318        1.572        1.171       79.385       46.801        0.348      340.624       14.772      867.920
01/18/2015  10:42:00       30.872       99.925      136.196       69.138       75.258       52.390     4780.101     5663.834     2744.743        2.134        0.659      104.585       49.665        0.226      340.561       14.664      867.942
01/18/2015  10:43:00      109.473       74.461      119.225       69.133      111.154       57.009     4779.377    12355.234     3250.056        2.606        1.019      132.396       59.212        0.200      340.359       14.324      867.934
01/18/2015  10:44:00      122.081       98.441       69.479       67.502       72.933       68.740     4556.579     5319.220     4725.175        2.201        0.730      156.826       49.714        0.100      340.221       14.090      867.891
01/18/2015  10:45:00      175.308      113.327       61.631       73.445       74.872       65.473     5394.201     5605.749     4286.733        3.133        0.764      208.748       49.902        0.057      340.253       14.143      867.847
01/18/2015  10:46:00       60.928       84.486       69.385       67.763       50.322       49.932     4591.800     2532.301     2493.182        1.264        0.481      104.164       49.177        0.223      340.618       14.762      867.858
01/18/2015  10:47:00       98.102       -5.806       69.464       91.344      118.214       70.553     8343.801    13974.541     4977.708        2.088        1.365       98.274       77.135        0.616      340.461       14.496      867.850
01/18/2015  10:48:00       99.750       51.173       80.333       80.224       92.429       79.127     6435.914     8543.117     6261.111        2.013        1.062      112.111       70.215        0.392      340.607       14.744      867.806
01/18/2015  10:49:00      140.171       43.683       72.880      123.484      107.317       72.953    15248.381    11516.970     5322.093        2.947        1.604      146.820       78.275        0.284      340.532       14.615      867.829
01/18/2015  10:50:00      145.861       77.942      128.805      130.271      119.073       84.359    16970.502    14178.463     7116.435        4.110        1.913      165.379       96.785        0.342      340.537       14.622      867.830
01/18/2015  10:51:00      112.151       53.104       89.964       78.685       68.267       53.303     6191.331     4660.329     2841.194        1.859        0.685      124.088       53.259        0.184      340.673       14.855      867.841
01/18/2015  10:52:00      101.618       94.918       84.159       81.678       65.968       59.262     6671.303     4351.800     3511.986        2.047        0.727      139.052       46.190        0.110      340.823       15.107      867.834
01/18/2015  10:53:00       94.712       54.500       74.863      111.337       92.340       54.607    12395.938     8526.750     2981.928        2.072        1.195      109.273       43.590        0.159      341.037       15.468      867.817
01/18/2015  10:54:00      112.399      132.990      131.372      117.275       86.595       60.624    13753.473     7498.748     3675.292        3.625        1.246      174.126       68.867        0.156      340.933       15.293      867.808
01/18/2015  10:55:00      126.295       70.907      107.504      107.191      111.546       79.665    11489.993    12442.487     6346.447        3.140        1.514      144.838       89.175        0.379      340.928       15.287      867.798
01/18/2015  10:56:00       89.584       83.043       96.669      108.141      106.658       79.452    11694.504    11375.870     6312.594        2.682        1.469      122.153       66.796        0.299      340.910       15.255      867.791
01/18/2015  10:57:00      156.974       53.879       62.402       96.837      121.270       81.087     9377.384    14706.368     6575.180        3.104        1.533      165.963       64.525        0.151      340.805       15.076      867.825
01/18/2015  10:58:00      193.224       77.169       39.672      112.090       86.873       67.131    12564.260     7546.884     4506.635        3.474        1.231      208.064       58.032        0.078      340.847       15.148      867.814
01/18/2015  10:59:00      138.612      124.437      106.845       90.693       78.986       75.227     8225.146     6238.804     5659.061        3.311        1.006      186.274       65.605        0.124      340.898       15.233      867.805
01/18/2015  11:00:00       98.485       90.316      120.197       90.925       82.800       67.202     8267.266     6855.892     4516.124        2.597        0.982      133.627       56.294        0.177      340.835       15.129      867.849
01/18/2015  11:01:00       80.653        2.665       41.536       84.093       41.033       35.636     7071.589     1683.737     1269.896        0.913        0.501       80.697       35.162        0.190      340.895       15.231      867.899
01/18/2015  11:02:00       53.742       13.412       32.377       58.871       90.815       50.201     3465.752     8247.376     2520.133        0.917        0.712       55.390       52.659        0.904      341.050       15.494      867.931
01/18/2015  11:03:00      128.705      118.712       83.061       55.466       43.323       49.459     3076.463     1876.921     2446.180        2.248        0.370      175.093       26.337        0.023      340.835       15.129      867.919
01/18/2015  11:04:00       57.080       87.636       88.336       61.812       54.760       58.584     3820.727     2998.694     3432.057        1.449        0.513      104.586       40.795        0.152      341.009       15.424      867.896
01/18/2015  11:05:00        0.150      -41.098       19.907       40.190       75.648       33.805     1615.218     5722.693     1142.759        0.528        0.424       41.098       26.896        0.428      341.162       15.683      867.918
01/18/2015  11:06:00       47.502      -63.417       27.607       43.779       69.828       52.628     1916.603     4875.980     2769.746        0.830        0.478       79.235       57.352        0.524      341.234       15.805      867.926
01/18/2015  11:07:00       41.935       64.729       71.956       63.844       49.540       56.272     4075.995     2454.258     3166.568        1.041        0.485       77.126       46.202        0.359      341.270       15.865      867.920
01/18/2015  11:08:00        2.058      -28.108       -0.482       48.598       48.011       35.142     2361.805     2305.076     1234.963        0.335        0.295       28.184       33.199        1.388      341.146       15.656      867.928
01/18/2015  11:09:00       33.507      -57.745       13.742       43.271       52.120       36.993     1872.379     2716.530     1368.485        0.530        0.298       66.763       37.405        0.314      341.118       15.608      867.969
01/18/2015  11:10:00      -58.281      -38.120       13.542       74.442       42.903       32.502     5541.651     1840.643     1056.411        0.673        0.422       69.640       44.007        0.399      341.252       15.835      868.006
01/18/2015  11:11:00      -54.094      -63.166       -3.117       48.579       49.515       29.310     2359.874     2451.752      859.083        0.630        0.284       83.164       24.741        0.089      341.135       15.637      868.026
01/18/2015  11:12:00      -91.065      -46.653        4.518       67.884       48.950       33.065     4608.275     2396.109     1093.318        0.929        0.405      102.320       23.358        0.052      340.840       15.137      867.986
01/18/2015  11:13:00      -71.297      -70.386        1.383       38.334       44.484       25.976     1469.464     1978.807      674.738        0.708        0.206      100.187       18.467        0.034      340.799       15.069      867.958
01/18/2015  11:14:00      -69.648      -42.843       11.210       40.589       44.925       35.707     1647.496     2018.229     1274.972        0.588        0.247       81.771       32.825        0.161      340.906       15.250      867.940
01/18/2015  11:15:00       30.549      -98.213        6.098       52.733       69.703       42.605     2780.779     4858.553     1815.143        1.003        0.473      102.855       31.857        0.096      341.024       15.450      867.919
01/18/2015  11:16:00        1.137      -58.307       -0.631       37.113       53.624       25.834     1377.396     2875.485      667.413        0.416        0.246       58.318       24.372        0.175      341.170       15.697      867.872
01/18/2015  11:17:00        1.431     -108.224       -9.750       58.461       43.933       31.115     3417.660     1930.105      968.143        0.906        0.316      108.233       22.124        0.042      341.118       15.609      867.860
01/18/2015  11:18:00      -61.932      -59.491       -1.783       62.386       51.685       32.596     3891.964     2671.344     1062.524        0.750        0.381       85.877       12.016        0.020      340.955       15.334      867.891
01/18/2015  11:19:00     -126.778     -121.404       -1.666       77.145       64.886       39.541     5951.409     4210.173     1563.470        2.127        0.586      175.532       35.449        0.041      340.881       15.206      867.867
01/18/2015  11:20:00      -69.592      -89.388       -1.739       52.634       44.485       37.402     2770.335     1978.907     1398.929        0.949        0.307      113.284       19.610        0.030      340.850       15.155      867.853
01/18/2015  11:21:00      -90.776      -64.190        1.424       64.168       45.150       34.413     4117.589     2038.562     1184.221        0.985        0.367      111.179       17.167        0.024      340.875       15.197      867.871
01/18/2015  11:22:00     -117.892     -121.306       -3.425       70.954       58.601       38.694     5034.431     3434.032     1497.192        1.929        0.498      169.156       35.361        0.044      340.922       15.276      867.896
01/18/2015  11:23:00      -89.627      -69.486        2.109       54.493       42.417       29.062     2969.518     1799.169      844.629        0.924        0.281      113.408       28.888        0.065      340.922       15.277      867.891
01/18/2015  11:24:00      -24.986      -70.514        4.429       63.291       61.924       39.768     4005.719     3834.629     1581.494        0.752        0.471       74.810       23.301        0.097      341.173       15.701      867.845
01/18/2015  11:25:00       -6.345      -99.487       -6.872       77.636       80.300       48.882     6027.355     6448.164     2389.425        1.242        0.743       99.689       17.248        0.030      341.065       15.518      867.858
01/18/2015  11:26:00      -37.161     -109.358       -0.486       72.328       58.581       30.999     5231.316     3431.740      960.968        1.148        0.481      115.500       25.268        0.048      340.896       15.233      867.905
01/18/2015  11:27:00       20.223       83.179      115.941       59.425      103.839       76.155     3531.272    10782.593     5799.576        2.044        1.006       85.602       76.074        0.790      341.329       15.965      867.775
01/18/2015  11:28:00     -120.191      -58.962        2.198      101.980       67.354       43.713    10399.846     4536.583     1910.866        1.738        0.842      133.875       38.536        0.083      341.197       15.740      867.765
01/18/2015  11:29:00     -238.007      -86.586       11.323      187.997      152.652       72.584    35342.742    23302.637     5268.460        6.408        3.196      253.267       74.704        0.087      341.429       16.133      867.766
01/18/2015  11:30:00      -23.631     -242.002       -5.233      207.907      186.145      104.773    43225.148    34650.142    10977.408        7.399        4.443      243.153      103.733        0.182      341.357       16.010      867.811
01/18/2015  11:31:00     -129.384     -217.296       34.790      223.104      169.359       91.817    49775.187    28682.347     8430.376        7.601        4.344      252.899      110.013        0.189      341.358       16.013      867.740
01/18/2015  11:32:00     -402.624     -196.895      -17.401      199.498      222.405       89.451    39799.371    49464.084     8001.398       14.920        4.863      448.190       74.574        0.028      341.384       16.054      867.722
01/18/2015  11:33:00     -400.649     -298.726       -2.010      212.883      180.982      100.864    45319.291    32754.464    10173.456       16.899        4.412      499.757      111.653        0.050      341.375       16.042      867.671
01/18/2015  11:34:00     -386.952     -339.056       -0.922      231.396      229.760      104.410    53544.288    52789.871    10901.394       19.094        5.862      514.481      114.583        0.050      341.413       16.105      867.571
01/18/2015  11:35:00     -467.580     -260.534      -18.565      253.491      180.319      100.478    64257.842    32515.079    10095.744       19.684        5.343      535.266      102.216        0.036      341.340       15.980      867.532
01/18/2015  11:36:00     -309.890     -206.290       -8.081      200.452      183.529       85.048    40181.094    33683.058     7233.170       10.986        4.055      372.273       98.103        0.069      341.413       16.105      867.503
01/18/2015  11:37:00     -423.409     -167.398       16.252      276.011      204.926      116.746    76181.858    41994.754    13629.620       16.966        6.590      455.299      139.154        0.093      341.369       16.031      867.457
01/18/2015  11:38:00     -314.941     -268.127       -3.193      196.595      205.290       82.437    38649.531    42143.856     6795.877       12.932        4.379      413.618       92.114        0.050      341.389       16.065      867.403
01/18/2015  11:39:00     -313.596     -187.080        3.013      195.753      126.779       84.426    38319.285    16072.994     7127.692        9.742        3.076      365.159       93.938        0.066      341.501       16.254      867.369
01/18/2015  11:40:00     -366.090     -253.968        5.691      204.961      190.215      104.216    42008.986    36181.738    10860.916       14.379        4.453      445.558       96.302        0.047      341.491       16.238      867.351
01/18/2015  11:41:00     -581.766     -365.860      -22.691      316.650      197.578      114.457   100267.507    39036.957    13100.485       31.259        7.620      687.245      140.219        0.042      341.391       16.068      867.299
01/18/2015  11:42:00     -435.968     -315.447      -19.330      295.021      231.176      111.672    87037.191    53442.571    12470.607       22.142        7.648      538.121      135.485        0.063      341.498       16.249      867.324
01/18/2015  11:43:00     -372.826     -195.596       -2.121      201.769      189.974       96.495    40710.725    36090.150     9311.321       13.167        4.306      421.019      104.283        0.061      341.489       16.233      867.297
01/18/2015  11:44:00     -306.178     -210.802        1.573      227.074      127.025       88.822    51562.586    16135.477     7889.419       10.687        3.779      371.730      112.271        0.091      341.529       16.300      867.269
01/18/2015  11:45:00     -387.090     -173.083       20.111      291.225      213.987      121.223    84811.864    45790.233    14694.977       16.272        7.265      424.024      141.494        0.111      341.561       16.356      867.247
01/18/2015  11:46:00     -469.434     -216.027       14.918      319.415      233.771      123.045   102025.773    54648.711    15139.995       21.951        8.591      516.755      141.109        0.075      341.489       16.232      867.174
01/18/2015  11:47:00     -402.684     -264.552       -9.797      283.058      267.309      119.555    80121.573    71454.048    14293.378       19.903        8.293      481.812      139.061        0.083      341.503       16.256      867.151
01/18/2015  11:48:00     -444.669     -248.848      -13.452      281.503      192.956      102.454    79244.008    37231.838    10496.869       19.338        6.349      509.565      137.297        0.073      341.588       16.401      867.132
01/18/2015  11:49:00     -367.675     -192.592      -13.214      233.318      173.219      100.387    54437.495    30004.745    10077.610       13.347        4.726      415.062      107.672        0.067      341.592       16.409      867.150
01/18/2015  11:50:00     -544.165     -348.397      -29.594      308.939      237.993      149.105    95443.119    56640.432    22232.178       29.631        8.716      646.139      164.023        0.064      341.477       16.212      867.071
01/18/2015  11:51:00     -550.907     -345.095      -30.858      321.946      232.675      122.035   103649.497    54137.762    14892.636       29.808        8.634      650.068      151.643        0.054      341.427       16.128      867.077
01/18/2015  11:52:00     -478.459     -302.162      -17.184      249.144      187.086      125.326    62072.845    35001.023    15706.710       21.663        5.639      565.885      125.176        0.049      341.523       16.291      867.037
01/18/2015  11:53:00     -564.567     -252.551      -33.467      326.472      183.431      100.053   106583.769    33647.016    10010.696       26.691        7.512      618.480      126.798        0.042      341.543       16.326      867.046
01/18/2015  11:54:00     -485.019      -86.651      -36.165      238.747      172.897       95.469    57000.139    29893.490     9114.247       17.002        4.800      492.699      100.494        0.042      341.592       16.409      867.053
01/18/2015  11:55:00     -312.516     -113.019       -1.369      258.500      208.289      114.210    66822.179    43384.317    13043.949       11.683        6.163      332.325      109.597        0.109      341.633       16.479      867.047
01/18/2015  11:56:00     -470.369     -261.284      -14.003      254.611      240.389      123.115    64826.721    57786.952    15157.389       21.372        6.889      538.068      138.068        0.066      341.536       16.313      867.024
01/18/2015  11:57:00     -368.112     -362.250      -17.186      253.824      213.420      124.355    64426.854    45547.920    15464.105       19.621        6.272      516.461      122.218        0.056      341.456       16.178      866.991
01/18/2015  11:58:00     -511.247     -207.143       -9.116      240.415      172.340       96.092    57799.513    29701.142     9233.656       20.053        4.837      551.617       95.549        0.030      341.538       16.316      866.975
01/18/2015  11:59:00     -538.818     -308.780      -14.756      298.718      216.231      118.309    89232.454    46755.658    13997.026       26.791        7.499      621.023      131.552        0.045      341.452       16.171      866.967
01/18/2015  12:00:00     -432.077     -234.630        1.454      208.652      169.279       93.483    43535.516    28655.375     8739.040       16.132        4.046      491.672      107.614        0.048      341.498       16.248      866.900
01/18/2015  12:01:00     -597.305     -280.064      -14.354      294.748      257.633      115.331    86876.154    66374.688    13301.290       30.096        8.328      659.704      143.672        0.047      341.622       16.459      866.920
01/18/2015  12:02:00     -636.601     -357.945      -27.123      238.092      175.953      102.921    56687.787    30959.476    10592.787       31.616        4.912      730.332      110.996        0.023      341.510       16.270      866.898
01/18/2015  12:03:00     -516.058     -271.984      -27.100      257.860      178.631      113.880    66491.654    31909.089    12968.640       22.618        5.568      583.345      126.098        0.047      341.458       16.181      866.915
01/18/2015  12:04:00     -423.781     -265.430      -15.607      286.558      221.613      109.131    82115.471    49112.543    11909.481       19.669        7.157      500.043      132.835        0.071      341.536       16.312      866.904
01/18/2015  12:05:00     -415.662     -320.897        0.134      203.699      176.057      107.009    41493.475    30996.126    11450.982       17.983        4.197      525.119      108.906        0.043      341.587       16.400      866.876
01/18/2015  12:06:00     -398.681     -206.095       -9.746      308.479      234.593      116.877    95159.087    55034.056    13660.220       18.266        8.193      448.800      151.403        0.114      341.681       16.560      866.894
01/18/2015  12:07:00     -502.275      -80.067        2.775      284.175      163.331      116.494    80755.665    26677.103    13570.907       18.983        6.050      508.616      147.990        0.085      341.617       16.451      866.873
01/18/2015  12:08:00     -268.829      -56.039       14.916      225.918      142.799      100.424    51038.859    20391.518    10085.059        7.856        4.076      274.608      118.897        0.187      341.827       16.807      866.857
01/18/2015  12:09:00     -246.427     -151.034       22.784      236.432      224.284      120.055    55900.247    50303.153    14413.116       10.232        6.031      289.028      132.817        0.211      341.818       16.792      866.815
01/18/2015  12:10:00     -518.679     -132.387       -6.551      237.583      214.070      120.743    56445.460    45825.907    14578.987       20.170        5.843      535.308      121.869        0.052      341.700       16.592      866.830
01/18/2015  12:11:00     -469.337     -222.298      -30.157      207.182      160.586       91.525    42924.485    25787.783     8376.803       17.383        3.854      519.321       90.021        0.030      341.644       16.496      866.823
01/18/2015  12:12:00     -328.575     -201.975      -11.456      230.882      170.746       92.521    53306.707    29154.106     8560.146       11.994        4.551      385.688      106.638        0.076      341.631       16.474      866.751
01/18/2015  12:13:00     -549.268     -142.312      -22.958      247.223      197.388      103.055    61119.443    38962.174    10620.292       21.657        5.535      567.404      113.441        0.040      341.626       16.465      866.790
01/18/2015  12:14:00     -348.744      -50.579       -4.330      191.851      128.365       84.587    36806.677    16477.683     7154.993        9.231        3.022      352.392       92.718        0.069      341.784       16.735      866.773
01/18/2015  12:15:00     -446.799     -261.728      -28.826      242.405      161.723       92.601    58760.328    26154.439     8574.976       18.121        4.674      517.814       97.612        0.036      341.658       16.519      866.729
01/18/2015  12:16:00     -161.898     -154.103       29.658      223.069      148.970      106.915    49759.974    22192.062    11430.821        6.710        4.169      223.514      126.765        0.322      341.794       16.752      866.683
01/18/2015  12:17:00     -270.902     -201.981       -8.279      226.362      198.557      109.874    51239.741    39424.784    12072.224       10.848        5.137      337.912      113.508        0.113      341.802       16.763      866.693
01/18/2015  12:18:00     -483.754     -215.876      -24.912      284.831      194.482      112.374    81128.441    37823.061    12627.832       20.639        6.579      529.736      130.136        0.060      341.689       16.572      866.721
01/18/2015  12:19:00     -389.656     -206.625        7.366      288.382      223.865      123.849    83164.105    50115.419    15338.698       17.157        7.431      441.050      135.191        0.094      341.650       16.506      866.688
01/18/2015  12:20:00     -400.407      -61.999      -16.318      236.685      167.511      110.173    56019.956    28060.043    12138.049       13.031        4.811      405.179      127.098        0.098      341.742       16.663      866.639
01/18/2015  12:21:00     -194.719     -103.851        7.703      186.430      152.880       84.797    34756.274    23372.440     7190.537        5.703        3.266      220.681      105.095        0.227      341.870       16.881      866.638
01/18/2015  12:22:00     -229.244     -149.878      -11.980      200.927      135.954       80.738    40371.784    18483.508     6518.573        7.026        3.269      273.891       79.003        0.083      341.929       16.980      866.608
01/18/2015  12:23:00     -430.473      -41.561      -14.730      247.391      207.944      110.969    61202.153    43240.907    12314.047       15.198        5.838      432.475      130.452        0.091      341.811       16.780      866.562
01/18/2015  12:24:00     -347.129     -177.799       -8.563      257.487      167.273      103.292    66299.541    27980.417    10669.166       12.855        5.247      390.014      117.896        0.091      341.835       16.821      866.504
01/18/2015  12:25:00     -390.604     -150.178      -14.443      224.081      217.470      110.966    50212.191    47293.097    12313.516       14.256        5.491      418.479      124.969        0.089      341.761       16.694      866.450
01/18/2015  12:26:00     -451.289     -124.766      -17.951      261.292      190.848      108.426    68273.281    36423.024    11756.147       16.798        5.823      468.218      126.605        0.073      341.770       16.710      866.435
01/18/2015  12:27:00     -521.260     -283.115      -35.251      261.526      224.647      106.683    68395.959    50466.174    11381.232       24.165        6.512      593.183      103.633        0.031      341.640       16.490      866.424
01/18/2015  12:28:00     -555.330      -59.496      -27.494      204.958      190.181      105.326    42007.951    36168.812    11093.664       20.096        4.464      558.508      104.340        0.035      341.846       16.839      866.442
01/18/2015  12:29:00     -394.400      -35.851      -19.087      216.621      128.805       84.814    46924.474    16590.728     7193.350       11.394        3.535      396.027       91.637        0.054      341.770       16.711      866.455
01/18/2015  12:30:00     -679.030     -129.139      -29.094      255.466      216.697      125.598    65262.828    46957.782    15774.792       30.328        6.400      691.201      129.917        0.035      341.641       16.492      866.422
01/18/2015  12:31:00     -303.146     -166.332        0.837      205.386      181.146      102.240    42183.564    32813.736    10452.934       10.249        4.273      345.780      111.127        0.103      341.793       16.748      866.432
01/18/2015  12:32:00     -424.333     -206.425      -29.148      233.213      235.997      101.900    54388.460    55694.758    10383.576       17.197        6.023      471.879       84.903        0.032      341.766       16.704      866.378
01/18/2015  12:33:00     -329.434      -53.816       -2.984      176.349      178.572       98.096    31099.040    31887.938     9622.908        9.201        3.630      333.800       93.610        0.079      341.852       16.849      866.374
01/18/2015  12:34:00     -404.776      -67.621       -5.384      290.216      176.146      118.093    84225.084    31027.363    13945.854       14.880        6.460      410.385      137.167        0.112      341.814       16.786      866.390
01/18/2015  12:35:00     -519.339     -186.461      -14.174      220.539      178.593       89.421    48637.582    31895.574     7996.106       19.659        4.426      551.798      110.372        0.040      341.725       16.632      866.346
01/18/2015  12:36:00     -466.473     -172.922      -26.385      297.379      160.092       88.537    88433.983    25629.429     7838.820       18.503        6.095      497.493      113.782        0.052      341.839       16.827      866.369
01/18/2015  12:37:00     -469.530       -4.201      -27.791      245.624      179.588       90.104    60331.236    32251.865     8118.759       16.096        5.035      469.549      104.729        0.050      341.808       16.773      866.363
01/18/2015  12:38:00     -413.093     -139.203       -8.498      220.778      207.501       92.292    48742.888    43056.612     8517.858       14.519        5.016      435.917       97.681        0.050      341.820       16.794      866.320
01/18/2015  12:39:00     -563.383     -162.393      -38.377      259.744      174.114      100.054    67466.851    30315.814    10010.898       22.650        5.390      586.321      104.860        0.032      341.772       16.714      866.291
01/18/2015  12:40:00     -586.177       -8.449      -39.200      256.574      191.028      118.173    65829.996    36491.759    13964.968       23.073        5.814      586.238      134.134        0.052      341.813       16.782      866.317
01/18/2015  12:41:00     -586.130      -86.684      -36.474      220.043      203.973      105.994    48419.094    41604.977    11234.707       22.681        5.063      592.505       99.557        0.028      341.826       16.803      866.310
01/18/2015  12:42:00     -412.113     -193.363      -10.229      260.492      221.171       99.103    67856.308    48916.462     9821.370       16.694        6.330      455.221      133.628        0.086      341.957       17.025      866.326
01/18/2015  12:43:00     -369.461     -130.347       -7.430      202.372      157.052       75.705    40954.405    24665.238     5731.267       11.244        3.568      391.780       80.546        0.042      341.934       16.989      866.353
01/18/2015  12:44:00     -337.766     -118.724       10.647      202.160      146.803       76.595    40868.709    21551.191     5866.740        9.828        3.414      358.024       88.420        0.061      341.976       17.059      866.305
01/18/2015  12:45:00     -309.752     -121.642       -4.505      160.507      169.051       90.618    25762.615    28578.395     8211.567        8.665        3.128      332.781       91.514        0.076      342.003       17.104      866.314
01/18/2015  12:46:00     -376.840     -167.686      -21.860      160.106      219.638       89.689    25633.779    48240.776     8044.133       12.625        4.096      412.465       72.729        0.031      341.936       16.991      866.316
01/18/2015  12:47:00     -383.106      -72.701       -3.617      175.647      183.652       89.311    30851.891    33727.924     7976.403       11.230        3.628      389.943       80.935        0.043      341.924       16.970      866.303
01/18/2015  12:48:00     -334.780     -141.642        2.245      276.119      218.532      118.194    76241.798    47756.447    13969.921       13.503        6.898      363.511      132.744        0.133      341.969       17.046      866.267
01/18/2015  12:49:00     -251.058     -117.967       15.248      189.275      158.043      100.791    35825.207    24977.662    10158.748        7.406        3.548      277.392      118.770        0.183      342.022       17.139      866.325
01/18/2015  12:50:00     -486.312     -249.432      -20.390      173.956      131.968       95.215    30260.746    17415.578     9065.960       17.793        2.837      546.549       87.982        0.026      341.865       16.870      866.306
01/18/2015  12:51:00     -465.691     -161.851      -23.876      171.808      188.848       99.756    29517.976    35663.469     9951.202       15.937        3.757      493.015      102.398        0.043      341.987       17.079      866.283
01/18/2015  12:52:00     -247.501     -197.538       11.551      235.348      227.675      112.857    55388.810    51835.995    12736.747       11.017        5.998      316.667      110.364        0.121      342.016       17.127      866.261
01/18/2015  12:53:00     -420.331     -182.535      -13.198      220.970      181.931       97.311    48827.618    33098.975     9469.487       15.077        4.570      458.254      114.801        0.063      341.937       16.994      866.301
01/18/2015  12:54:00     -394.033     -209.964      -34.314      160.254      188.831       71.449    25681.264    35657.002     5105.013       13.347        3.322      446.483       64.184        0.021      341.993       17.088      866.293
01/18/2015  12:55:00     -404.016     -168.449      -18.952      190.996      130.840       87.152    36479.373    17119.091     7595.519       12.657        3.060      437.726       95.845        0.048      342.079       17.234      866.302
01/18/2015  12:56:00     -193.511     -104.246       -3.927      146.168      119.118       78.815    21364.965    14189.157     6211.738        4.504        2.088      219.804       64.798        0.087      342.111       17.289      866.292
01/18/2015  12:57:00     -322.911     -218.831      -26.843      262.132      230.986       95.284    68713.342    53354.621     9078.972       14.199        6.557      390.075      113.088        0.084      342.079       17.236      866.232
01/18/2015  12:58:00     -468.807     -146.343      -19.494      205.861      196.058      104.931    42378.929    38438.549    11010.447       16.669        4.591      491.117      115.860        0.056      341.984       17.074      866.233
01/18/2015  12:59:00     -333.775     -200.015       -8.129      201.689      168.255       85.212    40678.514    28309.686     7261.078       11.385        3.812      389.117       92.230        0.056      342.033       17.157      866.230
01/18/2015  13:00:00     -438.743      -63.710      -22.438      274.113      166.207       91.540    75137.882    27624.712     8379.542       15.408        5.557      443.344      114.987        0.067      342.117       17.299      866.274
01/18/2015  13:01:00     -572.400      -41.500      -22.060      213.530      202.246      107.237    45595.101    40903.357    11499.735       21.391        4.900      573.902      118.123        0.042      341.973       17.054      866.277
01/18/2015  13:02:00     -277.312     -108.456       -7.738      165.376      138.054       60.104    27349.301    19058.806     3612.519        6.936        2.501      297.766       66.892        0.050      341.988       17.079      866.310
01/18/2015  13:03:00     -191.592     -189.874      -11.001      158.271      162.787       96.354    25049.606    26499.685     9284.092        6.685        3.042      269.741      107.002        0.157      342.065       17.210      866.249
01/18/2015  13:04:00     -491.620      -94.567      -14.945      181.065      161.609      104.415    32784.476    26117.426    10902.547       16.032        3.490      500.633      106.806        0.046      342.132       17.324      866.228
01/18/2015  13:05:00     -332.174      -64.225       -2.337      177.460      147.130       83.782    31492.209    21647.257     7019.507        8.730        3.008      338.326      100.250        0.088      342.190       17.423      866.247
01/18/2015  13:06:00     -488.315     -153.113      -20.588      279.333      170.709       93.578    78027.141    29141.419     8756.829       18.910        5.796      511.757       98.315        0.037      342.064       17.208      866.263
01/18/2015  13:07:00     -606.403     -118.365      -27.934      254.731      202.577      112.622    64887.871    41037.497    12683.788       25.054        5.930      617.847      118.426        0.037      342.021       17.136      866.258
01/18/2015  13:08:00     -360.289      -35.979      -20.198      174.404      171.034       82.399    30416.753    29252.694     6789.668        9.897        3.323      362.081       85.289        0.055      342.191       17.425      866.298
01/18/2015  13:09:00     -218.736      -75.412       15.248      193.149      170.866       87.909    37306.676    29195.184     7727.906        6.398        3.711      231.371       98.599        0.182      342.127       17.317      866.265
01/18/2015  13:10:00     -378.689       -9.264      -37.154      212.101      138.466       71.943    44986.816    19172.889     5175.759       10.709        3.467      378.802       80.494        0.045      342.108       17.286      866.249
01/18/2015  13:11:00     -459.585     -128.094       -9.394      212.321      193.160       90.161    45080.037    37310.680     8128.986       15.910        4.526      477.102       97.623        0.042      342.131       17.323      866.255
01/18/2015  13:12:00     -297.109       34.050      -14.981      151.042      126.238       74.214    22813.833    15935.996     5507.782        6.695        2.213      299.054       67.013        0.050      342.280       17.576      866.269
01/18/2015  13:13:00     -306.860       18.217       -6.849      212.104      133.576       87.646    44988.167    17842.434     7681.804        8.252        3.526      307.400      104.342        0.115      342.353       17.702      866.283
01/18/2015  13:14:00     -339.882      -19.784       -5.963      159.747      133.191       84.118    25519.186    17739.818     7075.767        8.313        2.517      340.457       88.552        0.068      342.265       17.550      866.284
01/18/2015  13:15:00     -606.593     -120.656      -15.529      166.793      176.281       90.469    27819.947    31074.919     8184.655       22.491        3.354      618.477       92.657        0.022      342.183       17.412      866.276
01/18/2015  13:16:00     -521.233     -124.144      -21.708      196.952      194.646      100.535    38790.235    37887.211    10107.291       18.716        4.339      535.813      108.431        0.041      342.156       17.364      866.303
01/18/2015  13:17:00     -598.413     -164.145      -27.705      181.242      150.472       90.450    32848.790    22641.772     8181.267       22.473        3.184      620.517       97.261        0.025      342.173       17.394      866.294
01/18/2015  13:18:00     -372.895      -94.771        0.399      235.824      155.558       97.511    55613.130    24198.230     9508.341       11.866        4.466      384.749      115.341        0.090      342.201       17.442      866.319
01/18/2015  13:19:00     -537.959     -136.130      -19.033      273.888      179.422      105.511    75014.591    32192.340    11132.519       21.330        5.917      554.916      124.876        0.051      342.115       17.295      866.306
01/18/2015  13:20:00     -522.044      -94.806      -41.514      239.076      194.476       93.666    57157.189    37820.754     8773.398       19.348        5.188      530.583      101.412        0.037      342.107       17.282      866.341
01/18/2015  13:21:00     -368.158       27.249      -25.757      202.045      111.520       62.094    40822.147    12436.617     3855.713        9.702        2.856      369.165       83.487        0.051      342.263       17.547      866.358
01/18/2015  13:22:00     -261.039     -107.204      -13.167      159.207      118.573       78.530    25346.714    14059.596     6167.015        6.268        2.279      282.195       69.478        0.061      342.218       17.471      866.369
01/18/2015  13:23:00     -256.631       11.192       -8.630      180.011      120.093       67.777    32403.853    14422.439     4593.716        5.873        2.571      256.875       73.830        0.083      342.411       17.799      866.391
01/18/2015  13:24:00     -509.391      -85.297      -19.550      237.251      166.418       89.002    56288.207    27694.847     7921.392       17.951        4.595      516.483       98.359        0.036      342.134       17.328      866.366
01/18/2015  13:25:00     -369.660       -8.999        5.282      252.033      167.348      109.555    63520.499    28005.333    12002.297       12.013        5.176      369.769      127.777        0.119      342.205       17.450      866.309
01/18/2015  13:26:00     -478.116      -13.366      -23.702      179.803      215.459       78.664    32329.194    46422.754     6188.082       15.712        4.247      478.303       72.063        0.023      342.228       17.489      866.292
01/18/2015  13:27:00     -241.311       63.700      -14.770      169.592      125.153       74.440    28761.405    15663.218     5541.287        5.623        2.498      249.577       64.628        0.067      342.434       17.838      866.287
01/18/2015  13:28:00     -338.909     -201.322        0.209      231.765      159.628       85.662    53715.038    25481.130     7338.006       12.095        4.327      394.195       97.947        0.062      342.312       17.631      866.280
01/18/2015  13:29:00     -539.558     -287.846      -14.946      272.735      167.638      106.068    74384.289    28102.413    11250.505       24.395        5.687      611.538      121.329        0.039      342.075       17.227      866.249
01/18/2015  13:30:00     -374.905     -143.212      -12.732      258.051      164.679      102.684    66590.161    27119.328    10544.096       13.272        5.213      401.327      129.724        0.104      342.238       17.505      866.274
01/18/2015  13:31:00     -392.637      -90.801       -4.302      158.730      152.823       75.682    25195.308    23354.757     5727.796       10.834        2.714      403.000       75.089        0.035      342.159       17.370      866.256
01/18/2015  13:32:00     -514.467     -104.499      -33.060      187.681      159.351      101.814    35224.227    25392.588    10366.071       17.382        3.549      524.972       98.377        0.035      342.129       17.319      866.236
01/18/2015  13:33:00     -417.071     -203.314      -29.812      171.453      154.310       73.048    29396.284    23811.514     5336.061       13.735        2.927      463.988       74.110        0.026      342.127       17.317      866.226
01/18/2015  13:34:00     -277.627     -170.633       -7.306      195.379      166.708       92.122    38173.043    27791.582     8486.477        9.034        3.723      325.871      100.131        0.094      342.261       17.544      866.253
01/18/2015  13:35:00     -316.159     -256.051        6.047      204.286      138.714       93.349    41732.647    19241.464     8714.069       11.761        3.484      406.840      103.343        0.065      342.157       17.368      866.256
01/18/2015  13:36:00     -360.782     -291.046       -9.467      240.498      189.126      116.579    57839.497    35768.779    13590.625       16.106        5.360      463.543      128.884        0.077      342.153       17.360      866.299
01/18/2015  13:37:00     -419.013     -248.888       -8.398      219.251      235.088      107.448    48070.819    55266.172    11545.077       17.622        5.744      487.358      107.558        0.049      342.058       17.198      866.354
01/18/2015  13:38:00     -162.731      -72.255       23.386      201.227      106.271       73.880    40492.414    11293.441     5458.216        4.474        2.862      178.052       94.146        0.280      342.274       17.567      866.353
01/18/2015  13:39:00     -330.681     -220.247        0.886      185.577      180.801       91.150    34438.826    32688.836     8308.246       11.663        3.772      397.314       93.862        0.056      341.982       17.070      866.370
01/18/2015  13:40:00     -380.396     -266.539       -6.704      215.299      185.510       89.240    46353.664    34413.912     7963.770       15.225        4.437      464.482      110.025        0.056      341.955       17.024      866.319
01/18/2015  13:41:00     -595.278     -238.307      -21.962      294.523      224.470      105.952    86743.949    50386.945    11225.721       27.997        7.418      641.207      120.917        0.036      341.951       17.017      866.307
01/18/2015  13:42:00     -427.395     -191.622       -7.222      291.186      189.029      105.012    84789.240    35731.923    11027.537       17.547        6.577      468.385      133.562        0.081      341.926       16.975      866.324
01/18/2015  13:43:00     -429.422     -349.719       12.161      290.537      244.361      103.463    84411.733    59712.256    10704.650       23.082        7.741      553.811      125.289        0.051      341.869       16.878      866.310
01/18/2015  13:44:00     -416.248     -229.762       -4.695      218.125      192.766       99.909    47578.448    37158.570     9981.811       16.038        4.736      475.450      103.285        0.047      341.887       16.910      866.312
01/18/2015  13:45:00     -495.892     -303.865      -31.859      194.383      174.827       84.207    37784.909    30564.647     7090.795       20.734        3.772      581.587       68.096        0.014      341.991       17.085      866.334
01/18/2015  13:46:00     -573.180     -269.558      -22.531      311.863      267.692      135.360    97258.470    71659.223    18322.214       29.444        9.362      633.401      167.363        0.070      341.897       16.926      866.316
01/18/2015  13:47:00     -579.179     -276.494      -27.395      273.264      238.443      112.624    74673.337    56854.938    12684.114       27.841        7.211      641.792      122.177        0.036      341.754       16.683      866.285
01/18/2015  13:48:00     -439.903     -322.770       16.148      275.872      171.329      108.472    76105.106    29353.774    11766.099       20.757        5.861      545.614      124.849        0.052      341.756       16.685      866.263
01/18/2015  13:49:00     -438.360      -84.712      -11.818      259.625      248.824       96.766    67405.179    61913.392     9363.663       16.906        6.934      446.470       98.527        0.049      341.848       16.844      866.280
01/18/2015  13:50:00     -456.404      -40.823       -9.717      252.810      190.046       99.410    63912.701    36117.455     9882.368       15.997        5.496      458.226      102.021        0.050      341.894       16.920      866.262
01/18/2015  13:51:00     -297.132     -116.788      -11.937      224.578      124.319       76.772    50435.319    15455.119     5893.911        8.691        3.589      319.260       93.588        0.086      341.994       17.090      866.302
01/18/2015  13:52:00     -461.122     -125.491       -4.608      222.141      179.824       98.787    49346.520    32336.564     9758.952       15.991        4.572      477.892      108.924        0.052      341.913       16.953      866.300
01/18/2015  13:53:00     -288.697      -37.091        0.452      170.873      146.749       74.345    29197.696    21535.169     5527.159        7.048        2.813      291.070       73.637        0.064      342.022       17.138      866.324
01/18/2015  13:54:00     -368.644     -185.154       14.367      230.102      203.090       88.017    52947.129    41245.743     7746.936       13.615        5.097      412.530      102.728        0.062      341.956       17.024      866.339
01/18/2015  13:55:00     -286.678     -258.090      -17.283      155.647      146.187       86.207    24226.114    21370.619     7431.615       10.105        2.651      385.739       86.682        0.050      341.787       16.739      866.298
01/18/2015  13:56:00     -350.244     -233.668       11.304      166.889      155.887       80.804    27852.032    24300.749     6529.335       11.803        2.934      421.037       77.450        0.034      341.810       16.778      866.272
01/18/2015  13:57:00     -281.021     -213.148       -0.879      184.700      169.000       86.102    34114.180    28561.022     7413.616        9.724        3.504      352.711      104.728        0.088      341.892       16.917      866.287
01/18/2015  13:58:00     -418.676     -177.187      -11.992      206.870      219.581       84.104    42795.231    48215.638     7073.472       15.244        4.904      454.627       90.138        0.039      341.908       16.944      866.289
01/18/2015  13:59:00     -420.392     -316.113      -27.963      260.536      170.843      108.286    67878.763    29187.366    11725.812       19.310        5.440      525.982      125.453        0.057      341.781       16.729      866.299
01/18/2015  14:00:00     -653.220     -392.493      -21.044      331.305      195.129      121.485   109762.778    38075.346    14758.520       37.187        8.130      762.068      137.024        0.032      341.754       16.682      866.274
01/18/2015  14:01:00     -516.189     -273.090      -43.972      235.977      161.634      105.960    55685.088    26125.541    11227.496       21.798        4.652      583.977      123.145        0.044      341.800       16.761      866.280
01/18/2015  14:02:00     -353.390     -165.903        1.912      218.305      142.552       99.435    47657.179    20321.164     9887.240       11.513        3.893      390.395      117.132        0.090      341.883       16.902      866.253
01/18/2015  14:03:00     -399.194     -122.476       14.575      320.098      246.121      129.608   102462.675    60575.700    16798.247       17.717        8.992      417.560      168.001        0.162      341.861       16.865      866.245
01/18/2015  14:04:00     -486.377     -327.962       -7.481      239.844      213.915      117.931    57524.913    45759.564    13907.760       23.067        5.860      586.619      121.764        0.043      341.693       16.579      866.262
01/18/2015  14:05:00     -416.212     -207.731      -20.726      270.834      211.400      106.641    73351.024    44690.020    11372.336       17.309        6.471      465.171      124.737        0.072      341.805       16.769      866.276
01/18/2015  14:06:00     -311.718     -241.849       -4.220      212.758      193.171       96.011    45266.033    37314.997     9218.149       12.372        4.590      394.536      113.616        0.083      341.910       16.947      866.322
01/18/2015  14:07:00     -378.915     -244.696      -16.387      210.523      188.428      107.702    44319.745    35504.944    11599.773       14.756        4.571      451.058      101.127        0.050      341.871       16.882      866.316
01/18/2015  14:08:00     -195.372      -86.978       16.987      178.019      126.280       65.810    31690.720    15946.518     4330.918        4.899        2.598      213.859       85.628        0.160      342.027       17.148      866.310
01/18/2015  14:09:00     -192.727      -78.893        0.858      172.937      137.332       72.790    29907.081    18860.003     5298.374        4.871        2.703      208.249       93.287        0.201      342.146       17.351      866.311
01/18/2015  14:10:00     -426.874      -25.992      -15.542      245.838      127.970       88.975    60436.376    16376.227     7916.596       13.392        4.236      427.664      108.727        0.065      342.015       17.125      866.250
01/18/2015  14:11:00     -488.333        0.360       -6.300      276.863      151.337      106.343    76653.251    22902.923    11308.899       17.467        5.543      488.333      121.412        0.062      341.974       17.056      866.225
01/18/2015  14:12:00     -640.819      -75.868      -42.669      238.070      189.366      100.473    56677.437    35859.364    10094.737       26.041        5.132      645.294      116.078        0.032      341.885       16.905      866.224
01/18/2015  14:13:00     -396.110     -159.599      -20.791      256.926      191.752       94.204    66011.220    36768.888     8874.309       14.721        5.583      427.053      105.244        0.061      341.889       16.913      866.259
01/18/2015  14:14:00     -214.300     -125.057       -3.889      153.822      139.443       63.390    23661.076    19444.252     4018.290        5.434        2.356      248.120       66.552        0.072      342.003       17.105      866.265
01/18/2015  14:15:00     -474.153     -158.348      -23.143      252.997      215.959       86.724    64007.344    46638.267     7521.043       18.428        5.908      499.895      102.033        0.042      341.978       17.063      866.266
01/18/2015  14:16:00     -407.884     -110.207       11.300      257.246      229.269      114.732    66175.461    52564.377    13163.465       15.525        6.595      422.510      128.606        0.093      341.938       16.993      866.272
01/18/2015  14:17:00     -459.516      -68.863      -16.205      182.374      152.643       91.410    33260.169    23299.926     8355.831       14.053        3.246      464.647       93.413        0.040      341.956       17.025      866.308
01/18/2015  14:18:00     -439.840     -139.340       -8.242      216.445      196.874       98.803    46848.584    38759.338     9761.983       15.414        4.768      461.384      106.465        0.053      341.976       17.060      866.322
01/18/2015  14:19:00     -577.658     -220.682      -22.535      225.802      200.032      102.005    50986.722    40012.710    10405.109       24.213        5.070      618.376       99.232        0.026      341.841       16.832      866.299
01/18/2015  14:20:00     -593.366     -163.874      -22.552      266.310      209.531      106.224    70920.821    43903.052    11283.644       25.276        6.305      615.579      123.475        0.040      341.810       16.778      866.322
01/18/2015  14:21:00     -457.720     -101.133      -21.425      246.901      184.777       95.376    60960.302    34142.492     9096.506       16.218        5.210      468.760      111.307        0.056      341.822       16.799      866.316
01/18/2015  14:22:00     -505.468     -204.115      -17.608      317.594      227.458      126.315   100866.255    51737.122    15955.426       23.299        8.428      545.124      156.724        0.083      341.835       16.819      866.295
01/18/2015  14:23:00     -512.331     -226.409      -23.146      256.448      216.500      132.165    65765.457    46872.326    17467.605       22.217        6.505      560.128      138.922        0.062      341.839       16.825      866.286
01/18/2015  14:24:00     -451.826     -231.353        3.755      266.049      259.126      130.003    70782.166    67146.308    16900.718       20.623        7.741      507.613      153.210        0.091      341.854       16.853      866.320
01/18/2015  14:25:00     -300.230     -146.024        8.204      201.185      184.816       95.477    40475.418    34156.911     9115.847        9.762        4.187      333.858      111.605        0.112      341.918       16.961      866.347
01/18/2015  14:26:00     -270.010     -193.448        8.457      186.997      170.698       75.257    34967.755    29137.822     5663.585        9.007        3.488      332.156       90.023        0.073      342.000       17.100      866.346
01/18/2015  14:27:00     -476.960     -337.969      -37.718      273.139      221.021      110.822    74604.871    48850.275    12281.492       23.941        6.787      584.563      119.093        0.042      341.862       16.864      866.321
01/18/2015  14:28:00     -389.102     -228.081      -37.544      207.793      171.246       99.652    43178.119    29325.178     9930.617       14.362        4.122      451.023      103.315        0.052      341.784       16.733      866.310
01/18/2015  14:29:00     -458.662     -301.822      -19.740      246.169      157.422      104.900    60598.993    24781.532    11003.987       19.910        4.819      549.061      111.185        0.041      341.679       16.556      866.297
01/18/2015  14:30:00     -361.677     -191.397      -10.769      201.668      155.974       84.365    40669.826    24327.832     7117.411       11.983        3.606      409.198       81.190        0.039      341.732       16.646      866.263
01/18/2015  14:31:00     -240.389     -215.817       -6.353      204.969      175.405       90.593    42012.150    30766.902     8207.061        9.268        4.049      323.054       75.608        0.055      341.831       16.813      866.256
01/18/2015  14:32:00     -442.679     -200.135      -10.156      272.459      174.664       97.954    74233.805    30507.529     9594.931       17.521        5.717      485.817      138.260        0.081      341.881       16.897      866.270
01/18/2015  14:33:00     -497.910     -365.214      -17.926      283.757      228.940      127.650    80518.142    52413.425    16294.553       26.540        7.461      617.491      139.358        0.051      341.810       16.776      866.227
01/18/2015  14:34:00     -537.635     -243.024      -17.272      309.066      248.026      116.138    95522.061    61517.010    13488.092       25.944        8.526      590.010      143.148        0.059      341.837       16.824      866.231
01/18/2015  14:35:00     -335.613     -121.135       19.212      219.890      196.698      106.088    48351.762    38690.207    11254.616       11.297        4.915      356.805      117.936        0.109      341.956       17.025      866.232
01/18/2015  14:36:00     -405.610     -220.812      -23.535      221.390      218.231      112.794    49013.618    47624.603    12722.414       16.158        5.468      461.820      122.502        0.070      341.888       16.910      866.231
01/18/2015  14:37:00     -379.522     -166.457      -16.134      231.278      224.723       97.745    53489.461    50500.648     9554.043       14.276        5.677      414.422       98.473        0.056      341.880       16.895      866.227
01/18/2015  14:38:00     -547.747     -170.481      -18.690      260.797      217.218       99.171    68015.062    47183.789     9834.926       22.722        6.252      573.664       97.028        0.029      341.819       16.793      866.246
01/18/2015  14:39:00     -267.715     -239.234        4.895      206.234      151.261      105.955    42532.262    22880.029    11226.393       10.277        3.832      359.033      122.106        0.116      341.895       16.923      866.251
01/18/2015  14:40:00     -290.706      -44.552        9.359      206.488      148.119       78.902    42637.206    21939.140     6225.503        7.868        3.540      294.101       83.812        0.081      341.961       17.035      866.258
01/18/2015  14:41:00     -377.336      -77.473      -15.231      227.349      168.734       90.257    51687.367    28471.052     8146.361       11.845        4.415      385.208      112.091        0.085      341.831       16.813      866.272
01/18/2015  14:42:00     -326.386     -201.028        6.973      241.458      178.074       92.021    58301.955    31710.331     8467.802       12.272        4.924      383.328      128.702        0.113      341.822       16.798      866.313
01/18/2015  14:43:00     -364.903     -192.124      -17.627      188.331      169.243       95.955    35468.491    28643.129     9207.296       12.184        3.666      412.391       90.945        0.049      341.844       16.836      866.332
01/18/2015  14:44:00     -371.790     -284.986      -10.559      224.136      244.231      102.610    50236.773    59648.794    10528.832       16.997        6.021      468.449      107.340        0.053      341.778       16.722      866.333
01/18/2015  14:45:00     -477.426     -184.249       -7.400      225.633      208.028      103.909    50910.193    43275.519    10797.022       18.344        5.249      511.745      109.567        0.046      341.733       16.648      866.353
01/18/2015  14:46:00     -428.413     -238.704       -3.854      217.653      147.220       83.134    47372.623    21673.723     6911.231       15.823        3.798      490.425       87.521        0.032      341.728       16.640      866.371
01/18/2015  14:47:00     -460.986     -128.266       -8.747      238.057      206.036       92.262    56670.975    42450.837     8512.280       16.832        5.382      478.498      106.003        0.049      341.662       16.528      866.399
01/18/2015  14:48:00     -332.941      -58.551        1.365      171.617      119.436       71.781    29452.249    14264.900     5152.444        8.157        2.443      338.051       82.204        0.059      341.763       16.698      866.386
01/18/2015  14:49:00     -223.608     -107.399        6.589      147.493      129.050       70.769    21754.091    16653.965     5008.207        5.249        2.171      248.063       74.873        0.091      341.815       16.786      866.376
01/18/2015  14:50:00     -251.005     -123.583       -5.370      142.112      127.469       65.492    20195.795    16248.348     4289.158        5.951        2.037      279.779       60.713        0.047      341.902       16.933      866.398
01/18/2015  14:51:00     -210.390     -159.586        5.133      157.574      123.113       65.129    24829.722    15156.839     4241.770        5.699        2.211      264.067       77.167        0.085      341.909       16.946      866.437
01/18/2015  14:52:00     -422.059     -213.067       -5.944      234.705      153.688       84.719    55086.262    23619.886     7177.385       15.471        4.294      472.791       94.837        0.040      341.844       16.836      866.455
01/18/2015  14:53:00     -298.164     -182.289        1.011      198.065      195.687       93.568    39229.897    38293.253     8754.894       10.419        4.314      349.473      103.948        0.088      341.816       16.788      866.472
01/18/2015  14:54:00     -342.997      -93.194      -10.289      185.084      118.256       75.225    34255.949    13984.473     5658.829        9.016        2.695      355.432       75.217        0.045      341.848       16.842      866.476
01/18/2015  14:55:00     -285.949     -102.381       -6.332      177.785      154.645       82.031    31607.622    23915.230     6729.151        7.726        3.113      303.725       85.773        0.080      341.916       16.957      866.477
01/18/2015  14:56:00     -319.602     -102.984        5.131      198.683      143.456       96.279    39474.745    20579.483     9269.690        9.104        3.466      335.784      106.911        0.101      341.763       16.699      866.447
01/18/2015  14:57:00     -315.640     -121.951      -23.294      140.703      133.619       73.243    19797.416    17854.013     5364.609        7.902        2.151      338.379       72.698        0.046      341.718       16.622      866.442
01/18/2015  14:58:00     -182.479     -102.631       13.556      155.422      154.658       97.419    24155.997    23919.222     9490.509        5.078        2.878      209.361       94.091        0.202      341.697       16.589      866.421
01/18/2015  14:59:00     -240.606      -35.059      -10.605      152.128       90.387       68.704    23142.995     8169.811     4720.212        4.763        1.802      243.147       69.865        0.083      341.754       16.683      866.440
01/18/2015  15:00:00     -173.513      -30.156       -2.116      153.146       88.323       51.989    23453.575     7801.020     2702.903        3.248        1.698      176.114       54.613        0.096      341.776       16.722      866.448
01/18/2015  15:01:00     -167.928      -45.666        8.291      152.932      105.786       69.680    23388.289    11190.769     4855.280        3.489        1.972      174.026       71.247        0.168      341.824       16.804      866.464
01/18/2015  15:02:00     -163.208     -131.535       10.681      144.630      112.041       64.171    20917.833    12553.150     4117.891        4.081        1.879      209.614       79.449        0.144      341.856       16.858      866.473
01/18/2015  15:03:00     -205.165      -65.791        1.515      135.669      119.107       63.268    18405.959    14186.409     4002.857        4.150        1.830      215.456       66.732        0.096      341.943       17.005      866.450
01/18/2015  15:04:00     -449.870     -129.323      -24.025      234.542      123.519       84.417    55010.092    15257.003     7126.179       14.853        3.870      468.089       92.583        0.039      341.725       16.634      866.436
01/18/2015  15:05:00     -229.578      -88.365       19.368      159.759      150.182       60.559    25523.018    22554.741     3667.438        5.631        2.587      245.997       69.306        0.079      341.806       16.772      866.423
01/18/2015  15:06:00     -199.799     -136.718       13.388      226.722      169.326      110.020    51402.776    28671.453    12104.432        7.547        4.609      242.098      118.391        0.239      341.710       16.609      866.418
01/18/2015  15:07:00     -363.922      -74.262      -12.324      206.627      180.635       95.985    42694.805    32629.181     9213.058       11.131        4.227      371.422      109.967        0.088      341.643       16.496      866.408
01/18/2015  15:08:00     -266.271     -132.707       -1.287      238.737      145.647       91.977    56995.533    21213.126     8459.743        8.758        4.333      297.508      104.031        0.122      341.686       16.567      866.403
01/18/2015  15:09:00     -410.732     -234.185      -42.557      191.148      124.997       80.222    36537.436    15624.335     6435.617       14.197        2.930      472.804       88.654        0.035      341.668       16.537      866.416
01/18/2015  15:10:00     -382.728     -167.898      -16.810      208.329      176.946       94.235    43401.005    31310.061     8880.193       12.926        4.180      417.936       89.723        0.046      341.600       16.422      866.406
01/18/2015  15:11:00     -356.142     -106.979      -13.853      168.577      136.535       74.637    28418.175    18641.938     5570.744        9.554        2.632      371.863       87.185        0.055      341.679       16.556      866.409
01/18/2015  15:12:00     -286.699     -131.374       15.767      204.295      135.158       87.409    41736.243    18267.687     7640.303        8.366        3.382      315.366       98.610        0.098      341.656       16.517      866.428
01/18/2015  15:13:00     -218.334     -142.601        4.595      216.198      137.812       80.677    46741.783    18992.124     6508.778        7.012        3.612      260.777      107.790        0.171      341.713       16.614      866.444
01/18/2015  15:14:00     -352.145     -214.683        0.095      197.068      182.953      114.214    38835.925    33471.687    13044.901       12.771        4.268      412.425      123.921        0.090      341.632       16.477      866.466
01/18/2015  15:15:00     -393.551     -106.170       -6.321      186.869      151.241       79.072    34919.895    22873.752     6252.313       11.511        3.202      407.620       79.114        0.038      341.587       16.400      866.481
01/18/2015  15:16:00     -313.269     -197.370       -4.394      212.592      159.444       95.232    45195.498    25422.344     9069.144       10.839        3.984      370.260      102.617        0.077      341.555       16.345      866.486
01/18/2015  15:17:00     -254.473     -126.631       13.400      213.460      163.290       88.639    45565.294    26663.522     7856.871        8.051        4.004      284.239      102.270        0.129      341.606       16.433      866.498
01/18/2015  15:18:00     -393.837     -224.643       -2.358      222.947      170.271       96.366    49705.177    28992.298     9286.315       14.677        4.399      453.401      108.216        0.057      341.602       16.425      866.465
01/18/2015  15:19:00     -159.380     -148.615       -3.651      166.518      120.606       76.781    27728.215    14545.806     5895.357        4.783        2.408      217.918       61.566        0.080      341.686       16.569      866.467
01/18/2015  15:20:00     -259.275       -2.745       -2.783      160.760      101.888       69.177    25843.628    10381.136     4785.446        5.412        2.051      259.289       82.267        0.101      341.787       16.739      866.469
01/18/2015  15:21:00     -375.089      -68.874       -5.935      237.055      182.152       93.296    56195.214    33179.373     8704.081       12.176        4.904      381.360      102.149        0.072      341.716       16.620      866.474
01/18/2015  15:22:00     -323.459      -60.971      -12.115      234.838      134.597       84.555    55149.016    18116.301     7149.565        9.444        4.021      329.155      105.812        0.103      341.679       16.555      866.464
01/18/2015  15:23:00     -350.355     -143.865       -5.727      154.132      109.227       69.824    23756.571    11930.458     4875.352        9.201        2.028      378.743       54.925        0.021      341.701       16.593      866.485
01/18/2015  15:24:00     -321.144     -141.580        2.194      166.363      128.316       79.358    27676.518    16464.993     6297.630        8.680        2.522      350.968       84.823        0.058      341.728       16.638      866.495
01/18/2015  15:25:00     -619.923     -371.769      -53.238      257.226      195.637      117.781    66165.232    38273.879    13872.459       32.181        5.916      722.853      102.024        0.020      341.518       16.283      866.445
01/18/2015  15:26:00     -497.336     -143.898      -27.791      219.366      253.439      104.276    48121.256    64231.560    10873.509       19.600        6.161      517.735       95.958        0.034      341.572       16.374      866.484
01/18/2015  15:27:00     -395.245     -206.431      -11.536      182.024      200.134      101.607    33132.578    40053.524    10323.940       14.122        4.176      445.906       94.106        0.045      341.556       16.347      866.512
01/18/2015  15:28:00     -214.963     -113.753        7.826      203.748      162.000       98.267    41513.312    26243.893     9656.429        6.830        3.871      243.205      112.732        0.215      341.627       16.468      866.543
01/18/2015  15:29:00     -490.255     -201.151      -21.458      213.816      204.758       91.747    45717.481    41926.019     8417.449       18.865        4.803      529.916       91.005        0.029      341.573       16.376      866.570
01/18/2015  15:30:00     -490.069     -193.356      -21.834      175.923      200.107       91.701    30948.883    40042.869     8409.146       17.870        3.970      526.834       90.044        0.029      341.526       16.296      866.590
01/18/2015  15:31:00     -339.410     -194.989        3.694      245.284      203.439      124.097    60164.098    41387.368    15399.975       13.507        5.848      391.434      130.885        0.112      341.540       16.320      866.592
01/18/2015  15:32:00     -338.569     -139.995      -20.072      186.138      159.249       88.901    34647.198    25360.172     7903.469       10.126        3.396      366.370       88.281        0.058      341.497       16.247      866.607
01/18/2015  15:33:00     -403.686     -268.718       -3.827      219.591      172.167       98.505    48220.373    29641.466     9703.279       16.136        4.378      484.945      112.540        0.054      341.507       16.264      866.599
01/18/2015  15:34:00     -281.445     -129.269      -12.378      185.588      113.815       76.579    34442.827    12953.757     5864.277        7.466        2.663      309.713       87.244        0.079      341.604       16.430      866.615
01/18/2015  15:35:00     -261.024      -62.396       10.832      248.911      128.092       88.043    61956.873    16407.687     7751.617        7.912        4.306      268.378      108.524        0.164      341.655       16.516      866.638
01/18/2015  15:36:00     -143.074      -42.403        9.328      124.111       75.047       50.650    15403.475     5631.983     2565.389        2.297        1.180      149.225       56.205        0.142      341.754       16.685      866.685
01/18/2015  15:37:00     -381.798     -203.982       -8.404      199.055      145.300       81.314    39623.067    21112.043     6612.031       12.739        3.367      432.873       94.496        0.048      341.565       16.362      866.687
01/18/2015  15:38:00     -255.508     -152.892        6.782      149.376      130.981       68.669    22313.319    17155.897     4715.453        6.644        2.209      297.758       89.875        0.091      341.584       16.394      866.696
01/18/2015  15:39:00     -354.990     -136.432      -22.029      168.976      145.584       64.815    28552.999    21194.603     4200.932        9.952        2.697      380.304       66.140        0.030      341.592       16.407      866.709
01/18/2015  15:40:00     -318.148     -166.239       -4.993      191.218      146.318       76.836    36564.253    21408.985     5903.748        9.637        3.194      358.961       84.546        0.055      341.606       16.432      866.713
01/18/2015  15:41:00     -274.845     -171.188       -8.173      227.745      170.776       82.947    51867.882    29164.467     6880.162        9.640        4.396      323.798       97.651        0.091      341.596       16.416      866.738
01/18/2015  15:42:00     -417.257     -143.827      -39.308      183.554      133.317       77.324    33691.897    17773.362     5978.939       12.688        2.872      441.349       82.759        0.035      341.492       16.238      866.722
01/18/2015  15:43:00     -326.454      -58.646      -10.038      165.353      138.185       76.805    27341.683    19095.015     5899.028        8.122        2.617      331.680       86.562        0.068      341.562       16.357      866.756
01/18/2015  15:44:00     -297.654     -125.623       -5.393      206.168      205.364      101.293    42505.332    42174.574    10260.359        9.966        4.747      323.078      105.933        0.108      341.494       16.243      866.767
01/18/2015  15:45:00     -366.066      -30.655       -7.689      227.988      186.699       83.520    51978.646    34856.676     6975.537       11.439        4.691      367.347       80.015        0.047      341.488       16.232      866.796
01/18/2015  15:46:00     -609.853     -235.097      -16.015      248.169      171.421      109.913    61587.915    29385.274    12080.891       26.523        5.153      653.598      118.041        0.033      341.380       16.049      866.803
01/18/2015  15:47:00     -304.232      -93.320        0.934      152.435      153.709       81.674    23236.551    23626.309     6670.610        7.739        2.677      318.222       72.682        0.052      341.440       16.150      866.858
01/18/2015  15:48:00     -343.574     -201.545       -2.949      194.877      218.843      105.724    37976.886    47892.410    11177.493       12.784        4.852      398.326      107.151        0.072      341.387       16.062      866.876
01/18/2015  15:49:00     -296.838     -202.582      -17.733      212.464      128.574       85.636    45141.136    16531.343     7333.464        9.922        3.450      359.377      100.915        0.079      341.357       16.013      866.898
01/18/2015  15:50:00     -428.126     -101.394      -20.765      193.989      118.765       82.937    37631.756    14105.161     6878.565       12.630        2.931      439.969       94.906        0.047      341.374       16.040      866.905
01/18/2015  15:51:00     -404.612      -95.423        2.068      230.145      209.195      114.749    52966.896    43762.740    13167.341       14.134        5.495      415.712      127.312        0.094      341.344       15.989      866.894
01/18/2015  15:52:00     -432.427     -133.892      -19.453      184.101      150.151       85.538    33893.103    22545.344     7316.757       13.452        3.188      452.681       96.437        0.045      341.341       15.984      866.907
01/18/2015  15:53:00     -324.945      -96.548      -26.330      151.873      129.121       73.593    23065.556    16672.347     5415.880        8.037        2.258      338.985       70.827        0.044      341.377       16.045      866.963
01/18/2015  15:54:00     -626.007     -243.422      -43.455      204.756      207.452       85.111    41924.974    43036.219     7243.943       27.260        4.610      671.669       88.344        0.017      341.236       15.805      866.976
01/18/2015  15:55:00     -472.804     -278.191      -22.771      238.320      193.576      117.372    56796.292    37471.719    13776.127       20.473        5.402      548.575      122.957        0.050      341.277       15.876      866.969
01/18/2015  15:56:00     -269.152     -204.746       -2.568      213.181      141.190       92.800    45446.077    19934.721     8611.908        9.417        3.700      338.177      109.714        0.105      341.311       15.934      867.012
01/18/2015  15:57:00     -292.340      -70.220      -13.678      205.847      129.678       64.299    42372.898    16816.504     4134.416        7.694        3.166      300.655       65.946        0.048      341.355       16.006      867.035
01/18/2015  15:58:00     -322.886        5.139       -6.656      134.177      109.989       60.619    18003.434    12097.481     3674.628        6.905        1.689      322.927       68.311        0.045      341.367       16.027      867.051
01/18/2015  15:59:00     -301.687     -170.091      -15.663      209.681      141.168       92.457    43965.939    19928.397     8548.299        9.630        3.622      346.332      108.806        0.099      341.228       15.792      867.068
01/18/2015  16:00:00     -223.961     -132.190        1.347      182.267      147.104       81.357    33221.157    21639.712     6618.985        6.455        3.074      260.063       99.117        0.145      341.302       15.918      867.078
01/18/2015  16:01:00     -172.348      -94.008       -7.427      141.028      141.688       71.747    19889.012    20075.400     5147.592        4.185        2.256      196.319       66.082        0.113      341.363       16.023      867.085
01/18/2015  16:02:00     -131.837      -23.030        9.132      147.138      101.408       73.336    21649.541    10283.483     5378.241        2.765        1.866      133.834       69.633        0.271      341.399       16.082      867.102
01/18/2015  16:03:00     -188.302      -15.163        6.022      162.789       95.086       58.472    26500.244     9041.338     3418.940        3.734        1.948      188.912       70.938        0.141      341.285       15.890      867.093
01/18/2015  16:04:00     -367.724      -34.210      -17.037      224.091      106.122       68.356    50216.657    11261.855     4672.513       10.141        3.308      369.311       82.616        0.050      341.231       15.798      867.087
01/18/2015  16:05:00     -301.710     -117.718      -24.492      154.085      128.999       64.899    23742.223    16640.747     4211.875        7.503        2.230      323.862       70.965        0.048      341.189       15.724      867.075
01/18/2015  16:06:00     -227.091      -61.781       -9.111      123.838      145.391       64.137    15335.966    21138.471     4113.616        4.802        2.029      235.345       66.300        0.079      341.164       15.683      867.068
01/18/2015  16:07:00     -329.789     -191.775       -6.694      182.533      179.774       89.365    33318.179    32318.579     7986.015       10.959        3.681      381.495       83.019        0.047      341.115       15.599      867.103
01/18/2015  16:08:00     -318.216     -116.267      -17.613      181.306      113.669       74.256    32871.760    12920.528     5513.975        8.319        2.565      338.791       73.437        0.047      341.092       15.562      867.119
01/18/2015  16:09:00     -240.790      -62.306        0.148      115.241      112.834       59.781    13280.447    12731.544     3573.751        4.572        1.479      248.720       61.497        0.061      341.077       15.538      867.147
01/18/2015  16:10:00     -211.169      -80.254       -5.210      146.981       76.430       53.752    21603.272     5841.614     2889.249        4.069        1.517      225.905       61.372        0.074      341.109       15.591      867.166
01/18/2015  16:11:00     -245.230      -64.390        6.594      147.449      122.117       77.439    21741.211    14912.445     5996.799        5.348        2.133      253.542       80.560        0.101      341.070       15.525      867.176
01/18/2015  16:12:00     -129.872     -143.202       17.642      143.120      117.917       76.588    20483.307    13904.393     5865.660        3.896        2.013      193.322       88.335        0.209      341.068       15.522      867.189
01/18/2015  16:13:00     -365.616     -255.346      -19.665      151.670      158.367       79.510    23003.869    25080.082     6321.872       12.683        2.720      445.956       74.445        0.028      341.000       15.406      867.178
01/18/2015  16:14:00     -241.946     -167.508      -17.690      180.969      139.320       73.869    32749.764    19410.104     5456.669        7.225        2.881      294.273       80.023        0.074      340.995       15.398      867.183
01/18/2015  16:15:00     -275.502      -22.319       -9.504      133.418      114.775       51.571    17800.245    13173.197     2659.603        5.506        1.682      276.405       54.473        0.039      341.037       15.470      867.201
01/18/2015  16:16:00     -378.803      -32.490       -7.186      168.394      126.943       72.807    28356.653    16114.490     5300.910        9.718        2.489      380.193       82.098        0.047      341.003       15.412      867.225
01/18/2015  16:17:00     -255.228      -60.740       -0.408      166.455      116.414       60.592    27707.376    13552.234     3671.383        5.687        2.247      262.356       70.552        0.072      341.012       15.427      867.216
01/18/2015  16:18:00     -289.703      -16.924       -5.175      182.611      113.520       73.200    33346.759    12886.749     5358.235        6.791        2.580      290.197       86.523        0.089      341.003       15.411      867.233
01/18/2015  16:19:00     -510.358     -152.369      -31.462      199.920      223.524      100.688    39967.929    49962.790    10138.097       19.235        5.003      532.618      110.601        0.043      340.917       15.264      867.218
01/18/2015  16:20:00     -245.539      -67.803        5.299      178.060      108.806       73.556    31705.319    11838.819     5410.430        5.693        2.448      254.728       76.721        0.091      340.936       15.299      867.234
01/18/2015  16:21:00     -325.709     -124.880        3.260      190.495      146.274       77.496    36288.376    21396.105     6005.591        9.268        3.185      348.828       81.920        0.055      340.919       15.269      867.209
01/18/2015  16:22:00     -433.496      -63.670      -20.457      185.931      164.670       78.173    34570.217    27116.306     6110.978       13.008        3.390      438.147       86.543        0.039      340.899       15.234      867.233
01/18/2015  16:23:00     -219.224     -170.093        7.943      188.810      174.829       79.591    35649.390    30565.321     6334.725        7.479        3.627      277.472       99.121        0.128      340.890       15.220      867.218
01/18/2015  16:24:00     -243.837      -68.134       -0.228      146.968      124.686       61.907    21599.661    15546.702     3832.479        5.253        2.049      253.178       68.257        0.073      340.884       15.209      867.234
01/18/2015  16:25:00     -219.942      -40.160        8.151      134.339      107.893       62.290    18046.960    11640.796     3880.041        4.181        1.678      223.579       69.403        0.096      340.873       15.190      867.234
01/18/2015  16:26:00     -221.699       19.659       -3.992      145.330       93.903       54.836    21120.793     8817.728     3006.949        4.124        1.647      222.569       60.490        0.074      340.855       15.161      867.221
01/18/2015  16:27:00      -87.316      -32.178        6.407       66.537       75.567       44.658     4427.222     5710.297     1994.317        1.041        0.607       93.057       45.671        0.241      340.859       15.169      867.200
01/18/2015  16:28:00      -48.659      -62.030       19.939       80.727       78.707       45.715     6516.894     6194.865     2089.830        1.070        0.740       78.838       46.908        0.354      340.843       15.142      867.202
01/18/2015  16:29:00     -135.522     -104.930       10.339      116.216      118.161       55.068    13506.074    13962.121     3032.491        2.999        1.525      171.396       64.092        0.140      340.832       15.123      867.181
01/18/2015  16:30:00     -248.970       -7.048       -2.406      148.594       95.029       68.403    22080.323     9030.542     4678.975        4.891        1.789      249.069       72.105        0.084      340.790       15.052      867.184
01/18/2015  16:31:00     -253.870     -105.891       -7.470      187.381      151.592       63.551    35111.585    22980.187     4038.715        6.891        3.107      275.069       62.823        0.052      340.803       15.075      867.183
01/18/2015  16:32:00     -317.762     -151.628      -29.825      118.740      124.127       59.656    14099.206    15407.494     3558.808        7.895        1.653      352.084       57.846        0.027      340.778       15.031      867.171
01/18/2015  16:33:00     -329.410     -135.973       -9.843      162.015      156.297       66.792    26248.746    24428.817     4461.195        9.111        2.757      356.370       61.919        0.030      340.766       15.009      867.185
01/18/2015  16:34:00     -303.427      -34.584       -7.296      270.616      120.057       84.185    73233.284    14413.610     7087.038        9.401        4.737      305.392      126.508        0.172      340.762       15.003      867.144
01/18/2015  16:35:00     -217.267     -179.005        5.903      173.374      162.306       86.863    30058.430    26343.379     7545.108        7.160        3.197      281.510       99.973        0.126      340.759       14.998      867.116
01/18/2015  16:36:00     -293.640     -180.344       -5.823      203.018      110.980       83.431    41216.268    12316.505     6960.713        8.963        3.025      344.599       91.097        0.070      340.747       14.978      867.121
01/18/2015  16:37:00     -223.056      -82.946        4.354      163.015      135.223       73.741    26573.920    18285.366     5437.726        5.347        2.515      237.979       95.915        0.162      340.747       14.979      867.126
01/18/2015  16:38:00     -207.840     -109.358       -8.006      127.371       70.163       50.063    16223.271     4922.784     2506.279        3.943        1.183      234.855       43.954        0.035      340.740       14.967      867.113
01/18/2015  16:39:00      -96.824     -145.430      -11.801       70.872       71.941       41.030     5022.859     5175.498     1683.452        2.127        0.594      174.713       30.437        0.030      340.762       15.006      867.107
01/18/2015  16:40:00     -243.525     -239.229        3.463      177.254      125.103       73.201    31418.992    15650.645     5358.369        8.448        2.621      341.372       80.638        0.056      340.745       14.974      867.073
01/18/2015  16:41:00     -276.965     -208.580      -10.276      170.887      129.468       83.195    29202.393    16762.005     6921.403        8.659        2.644      346.721      101.614        0.086      340.733       14.955      867.044
01/18/2015  16:42:00     -308.619     -208.280       -3.903      156.745      124.339       79.049    24569.147    15460.072     6248.727        9.245        2.314      372.326       90.081        0.059      340.706       14.909      867.027
01/18/2015  16:43:00     -298.250     -233.541       -8.818      152.603      140.858       88.749    23287.615    19840.911     7876.381        9.728        2.550      378.806       90.214        0.057      340.710       14.916      867.030
01/18/2015  16:44:00     -361.944     -258.998       -0.733      169.642      124.375       80.385    28778.309    15469.052     6461.784       12.439        2.535      445.066       94.619        0.045      340.692       14.884      867.026
01/18/2015  16:45:00     -277.157     -197.311        0.815      140.297      135.923       76.604    19683.314    18475.089     5868.140        7.988        2.201      340.217       79.248        0.054      340.689       14.879      867.038
01/18/2015  16:46:00     -264.128     -182.691       -6.643      189.350      141.002       90.568    35853.367    19881.553     8202.574        8.355        3.197      321.154      112.590        0.123      340.674       14.855      867.021
01/18/2015  16:47:00     -272.678     -100.915       -1.915      127.531      106.260       66.199    16264.094    11291.119     4382.328        5.823        1.597      290.753       70.048        0.058      340.672       14.850      867.009
01/18/2015  16:48:00     -260.091     -171.894        0.324      153.926      110.499       59.673    23693.206    12210.073     3560.901        6.832        1.973      311.761       55.081        0.031      340.674       14.854      866.989
01/18/2015  16:49:00     -221.417     -170.198        0.149      133.864      114.450       62.599    17919.593    13098.848     3918.629        5.646        1.747      279.272       68.477        0.060      340.645       14.807      866.947
01/18/2015  16:50:00     -217.036     -124.737       -1.407      139.352       84.695       52.215    19418.958     7173.235     2726.407        4.599        1.466      250.327       66.475        0.071      340.651       14.818      866.951
01/18/2015  16:51:00     -355.993     -262.196      -14.696      251.320      138.700       73.977    63161.816    19237.601     5472.619       14.177        4.394      442.129       86.451        0.038      340.638       14.793      866.931
01/18/2015  16:52:00     -336.728     -194.686        1.214      131.162      118.792       63.647    17203.439    14111.629     4050.995        9.332        1.768      388.958       58.730        0.023      340.615       14.754      866.926
01/18/2015  16:53:00     -154.537     -113.584       18.952      106.202       95.643       53.340    11278.841     9147.638     2845.148        3.020        1.164      191.789       54.666        0.081      340.596       14.724      866.905
01/18/2015  16:54:00     -152.689     -165.788       16.014      131.240       77.601       54.785    17223.929     6021.852     3001.443        3.865        1.312      225.387       60.409        0.072      340.596       14.721      866.898
01/18/2015  16:55:00     -251.307     -111.393      -25.890       92.622      121.455       64.673     8578.818    14751.384     4182.553        5.187        1.376      274.889       50.372        0.034      340.579       14.693      866.910
01/18/2015  16:56:00     -264.224     -149.530       -5.628      100.950       84.572       54.039    10190.863     7152.434     2920.179        5.623        1.013      303.601       47.724        0.025      340.565       14.671      866.919
01/18/2015  16:57:00     -170.009     -129.709       -0.712      117.475      107.174       55.827    13800.309    11486.253     3116.636        3.706        1.420      213.840       57.930        0.073      340.562       14.666      866.936
01/18/2015  16:58:00     -225.721     -148.511        4.511      155.583      126.976       80.597    24205.973    16122.884     6495.837        5.992        2.341      270.195       90.583        0.112      340.551       14.647      866.944
01/18/2015  16:59:00     -197.504     -139.104       -9.584      146.079       97.170       65.192    21339.187     9442.087     4249.957        4.673        1.752      241.573       67.466        0.078      340.559       14.660      866.961
01/18/2015  17:00:00     -171.797      -87.777        2.562      106.382       74.424       60.959    11317.103     5539.000     3716.046        2.890        1.029      192.923       59.471        0.095      340.526       14.606      866.979
01/18/2015  17:01:00     -329.097     -213.296       -6.142      193.272      142.067       77.503    37354.219    20183.050     6006.656       10.868        3.177      392.174       94.697        0.058      340.526       14.605      867.010
01/18/2015  17:02:00     -313.422     -239.080      -12.235      186.195      169.576      104.059    34668.729    28756.051    10828.205       11.489        3.713      394.198       92.608        0.055      340.514       14.584      867.034
01/18/2015  17:03:00     -284.908      -97.550       -2.410      134.907      140.365       71.357    18199.979    19702.299     5091.792        6.684        2.150      301.146       65.779        0.048      340.520       14.595      867.084
01/18/2015  17:04:00     -313.453      -78.151       -9.562      145.355       93.792       71.564    21128.049     8796.898     5121.407        6.974        1.752      323.049       72.860        0.051      340.495       14.551      867.106
01/18/2015  17:05:00     -248.123      -32.975      -16.177      131.594       86.876       56.403    17316.851     7547.382     3181.344        4.548        1.402      250.304       56.750        0.051      340.487       14.539      867.134
01/18/2015  17:06:00     -346.371     -224.689      -14.571      180.291      132.667       76.973    32504.950    17600.512     5924.821       11.334        2.802      412.866       91.990        0.050      340.483       14.531      867.132
01/18/2015  17:07:00     -203.128     -143.601        0.623      145.548      132.291       60.705    21184.097    17500.867     3685.055        5.212        2.119      248.761       57.707        0.054      340.469       14.508      867.134
01/18/2015  17:08:00     -189.636     -125.804       -8.971       97.167       87.776       45.126     9441.406     7704.626     2036.380        3.552        0.959      227.571       51.023        0.050      340.465       14.499      867.144
01/18/2015  17:09:00     -225.615     -112.564        3.939      134.003      104.742       57.290    17956.867    10970.978     3282.186        4.789        1.611      252.136       60.161        0.057      340.426       14.436      867.149
01/18/2015  17:10:00     -166.279      -31.914        1.374       89.531       80.135       47.918     8015.817     6421.575     2296.175        2.270        0.837      169.314       42.850        0.064      340.411       14.412      867.153
01/18/2015  17:11:00      -67.982      -54.415        4.079       62.408       67.859       31.166     3894.804     4604.897      971.302        0.853        0.474       87.078       30.782        0.125      340.413       14.418      867.154
01/18/2015  17:12:00     -159.033     -134.075        7.390      121.108      107.699       60.505    14667.044    11599.063     3660.795        3.662        1.496      208.009       63.035        0.092      340.406       14.403      867.119
01/18/2015  17:13:00     -247.912      -44.725       -8.700      148.249       76.947       50.094    21977.682     5920.791     2509.410        4.697        1.520      251.914       58.454        0.054      340.391       14.378      867.113
01/18/2015  17:14:00      -74.462      -63.969        9.874       99.971       78.833       39.230     9994.267     6214.597     1538.971        1.374        0.887       98.166       48.505        0.244      340.406       14.404      867.088
01/18/2015  17:15:00     -229.575        0.369       -2.394      101.383       94.817       46.893    10278.498     8990.301     2198.987        3.709        1.073      229.575       48.001        0.044      340.377       14.352      867.094
01/18/2015  17:16:00     -236.742     -147.659       -9.270      116.455      108.824       63.997    13561.675    11842.653     4095.593        5.371        1.475      279.016       69.219        0.062      340.405       14.398      867.111
01/18/2015  17:17:00     -205.655     -144.312       -2.236       93.883      136.155       47.943     8814.024    18538.229     2298.544        4.638        1.483      251.237       49.988        0.040      340.371       14.342      867.134
01/18/2015  17:18:00     -220.189     -157.902      -13.973      141.041       85.221       53.847    19892.533     7262.577     2899.538        5.183        1.503      270.954       51.865        0.037      340.388       14.371      867.150
01/18/2015  17:19:00     -246.791     -106.719      -13.498      116.386      110.431       58.699    13545.770    12194.936     3445.597        5.083        1.459      268.877       48.771        0.033      340.352       14.309      867.153
01/18/2015  17:20:00     -174.234     -196.811       -9.103      144.525      118.320       70.926    20887.362    13999.649     5030.542        5.454        1.996      262.854       80.780        0.094      340.372       14.344      867.175
01/18/2015  17:21:00     -266.516     -119.994       -7.277      176.256      150.842       77.677    31066.138    22753.380     6033.794        7.266        2.993      292.283       79.467        0.074      340.376       14.350      867.151
01/18/2015  17:22:00     -314.058     -152.387       -1.447      192.115      127.076       70.476    36908.062    16148.397     4966.856        8.993        2.901      349.077       81.799        0.055      340.379       14.356      867.168
01/18/2015  17:23:00     -262.326     -123.405      -10.375      127.495      110.120       49.783    16255.037    12126.350     2478.322        5.750        1.543      289.903       58.162        0.040      340.364       14.332      867.202
01/18/2015  17:24:00     -393.774     -152.712       -8.522      194.896      131.965       75.532    37984.513    17414.847     5705.069       11.977        3.055      422.349       88.662        0.044      340.372       14.344      867.201
01/18/2015  17:25:00     -263.268      -96.267       -7.373      130.785       93.135       59.318    17104.744     8674.081     3518.667        5.396        1.465      280.317       67.067        0.057      340.350       14.307      867.222
01/18/2015  17:26:00     -215.429     -130.228       16.399      177.302      123.552       74.549    31436.175    15265.167     5557.509        5.794        2.613      251.732       81.472        0.105      340.356       14.318      867.237
01/18/2015  17:27:00     -376.336     -224.383       -7.064      164.544      135.621       75.739    27074.746    18393.180     5736.443       12.161        2.560      438.152       82.146        0.035      340.353       14.311      867.214
01/18/2015  17:28:00     -299.169     -199.267      -11.747      198.766      178.674       90.046    39508.111    31924.369     8108.302       10.443        3.977      359.457      109.198        0.092      340.363       14.328      867.225
01/18/2015  17:29:00     -482.894     -153.457      -11.139      176.141      181.285       85.990    31025.801    32864.100     7394.272       16.406        3.564      506.691       71.591        0.020      340.341       14.292      867.222
01/18/2015  17:30:00     -404.808     -101.998      -22.536      177.914      147.200       80.477    31653.472    21667.708     6476.541       11.728        2.990      417.461       79.763        0.037      340.333       14.279      867.248
01/18/2015  17:31:00     -218.562      -91.781        8.361      160.909      124.533       77.863    25891.555    15508.475     6062.721        5.185        2.373      237.051       89.864        0.144      340.299       14.222      867.266
01/18/2015  17:32:00     -317.415     -184.120      -11.180      151.562      125.086       89.407    22970.917    15646.483     7993.618        9.069        2.331      366.950       68.416        0.035      340.312       14.241      867.247
01/18/2015  17:33:00     -285.496     -145.950      -16.344      189.914      143.766       87.475    36067.456    20668.538     7651.924        8.372        3.219      320.639      101.872        0.101      340.301       14.224      867.252
01/18/2015  17:34:00     -263.726     -136.386       -4.763      171.896      171.649       67.133    29548.239    29463.509     4506.813        7.584        3.176      296.905       69.770        0.055      340.313       14.244      867.236
01/18/2015  17:35:00     -443.699     -258.519      -41.204      148.006      135.218       80.263    21905.692    18283.930     6442.134       15.601        2.332      513.519       72.517        0.020      340.331       14.275      867.208
01/18/2015  17:36:00     -325.506     -185.056      -26.671      103.357      123.034       62.342    10682.629    15137.287     3886.547        8.530        1.485      374.433       49.679        0.018      340.313       14.244      867.187
01/18/2015  17:37:00     -261.149     -153.161       -0.654      165.706      199.066       82.086    27458.578    39627.197     6738.173        8.273        3.691      302.749       90.856        0.090      340.279       14.187      867.170
01/18/2015  17:38:00     -362.333     -297.981      -22.518      156.951      183.138       92.984    24633.728    33539.376     8646.011       14.369        3.341      469.124       95.784        0.042      340.280       14.189      867.148
01/18/2015  17:39:00     -351.979     -147.001       -2.294      228.928      181.770       84.456    52407.890    33040.222     7132.834       11.903        4.629      381.442      110.241        0.084      340.274       14.178      867.154
01/18/2015  17:40:00     -283.198     -106.849       11.014      201.803      130.249       90.899    40724.302    16964.721     8262.640        7.883        3.298      302.685      107.263        0.126      340.278       14.186      867.132
01/18/2015  17:41:00     -303.658     -153.810      -11.691      120.675      109.619       56.357    14562.542    12016.250     3176.068        7.287        1.488      340.390       50.033        0.022      340.271       14.173      867.142
01/18/2015  17:42:00     -308.669     -147.237      -29.836      184.176       98.665       68.301    33920.878     9734.790     4665.070        8.308        2.416      341.988       80.782        0.056      340.238       14.117      867.139
01/18/2015  17:43:00     -290.548      -47.741       -2.530      147.758       87.127       59.499    21832.460     7591.058     3540.105        5.983        1.648      294.444       69.470        0.056      340.241       14.122      867.132
01/18/2015  17:44:00     -351.628      -24.721      -11.052      187.066      145.669       64.366    34993.768    21219.570     4143.042        9.236        3.018      352.496       65.388        0.034      340.245       14.129      867.123
01/18/2015  17:45:00     -254.911     -152.297      -10.762      127.503      121.539       64.133    16257.091    14771.804     4113.091        6.171        1.757      296.941       59.056        0.040      340.201       14.055      867.087
01/18/2015  17:46:00     -318.018      -66.215       -3.509      132.907      118.222       62.448    17664.337    13976.532     3899.813        7.053        1.777      324.838       63.884        0.039      340.225       14.095      867.087
01/18/2015  17:47:00     -363.888      -52.558      -18.755      138.412      113.936       65.551    19157.790    12981.519     4296.931        8.598        1.822      367.664       62.394        0.029      340.212       14.071      867.064
01/18/2015  17:48:00     -275.304      -53.086      -13.256      144.643      101.562       72.435    20921.602    10314.814     5246.870        5.763        1.824      280.376       62.015        0.049      340.204       14.059      867.078
01/18/2015  17:49:00     -257.830      -80.012       -1.293      146.918      146.658       66.151    21584.960    21508.625     4375.982        6.017        2.373      269.960       65.305        0.059      340.182       14.023      867.082
01/18/2015  17:50:00     -186.275      -34.604       -0.267       81.094       83.264       49.947     6576.266     6932.922     2494.717        2.595        0.800      189.462       34.991        0.034      340.191       14.039      867.104
01/18/2015  17:51:00     -270.882       -9.658      -10.011      142.857      107.081       73.398    20408.017    11466.261     5387.308        5.541        1.863      271.054       83.128        0.094      340.165       13.993      867.151
01/18/2015  17:52:00     -262.955      -53.640       -7.079      153.439      172.060       97.164    23543.559    29604.750     9440.911        6.732        3.129      268.370       92.340        0.118      340.161       13.985      867.140
01/18/2015  17:53:00     -440.609     -174.324      -12.202      214.639      162.554       87.409    46069.756    26423.939     7640.336       15.239        4.007      473.840      111.034        0.055      340.197       14.046      867.181
01/18/2015  17:54:00     -342.684      -18.867      -25.286      205.133      143.084       82.143    42079.578    20473.166     6747.410        9.385        3.465      343.203       90.601        0.070      340.169       14.000      867.205
01/18/2015  17:55:00     -356.985     -101.768      -19.739      153.226      110.241       63.833    23478.065    12153.067     4074.667        8.894        1.985      371.208       62.070        0.028      340.174       14.009      867.226
01/18/2015  17:56:00     -468.408      -43.761      -18.086      186.775      135.619       76.134    34884.992    18392.390     5796.357       14.035        2.954      470.447       79.637        0.029      340.200       14.052      867.256
01/18/2015  17:57:00     -341.532       11.868      -22.957      187.240       84.129       65.298    35058.776     7077.683     4263.829        8.185        2.320      341.738       78.629        0.053      340.149       13.967      867.290
01/18/2015  17:58:00     -292.703      -81.932      -11.216      125.235      109.516       54.624    15683.865    11993.744     2983.778        6.158        1.533      303.954       57.995        0.036      340.134       13.941      867.269
01/18/2015  17:59:00     -272.492     -123.545       -6.902      126.819       97.173       73.913    16082.976     9442.593     5463.085        6.027        1.549      299.191       73.183        0.060      340.132       13.937      867.270
01/18/2015  18:00:00     -406.198      -82.461       -5.287      224.867      173.178       81.691    50565.337    29990.476     6673.482       12.951        4.361      414.483       95.345        0.053      340.119       13.916      867.290
01/18/2015  18:01:00     -323.498       38.744      -17.992      151.793      105.113       69.548    23041.140    11048.756     4836.949        7.269        1.946      325.810       73.236        0.051      340.116       13.911      867.317
01/18/2015  18:02:00     -466.748      -26.268      -22.858      138.141      195.523       70.643    19082.925    38229.202     4990.389       14.067        3.115      467.487       56.174        0.014      340.128       13.930      867.341
01/18/2015  18:03:00     -427.311      -43.751      -16.774      148.960      128.186       81.073    22189.001    16431.765     6572.908       11.498        2.260      429.545       86.371        0.040      340.153       13.972      867.346
01/18/2015  18:04:00     -387.034     -115.621       -1.338      170.056      123.933       76.902    28919.092    15359.482     5913.877       10.667        2.510      403.935       88.644        0.048      340.131       13.937      867.363
01/18/2015  18:05:00     -338.871     -125.744       -5.120      147.371      146.626       74.126    21718.274    21499.211     5494.604        8.968        2.436      361.449       80.399        0.049      340.099       13.883      867.400
01/18/2015  18:06:00     -451.837     -131.126       -6.474      195.824      125.756       73.913    38347.218    15814.595     5463.084       14.050        2.981      470.479       66.819        0.020      340.095       13.876      867.448
01/18/2015  18:07:00     -428.574     -117.491      -25.057      176.374      153.466       72.045    31107.709    23551.708     5190.449       12.897        2.992      444.387       84.368        0.036      340.120       13.917      867.465
01/18/2015  18:08:00     -272.476      -36.611      -20.204      142.195      102.903       63.675    20219.523    10588.989     4054.527        5.542        1.743      274.924       67.815        0.061      340.069       13.832      867.481
01/18/2015  18:09:00     -390.340      -58.640      -25.551      152.904      109.728       67.954    23379.578    12040.142     4617.697        9.824        2.002      394.720       75.038        0.036      340.057       13.810      867.503
01/18/2015  18:10:00     -539.295     -187.814      -31.109      164.395      148.857       84.641    27025.694    22158.400     7164.151       19.170        2.817      571.063       86.340        0.023      340.089       13.865      867.513
01/18/2015  18:11:00     -263.113      -54.135        7.105      207.142      157.490       78.799    42907.843    24803.100     6209.231        7.305        3.696      268.624       91.054        0.115      340.073       13.840      867.533
01/18/2015  18:12:00     -446.658      -96.050      -36.884      153.100      125.329       73.488    23439.578    15707.396     5400.429       12.731        2.227      456.869       82.392        0.033      340.083       13.854      867.557
01/18/2015  18:13:00     -438.761     -109.308      -24.392      126.035      102.127       71.016    15884.757    10429.876     5043.259       11.820        1.568      452.172       68.546        0.023      340.070       13.832      867.580
01/18/2015  18:14:00     -358.432     -125.725      -12.308      110.149       86.622       64.750    12132.855     7503.313     4192.533        8.413        1.191      379.843       64.964        0.029      340.049       13.797      867.606
01/18/2015  18:15:00     -351.865      -83.908      -18.282      139.193      143.441       66.339    19374.679    20575.416     4400.892        8.776        2.218      361.732       64.146        0.031      340.056       13.810      867.619
01/18/2015  18:16:00     -471.463      -97.923      -35.636      112.471      130.588       68.115    12649.751    17053.231     4639.622       13.373        1.717      481.525       63.604        0.017      340.070       13.833      867.614
01/18/2015  18:17:00     -433.082      -85.510      -14.230      168.113      139.566       67.446    28262.139    19478.799     4548.902       12.367        2.614      441.443       68.823        0.024      340.066       13.825      867.615
01/18/2015  18:18:00     -340.780     -130.977        5.075      157.062      136.726       73.566    24668.507    18693.884     5411.983        9.103        2.439      365.084       83.231        0.052      340.048       13.797      867.633
01/18/2015  18:19:00     -362.925      -48.926      -28.138      118.096       97.810       52.561    13946.760     9566.782     2762.695        8.058        1.314      366.208       53.588        0.021      340.024       13.754      867.662
01/18/2015  18:20:00     -238.770      -73.503      -14.763      146.977      104.647       56.697    21602.274    10951.068     3214.598        4.919        1.788      249.828       60.979        0.060      340.023       13.756      867.669
01/18/2015  18:21:00     -270.513      -53.230      -20.746       84.281       96.235       52.600     7103.212     9261.236     2766.796        4.778        0.957      275.700       38.435        0.019      340.016       13.742      867.708
01/18/2015  18:22:00     -267.454      -18.363      -21.427       65.565       82.995       38.167     4298.729     6888.097     1456.698        4.248        0.632      268.084       35.675        0.018      339.997       13.710      867.720
01/18/2015  18:23:00     -285.006      -23.937      -18.068       98.299       85.301       49.221     9662.713     7276.213     2422.756        5.074        0.968      286.009       48.492        0.029      340.013       13.736      867.731
01/18/2015  18:24:00     -321.606     -124.354      -10.326      125.187       99.505       67.968    15671.900     9901.316     4619.676        7.459        1.510      344.811       72.460        0.044      340.017       13.743      867.755
01/18/2015  18:25:00     -266.871     -108.664       -0.597      107.909       93.954       56.322    11644.390     8827.336     3172.173        5.333        1.182      288.146       62.705        0.047      340.006       13.725      867.783
01/18/2015  18:26:00     -190.472     -108.857        1.446       90.309       88.373       48.601     8155.626     7809.851     2362.100        3.323        0.916      219.385       46.409        0.045      339.989       13.698      867.796
01/18/2015  18:27:00     -157.936      -71.535      -13.215       96.604       71.528       43.188     9332.251     5116.184     1865.170        2.327        0.816      173.382       41.975        0.059      339.995       13.708      867.807
01/18/2015  18:28:00     -239.526      -34.550      -16.333       82.531       80.194       42.241     6811.286     6431.043     1784.292        3.693        0.751      242.005       40.658        0.028      339.970       13.665      867.823
01/18/2015  18:29:00     -374.860      -60.426      -40.881       92.083       68.931       48.572     8479.272     4751.446     2359.201        8.071        0.779      379.698       43.529        0.013      339.987       13.692      867.825
01/18/2015  18:30:00     -128.115      -20.832      -12.066      116.088       56.332       36.542    13476.518     3173.249     1335.351        1.749        0.899      129.797       50.552        0.152      339.974       13.673      867.853
01/18/2015  18:31:00     -120.551      -37.227      -26.532       46.311       45.681       33.778     2144.722     2086.730     1140.925        1.100        0.269      126.168       23.921        0.036      339.913       13.570      867.879
01/18/2015  18:32:00     -159.736      -38.392      -14.629       80.411       53.841       34.736     6465.895     2898.895     1206.583        1.889        0.529      164.285       29.407        0.032      339.870       13.498      867.888
01/18/2015  18:33:00     -107.198       12.689      -12.280       71.104       45.603       32.242     5055.819     2079.672     1039.568        0.999        0.409      107.947       34.873        0.104      339.827       13.427      867.881
01/18/2015  18:34:00     -111.593      -27.706      -19.666       64.210       39.505       22.185     4122.923     1560.614      492.176        0.989        0.309      114.981       28.607        0.062      339.851       13.467      867.870
01/18/2015  18:35:00      -55.314       -0.563       -1.829       64.253       42.318       23.876     4128.403     1790.788      570.072        0.478        0.324       55.317       32.045        0.336      339.826       13.427      867.843
01/18/2015  18:36:00      -90.677       42.051      -17.957       48.168       40.686       27.369     2320.154     1655.348      749.071        0.752        0.236       99.953       26.725        0.071      339.790       13.367      867.815
01/18/2015  18:37:00      -42.344       30.102       -1.243       29.246       30.827       24.579      855.354      950.297      604.115        0.255        0.120       51.953       14.254        0.075      339.752       13.301      867.788
01/18/2015  18:38:00      -34.385       45.280       -9.125       23.397       36.651       15.540      547.409     1343.309      241.479        0.272        0.107       56.856        4.806        0.007      339.867       13.494      867.767
01/18/2015  18:39:00        2.600       94.424      -16.014       17.288       20.705       12.814      298.867      428.677      164.190        0.504        0.045       94.460        7.383        0.006      339.849       13.465      867.742
01/18/2015  18:40:00      -14.316       83.029       -5.128       37.024       40.502       24.217     1370.792     1640.376      586.439        0.536        0.180       84.254       25.355        0.091      339.858       13.480      867.728
01/18/2015  18:41:00      -60.489       97.859      -17.378       27.957       57.367       19.328      781.577     3290.935      373.588        0.899        0.222      115.045       19.488        0.029      339.939       13.616      867.722
01/18/2015  18:42:00      -30.967       13.302       -3.880       27.861       21.115       15.062      776.220      445.864      226.861        0.130        0.072       33.703       12.403        0.135      339.856       13.476      867.703
01/18/2015  18:43:00      -35.573       14.750      -13.002       28.553       21.704       11.836      815.297      471.044      140.086        0.154        0.071       38.510       13.318        0.120      339.957       13.647      867.682
01/18/2015  18:44:00       -3.858       39.847        3.093       13.152       28.828       13.600      172.965      831.044      184.955        0.140        0.059       40.033       17.180        0.184      339.910       13.567      867.664
01/18/2015  18:45:00       25.345       81.329       -9.191       15.650       24.383       22.933      244.909      594.546      525.923        0.435        0.068       85.187       14.271        0.028      339.929       13.599      867.662
01/18/2015  18:46:00       -2.953       64.892       -7.522       15.906       28.245       18.097      252.985      797.808      327.508        0.283        0.069       64.959       17.439        0.072      340.000       13.717      867.643
01/18/2015  18:47:00       38.482       21.400       13.938       44.131       20.137       14.220     1947.520      405.482      202.222        0.234        0.128       44.032        8.346        0.036      339.884       13.521      867.643
01/18/2015  18:48:00       60.762       40.188       20.449       22.527       30.632       24.247      507.445      938.318      587.938        0.388        0.102       72.850       12.761        0.031      339.824       13.422      867.637
01/18/2015  18:49:00       16.271      -18.043       -8.454       15.725       30.753       12.878      247.283      945.749      165.845        0.101        0.068       24.296        9.359        0.148      339.893       13.539      867.638
01/18/2015  18:50:00      -22.204      -15.349       -0.414       21.051       17.236       13.185      443.163      297.077      173.836        0.082        0.046       26.993       14.059        0.271      339.963       13.658      867.627
01/18/2015  18:51:00       -9.470       -1.790        8.196       21.872       15.857       12.564      478.402      251.449      157.847        0.052        0.044        9.637       12.808        1.766      339.916       13.576      867.607
01/18/2015  18:52:00       -3.463       39.334       50.524       26.368       21.920       26.587      695.294      480.469      706.856        0.300        0.094       39.486       23.022        0.340      339.898       13.548      867.592
01/18/2015  18:53:00       -7.912       47.142       72.609       11.323       32.870       18.144      128.211     1080.435      329.196        0.455        0.077       47.802       21.121        0.195      339.945       13.628      867.576
01/18/2015  18:54:00       16.535      -88.234       -1.611       43.519       49.498       32.774     1893.946     2450.098     1074.141        0.674        0.271       89.770       34.261        0.146      340.003       13.724      867.599
01/18/2015  18:55:00        9.639       10.220       34.189       24.941       59.038       41.522      622.076     3485.449     1724.085        0.360        0.292       14.048       43.575        9.621      340.031       13.771      867.613
01/18/2015  18:56:00      120.346      117.100       71.998       79.253       35.168       40.837     6280.979     1236.820     1667.630        2.128        0.459      167.915       51.499        0.094      339.973       13.674      867.610
01/18/2015  18:57:00       53.889       78.212       79.711       88.469       64.643       45.330     7826.702     4178.682     2054.809        1.472        0.703       94.980       50.496        0.283      339.889       13.531      867.588
01/18/2015  18:58:00      -12.351       17.745       56.113       14.938       29.304       23.286      223.156      858.725      542.260        0.262        0.081       21.620       20.920        0.936      339.916       13.578      867.612
01/18/2015  18:59:00        5.124      -52.791       -2.146       47.335       31.777       17.476     2240.609     1009.780      305.400        0.319        0.178       53.039       17.218        0.105      339.916       13.577      867.641
01/18/2015  19:00:00      -78.649      -73.350       -5.834       63.254       60.385       32.984     4001.053     3646.289     1087.922        1.017        0.437      107.545       28.518        0.070      340.030       13.769      867.636
01/18/2015  19:01:00     -175.588      -76.390       -7.315       92.233       89.317       41.921     8506.904     7977.536     1757.385        2.748        0.912      191.485       33.669        0.031      339.996       13.708      867.615
01/18/2015  19:02:00     -214.988      -58.506      -11.103      100.310       89.950       44.837    10062.148     8090.921     2010.362        3.496        1.008      222.806       41.860        0.035      339.980       13.683      867.616
01/18/2015  19:03:00     -226.377      -82.510       -2.362      122.364      114.027       56.412    14972.851    13002.134     3182.260        4.460        1.558      240.945       61.333        0.065      339.964       13.658      867.617
01/18/2015  19:04:00     -194.299      -86.430        1.927      135.794       87.012       43.166    18440.017     7571.097     1863.321        3.655        1.394      212.655       49.842        0.055      339.952       13.636      867.648
01/18/2015  19:05:00     -255.448     -109.385      -16.817       69.824       66.510       41.503     4875.370     4423.599     1722.511        4.426        0.551      277.883       36.053        0.017      339.947       13.623      867.646
01/18/2015  19:06:00     -133.872     -128.206        3.802      128.144       91.268       59.300    16420.882     8329.819     3516.532        3.132        1.413      185.361       72.842        0.154      339.965       13.659      867.622
01/18/2015  19:07:00     -200.885      -41.093      -16.791       55.950       60.366       36.389     3130.382     3644.096     1324.147        2.521        0.405      205.045       29.570        0.021      339.931       13.602      867.634
01/18/2015  19:08:00     -223.987      -77.002       -9.702       74.232       65.486       43.872     5510.443     4288.473     1924.724        3.396        0.586      236.853       34.456        0.021      339.889       13.527      867.631
01/18/2015  19:09:00     -236.956      -21.770      -13.838       86.567       87.588       45.138     7493.871     7671.604     2037.408        3.701        0.860      237.954       42.733        0.032      339.838       13.441      867.655
01/18/2015  19:10:00     -207.728      -37.166       -5.860       74.579       71.507       44.182     5562.069     5113.182     1952.047        2.859        0.631      211.026       37.618        0.032      339.834       13.437      867.658
01/18/2015  19:11:00     -381.821      -52.670      -40.149      161.769      112.753       63.311    26169.350    12713.269     4008.243        9.653        2.145      385.437       62.900        0.027      339.899       13.545      867.683
01/18/2015  19:12:00     -223.760       79.522      -24.363       99.965       95.118       45.202     9992.950     9047.392     2043.214        3.903        1.054      237.471       42.236        0.032      339.841       13.447      867.663
01/18/2015  19:13:00     -171.692      -72.373      -10.168       65.678       78.512       38.058     4313.539     6164.136     1448.397        2.337        0.596      186.323       32.769        0.031      339.833       13.433      867.667
01/18/2015  19:14:00     -291.559      -38.471      -26.187       87.723       98.702       42.526     7695.350     9742.181     1808.432        5.321        0.962      294.086       32.689        0.012      339.790       13.362      867.685
01/18/2015  19:15:00     -308.553      -74.526      -23.248      105.308       92.218       62.762    11089.739     8504.219     3939.089        6.241        1.177      317.425       42.577        0.018      339.848       13.460      867.683
01/18/2015  19:16:00     -374.696       58.229      -33.272      144.082      191.703       76.059    20759.567    36750.147     5785.035       10.408        3.165      379.194       62.847        0.027      339.787       13.355      867.721
01/18/2015  19:17:00     -271.385       28.765      -28.976      106.032       51.534       34.025    11242.748     2655.748     1157.717        4.518        0.753      272.905       41.441        0.023      339.735       13.271      867.728
01/18/2015  19:18:00     -144.760       -1.715       -1.654       44.237       48.848       33.144     1956.933     2386.154     1098.516        1.320        0.272      144.770       21.903        0.023      339.674       13.169      867.722
01/18/2015  19:19:00     -211.788      -84.381      -28.402       67.831       48.584       26.602     4601.079     2360.360      707.683        3.022        0.383      227.979       11.956        0.003      339.610       13.059      867.740
01/18/2015  19:20:00     -266.233      -44.897      -22.942       90.717       68.753       48.836     8229.547     4727.022     2384.932        4.438        0.767      269.992       47.444        0.031      339.704       13.218      867.739
01/18/2015  19:21:00     -225.224      -15.653      -24.230      123.066       64.585       36.474    15145.236     4171.284     1330.372        3.610        1.032      225.768       44.635        0.039      339.601       13.044      867.753
01/18/2015  19:22:00     -109.893        7.671        9.451       69.177       47.855       42.302     4785.452     2290.116     1789.493        1.054        0.443      110.161       38.427        0.122      339.609       13.058      867.750
01/18/2015  19:23:00     -151.358      -35.298       -8.847       61.299       77.418       39.439     3757.627     5993.506     1555.415        1.777        0.565      155.419       31.169        0.040      339.532       12.929      867.771
01/18/2015  19:24:00     -198.717       -3.317      -26.012       78.770       98.122       42.461     6204.727     9628.010     1802.952        2.890        0.882      198.744       34.398        0.030      339.554       12.962      867.788
01/18/2015  19:25:00     -243.691      -64.348      -14.151       75.357       85.305       46.283     5678.667     7276.941     2142.113        3.941        0.755      252.043       33.755        0.018      339.507       12.882      867.801
01/18/2015  19:26:00     -204.088      -43.463       -5.454       92.824       67.581       41.481     8616.311     4567.236     1720.641        2.923        0.745      208.665       36.912        0.031      339.454       12.794      867.807
01/18/2015  19:27:00     -193.552       60.301      -29.191       83.050       94.716       47.088     6897.366     8971.132     2217.321        3.002        0.904      202.728       30.114        0.022      339.488       12.851      867.823
01/18/2015  19:28:00     -204.008       93.092      -51.026      102.910       64.841       43.678    10590.554     4204.382     1907.782        3.479        0.835      224.244       35.982        0.026      339.532       12.928      867.837
01/18/2015  19:29:00     -220.031       51.106      -32.156      117.821       68.856       66.594    13881.727     4741.091     4434.821        3.755        1.153      225.888       66.083        0.086      339.553       12.962      867.847
01/18/2015  19:30:00     -178.235       -3.374      -44.460       96.001       99.208       57.994     9216.255     9842.321     3363.352        2.809        1.121      178.267       52.223        0.086      339.529       12.922      867.847
01/18/2015  19:31:00     -308.459       57.383      -45.361      123.418      151.291       65.054    15232.108    22889.040     4232.054        7.142        2.118      313.751       50.522        0.026      339.550       12.958      867.867
01/18/2015  19:32:00     -349.802      -72.474      -21.262      110.278      119.758       67.050    12161.252    14341.881     4495.716        7.953        1.550      357.231       63.534        0.032      339.532       12.925      867.891
01/18/2015  19:33:00     -284.566      -93.780      -23.815       98.413       94.783       68.284     9685.206     8983.772     4662.718        5.683        1.167      299.621       48.000        0.026      339.561       12.976      867.897
01/18/2015  19:34:00     -290.033      -90.790      -16.501      133.860       92.129       71.116    17918.424     8487.797     5057.543        6.204        1.573      303.911       75.845        0.062      339.569       12.990      867.897
01/18/2015  19:35:00     -319.143      -83.106      -21.001      100.614      115.336       59.381    10123.120    13302.410     3526.046        6.807        1.348      329.786       44.052        0.018      339.576       13.003      867.910
01/18/2015  19:36:00     -228.597      -33.706      -35.545       72.223       81.109       57.617     5216.146     6578.734     3319.719        3.488        0.756      231.069       32.368        0.020      339.579       13.007      867.899
01/18/2015  19:37:00     -253.936      -69.850      -26.470       80.285      135.378       53.370     6445.617    18327.160     2848.379        4.884        1.381      263.368       41.183        0.024      339.605       13.050      867.869
01/18/2015  19:38:00     -395.977     -106.207      -29.010      118.704      151.373       64.696    14090.526    22913.814     4185.636       10.505        2.059      409.973       52.530        0.016      339.674       13.165      867.855
01/18/2015  19:39:00     -268.535     -108.240       -3.442      140.672      116.478       65.569    19788.490    13567.156     4299.340        6.074        1.883      289.529       57.885        0.040      339.721       13.247      867.843
01/18/2015  19:40:00     -350.788      -51.710      -18.406      127.875      112.021       66.462    16351.980    12548.624     4417.195        7.969        1.666      354.579       62.345        0.031      339.714       13.232      867.874
01/18/2015  19:41:00     -374.041      -81.612      -19.882      109.879       81.339       50.768    12073.400     6615.974     2577.439        8.411        1.063      382.841       49.001        0.016      339.721       13.245      867.865
01/18/2015  19:42:00     -358.303     -107.506      -28.535      116.344       90.954       59.978    13535.873     8272.595     3597.411        8.307        1.270      374.083       58.056        0.024      339.685       13.183      867.856
01/18/2015  19:43:00     -302.771      -67.359      -15.414      145.476      113.634       55.716    21163.142    12912.676     3104.231        6.681        1.859      310.174       57.479        0.034      339.690       13.193      867.854
01/18/2015  19:44:00     -392.021      -37.096      -24.039      151.875       99.955       70.174    23065.888     9990.943     4924.434        9.680        1.899      393.773       78.137        0.039      339.747       13.289      867.843
01/18/2015  19:45:00     -313.672      -57.092      -32.744      103.389       75.268       50.170    10689.221     5665.215     2517.039        6.079        0.944      318.826       39.519        0.015      339.722       13.249      867.818
01/18/2015  19:46:00     -290.601      -52.120      -38.039       97.157       93.744       47.793     9439.406     8788.005     2284.205        5.456        1.026      295.237       29.515        0.010      339.702       13.213      867.794
01/18/2015  19:47:00     -413.562     -105.270      -27.617      114.783       98.759       62.612    13175.130     9753.264     3920.249       10.486        1.342      426.750       63.508        0.022      339.726       13.255      867.783
01/18/2015  19:48:00     -409.942     -128.381      -16.618      101.480       81.531       52.863    10298.287     6647.307     2794.497       10.227        0.987      429.574       49.717        0.013      339.718       13.241      867.773
01/18/2015  19:49:00     -357.829      -54.179      -13.736      150.119      133.540       68.863    22535.566    17832.891     4742.133        8.813        2.256      361.907       75.663        0.044      339.707       13.221      867.776
01/18/2015  19:50:00     -342.190      -84.210      -32.101      101.863       84.351       54.794    10376.134     7115.124     3002.380        7.285        1.025      352.399       51.911        0.022      339.717       13.239      867.767
01/18/2015  19:51:00     -364.928      -24.644      -27.061      103.540       97.012       51.855    10720.572     9411.365     2688.947        7.866        1.141      365.759       50.408        0.019      339.705       13.218      867.787
01/18/2015  19:52:00     -324.875     -136.162      -11.506      113.881       94.736       63.456    12968.947     8974.966     4026.697        7.509        1.299      352.256       69.404        0.039      339.704       13.218      867.764
01/18/2015  19:53:00     -370.214      -80.428       -7.782      152.496      143.224       68.940    23254.934    20513.142     4752.767        9.605        2.426      378.850       79.881        0.044      339.702       13.216      867.766
01/18/2015  19:54:00     -359.894      -57.419      -22.410      157.821      120.395       77.901    24907.414    14494.879     6068.634        8.939        2.274      364.446       83.666        0.053      339.735       13.271      867.758
01/18/2015  19:55:00     -363.172      -67.640      -22.860      154.435      138.058       69.397    23850.036    19059.911     4815.970        9.235        2.386      369.417       68.982        0.035      339.764       13.319      867.762
01/18/2015  19:56:00     -457.496     -126.552      -34.869      146.268      112.648       77.717    21394.442    12689.487     6039.871       13.332        2.006      474.676       78.904        0.028      339.783       13.350      867.770
01/18/2015  19:57:00     -382.363     -177.625      -14.788      112.500      113.040       61.039    12656.182    12778.037     3725.796       10.356        1.458      421.607       40.243        0.009      339.795       13.370      867.757
01/18/2015  19:58:00     -456.542     -175.490      -33.626      136.855      111.837       70.384    18729.311    12507.517     4953.853       13.827        1.810      489.109       67.563        0.019      339.792       13.365      867.756
01/18/2015  19:59:00     -384.065      -98.683       -8.048      105.704      107.312       58.918    11173.325    11515.910     3471.294        9.173        1.308      396.541       55.156        0.019      339.754       13.301      867.776
01/18/2015  20:00:00     -338.605      -53.274      -15.854      164.073      100.341       70.192    26919.873    10068.292     4926.954        7.982        2.096      342.771       65.634        0.037      339.742       13.281      867.790
01/18/2015  20:01:00     -329.891      -61.689      -13.972      135.187       89.002       59.565    18275.591     7921.289     3547.961        7.128        1.487      335.610       53.379        0.025      339.705       13.218      867.817
01/18/2015  20:02:00     -283.989       -8.187       -3.757      109.389       99.322       57.341    11965.968     9864.788     3288.015        5.292        1.256      284.107       60.814        0.046      339.672       13.162      867.838
01/18/2015  20:03:00     -268.794      -50.452       -0.250      109.536       91.038       55.818    11998.161     8287.895     3115.671        4.909        1.170      273.488       52.350        0.037      339.665       13.151      867.852
01/18/2015  20:04:00     -340.895      -73.364      -12.963      104.731      114.266       51.311    10968.531    13056.639     2632.870        7.420        1.333      348.700       54.006        0.024      339.673       13.164      867.845
01/18/2015  20:05:00     -316.197      -79.801      -12.717       85.743       75.573       48.215     7351.905     5711.205     2324.652        6.095        0.769      326.112       39.610        0.015      339.641       13.109      867.840
01/18/2015  20:06:00     -216.363      -30.761       -8.141      108.654       74.814       48.051    11805.733     5597.177     2308.923        3.377        0.986      218.538       50.715        0.054      339.623       13.080      867.815
01/18/2015  20:07:00     -285.188       -5.599      -24.406      100.971       80.286       45.715    10195.163     6445.803     2089.875        5.034        0.937      285.243       47.779        0.028      339.645       13.116      867.807
01/18/2015  20:08:00     -367.121      -47.791      -17.881      120.220      125.992       62.598    14452.797    15873.906     3918.572        8.581        1.712      370.219       63.910        0.030      339.707       13.221      867.808
01/18/2015  20:09:00     -347.818      -88.818      -14.773       89.701       81.467       50.421     8046.295     6636.803     2542.240        7.315        0.861      358.979       45.687        0.016      339.659       13.140      867.816
01/18/2015  20:10:00     -395.365      -52.844      -12.675      125.188      120.257       62.868    15671.949    14461.849     3952.416        9.667        1.704      398.881       59.225        0.022      339.644       13.115      867.850
01/18/2015  20:11:00     -369.965      -77.378      -31.941      140.024      118.004       61.670    19606.859    13924.973     3803.135        9.060        1.867      377.970       72.650        0.037      339.735       13.269      867.870
01/18/2015  20:12:00     -331.877      -64.448       -3.061      125.302      121.904       56.358    15700.634    14860.509     3176.235        7.402        1.687      338.077       59.174        0.031      339.697       13.205      867.891
01/18/2015  20:13:00     -292.993     -104.726        0.838      136.838       84.728       56.705    18724.570     7178.761     3215.513        6.296        1.456      311.147       66.188        0.045      339.695       13.202      867.907
01/18/2015  20:14:00     -342.914      -52.077      -10.158      124.496       78.387       60.949    15499.358     6144.511     3714.750        7.288        1.268      346.846       59.289        0.029      339.678       13.172      867.924
01/18/2015  20:15:00     -331.431      -88.235       -4.714      122.043       90.308       58.696    14894.436     8155.505     3445.203        7.207        1.325      342.975       61.983        0.033      339.717       13.239      867.899
01/18/2015  20:16:00     -285.428      -70.657      -11.371       83.652       73.052       45.230     6997.707     5336.633     2045.794        5.048        0.719      294.043       42.591        0.021      339.643       13.112      867.874
01/18/2015  20:17:00     -199.326      -34.949       -4.199       68.290       65.470       36.993     4663.546     4286.268     1368.509        2.564        0.516      202.366       29.472        0.021      339.591       13.026      867.846
01/18/2015  20:18:00     -143.695      -49.303       -8.779       71.291       57.718       35.075     5082.432     3331.425     1230.280        1.640        0.482      151.917       27.542        0.033      339.598       13.040      867.812
01/18/2015  20:19:00     -286.182      -28.593      -10.888       84.846       56.231       46.956     7198.767     3161.927     2204.867        4.770        0.628      287.607       49.706        0.030      339.609       13.055      867.811
01/18/2015  20:20:00     -242.880      -26.494      -10.860       86.499       83.499       47.205     7482.090     6972.005     2228.347        3.824        0.834      244.321       48.864        0.040      339.603       13.048      867.817
01/18/2015  20:21:00     -311.195      -38.600      -15.558       91.560       64.865       39.005     8383.196     4207.492     1521.425        5.634        0.706      313.580       38.320        0.015      339.634       13.098      867.833
01/18/2015  20:22:00     -324.986        5.626      -15.833      109.985       64.108       52.672    12096.784     4109.873     2774.366        6.244        0.949      325.035       63.181        0.038      339.675       13.168      867.833
01/18/2015  20:23:00     -226.000      -29.321      -14.603       87.221       73.437       43.705     7607.531     5392.984     1910.116        3.353        0.746      227.894       46.574        0.042      339.631       13.093      867.837
01/18/2015  20:24:00     -278.016      -63.335      -10.237      102.489       86.896       53.036    10503.921     7550.951     2812.832        5.113        1.043      285.139       57.032        0.040      339.591       13.025      867.832
01/18/2015  20:25:00     -160.431      -44.298       -4.477       73.496       84.395       39.373     5401.669     7122.526     1550.231        2.090        0.704      166.435       33.053        0.039      339.565       12.983      867.808
01/18/2015  20:26:00     -174.262     -107.045       -8.686      108.537       78.617       49.034    11780.328     6180.670     2404.374        3.113        1.018      204.514       48.986        0.057      339.549       12.955      867.773
01/18/2015  20:27:00     -218.941     -106.369       -7.765       57.983       53.844       38.874     3362.021     2899.154     1511.207        3.354        0.389      243.412       31.169        0.016      339.535       12.931      867.745
01/18/2015  20:28:00     -183.985     -109.796       -8.844       96.807       73.396       44.052     9371.529     5386.942     1940.587        3.134        0.835      214.256       48.765        0.052      339.539       12.938      867.728
01/18/2015  20:29:00     -241.381     -110.667      -13.414       81.834       71.427       41.835     6696.822     5101.813     1750.152        4.212        0.677      265.541       28.341        0.011      339.547       12.951      867.735
01/18/2015  20:30:00     -252.186      -78.472      -11.560      118.044       90.441       53.515    13934.454     8179.556     2863.845        4.743        1.249      264.113       62.984        0.057      339.551       12.959      867.747
01/18/2015  20:31:00     -286.861      -23.602       -8.940       88.797       81.544       51.414     7884.931     6649.455     2643.431        5.005        0.859      287.830       45.509        0.025      339.541       12.943      867.758
01/18/2015  20:32:00     -278.438      -75.504       -8.938      133.282       92.626       53.866    17764.208     8579.647     2901.577        5.627        1.462      288.494       63.099        0.048      339.507       12.884      867.744
01/18/2015  20:33:00     -268.710      -69.683       -2.601      107.867       88.860       44.461    11635.351     7896.187     1976.738        4.928        1.075      277.599       43.468        0.025      339.496       12.866      867.738
01/18/2015  20:34:00     -340.709      -30.037      -30.262      102.133       91.660       52.808    10431.232     8401.476     2788.672        6.976        1.081      342.031       55.080        0.026      339.504       12.879      867.712
01/18/2015  20:35:00     -290.389      -73.784       -9.270      151.616      128.362       60.714    22987.536    16476.825     3686.241        6.650        2.158      299.616       61.286        0.042      339.508       12.887      867.707
01/18/2015  20:36:00     -306.693     -129.597        4.803      117.394       81.183       55.982    13781.359     6590.691     3133.932        6.719        1.175      332.950       59.253        0.032      339.534       12.930      867.725
01/18/2015  20:37:00     -348.088     -100.083       -7.742      164.106      111.791       60.881    26930.626    12497.168     3706.523        8.718        2.157      362.190       78.733        0.047      339.475       12.830      867.756
01/18/2015  20:38:00     -333.112      -72.023      -10.825      140.234       91.903       66.511    19665.680     8446.132     4423.673        7.440        1.627      340.809       64.155        0.035      339.452       12.793      867.761
01/18/2015  20:39:00     -458.522      -57.456      -38.277      123.495      126.703       66.436    15251.053    16053.775     4413.677       12.536        1.786      462.108       62.065        0.018      339.505       12.880      867.739
01/18/2015  20:40:00     -317.598      -78.591      -10.609      111.885      106.646       57.462    12518.364    11373.438     3301.893        6.717        1.360      327.177       58.979        0.032      339.463       12.810      867.733
01/18/2015  20:41:00     -305.985      -49.110       -9.459      165.973      102.483       69.225    27546.912    10502.716     4792.100        6.948        2.142      309.901       76.064        0.060      339.444       12.778      867.709
01/18/2015  20:42:00     -289.532      -49.208      -18.566      115.073       99.502       50.257    13241.695     9900.660     2525.756        5.613        1.283      293.684       56.775        0.037      339.436       12.765      867.701
01/18/2015  20:43:00     -316.244      -36.257      -18.065      120.631       87.404       53.280    14551.826     7639.464     2838.797        6.334        1.252      318.315       53.572        0.028      339.424       12.744      867.702
01/18/2015  20:44:00     -304.509      -71.854       -4.314      120.500      110.455       58.224    14520.229    12200.235     3390.055        6.400        1.506      312.871       52.443        0.028      339.424       12.744      867.699
01/18/2015  20:45:00     -443.069     -127.420      -15.311      137.007      104.071       69.750    18771.043    10830.750     4865.030       12.362        1.723      461.027       73.199        0.025      339.448       12.784      867.707
01/18/2015  20:46:00     -354.472      -39.291      -17.706      131.320      118.691       69.728    17244.920    14087.500     4862.016        8.184        1.810      356.642       71.140        0.040      339.464       12.811      867.723
01/18/2015  20:47:00     -337.978      -45.671        6.564      174.059       98.355       73.050    30296.573     9673.636     5336.311        8.082        2.265      341.050       86.893        0.065      339.444       12.780      867.732
01/18/2015  20:48:00     -335.195      -69.123        1.109      187.472      116.891       80.983    35145.804    13663.585     6558.297        8.624        2.768      342.248       97.686        0.081      339.481       12.841      867.757
01/18/2015  20:49:00     -285.311     -136.047       -9.213      135.095      102.128       63.905    18250.776    10430.215     4083.816        6.637        1.638      316.087       65.760        0.043      339.548       12.954      867.764
01/18/2015  20:50:00     -251.026      -58.874       -7.712      138.451      110.185       63.153    19168.576    12140.750     3988.290        5.091        1.765      257.837       58.425        0.051      339.496       12.866      867.761
01/18/2015  20:51:00     -246.657      -61.403      -12.903      130.251      109.795       53.173    16965.287    12054.859     2827.326        4.831        1.592      254.185       65.791        0.067      339.504       12.879      867.747
01/18/2015  20:52:00     -296.863      -16.668       -4.514      116.315       94.996       62.059    13529.101     9024.173     3851.372        5.741        1.320      297.331       45.384        0.023      339.394       12.694      867.739
01/18/2015  20:53:00     -325.330      -41.831       -7.328      115.052      103.657       50.301    13236.889    10744.804     2530.163        6.707        1.326      328.008       49.637        0.023      339.344       12.609      867.744
01/18/2015  20:54:00     -205.836      -15.978        1.555       97.163       78.023       54.532     9440.631     6087.652     2973.723        3.056        0.925      206.455       57.910        0.079      339.328       12.584      867.728
01/18/2015  20:55:00     -256.593     -136.565       -9.506      137.831      119.016       50.988    18997.476    14164.728     2599.799        6.017        1.788      290.672       64.600        0.049      339.425       12.746      867.749
01/18/2015  20:56:00     -353.888      -46.314       -9.365      143.533       91.044       59.652    20601.777     8288.979     3558.303        7.995        1.622      356.906       65.001        0.033      339.358       12.632      867.754
01/18/2015  20:57:00     -212.742      -17.278       -2.286      135.448       94.998       59.214    18346.064     9024.666     3506.250        3.821        1.544      213.442       63.724        0.089      339.302       12.539      867.745
01/18/2015  20:58:00     -193.581      -48.276        1.447      109.450      100.962       53.121    11979.296    10193.249     2821.876        3.240        1.250      199.510       50.626        0.064      339.278       12.499      867.710
01/18/2015  20:59:00     -207.136      -62.086      -12.210       99.135       61.307       43.858     9827.783     3758.531     1923.546        3.121        0.775      216.241       48.782        0.051      339.278       12.498      867.687
01/18/2015  21:00:00     -253.945      -74.198      -20.154       82.651       73.625       51.413     6831.219     5420.598     2643.293        4.264        0.745      264.563       39.426        0.022      339.293       12.523      867.688
01/18/2015  21:01:00     -245.817      -38.985       -7.894       98.663       84.552       54.502     9734.359     7149.063     2970.466        4.093        0.993      248.889       55.833        0.050      339.238       12.433      867.715
01/18/2015  21:02:00     -270.858      -81.998       -6.985      148.536       71.963       51.559    22062.897     5178.734     2658.292        5.501        1.495      282.998       62.765        0.049      339.261       12.470      867.728
01/18/2015  21:03:00     -282.941      -73.682       -5.485      137.568       80.283       56.756    18925.088     6445.339     3221.189        5.705        1.430      292.377       71.498        0.060      339.268       12.482      867.711
01/18/2015  21:04:00     -288.573      -83.648      -13.658      113.250       93.627       59.460    12825.517     8765.994     3535.482        5.779        1.256      300.452       52.679        0.031      339.292       12.521      867.681
01/18/2015  21:05:00     -290.401      -94.965      -16.936      131.690       96.523       45.111    17342.151     9316.666     2035.023        6.116        1.435      305.534       49.082        0.026      339.323       12.573      867.650
01/18/2015  21:06:00     -256.804      -72.215        0.909      115.111       95.562       54.012    13250.553     9132.155     2917.301        4.823        1.265      266.765       54.004        0.041      339.341       12.605      867.633
01/18/2015  21:07:00     -131.293      -41.009        4.873       94.603       79.724       47.469     8949.687     6355.860     2253.323        1.825        0.878      137.548       45.093        0.107      339.329       12.586      867.621
01/18/2015  21:08:00     -248.581     -151.736        2.732      140.733      111.967       61.519    19805.741    12536.529     3784.602        6.047        1.806      291.232       54.553        0.035      339.392       12.691      867.603
01/18/2015  21:09:00     -421.463      -80.487      -21.989      167.678      141.500       84.328    28115.849    20022.298     7111.188       11.991        2.762      429.079       81.639        0.036      339.475       12.830      867.578
01/18/2015  21:10:00     -258.659     -115.293      -21.109      179.797       98.457       70.218    32327.088     9693.821     4930.622        6.379        2.348      283.191       78.038        0.076      339.497       12.868      867.562
01/18/2015  21:11:00     -210.200      -42.299       -5.420       83.431       65.758       44.482     6960.667     4324.127     1978.663        2.963        0.663      214.414       36.707        0.029      339.454       12.795      867.568
01/18/2015  21:12:00     -137.788       -0.164       12.086      117.598       68.714       48.289    13829.316     4721.648     2331.833        2.000        1.044      137.788       61.175        0.197      339.378       12.669      867.550
01/18/2015  21:13:00     -350.925      -19.247      -19.239      119.618      142.199       64.043    14308.448    20220.502     4101.463        8.125        1.932      351.453       57.372        0.027      339.453       12.794      867.518
01/18/2015  21:14:00     -313.996      -13.232      -20.836      116.316      108.085       56.756    13529.296    11682.298     3221.283        6.381        1.422      314.275       59.489        0.036      339.408       12.717      867.500
01/18/2015  21:15:00     -256.640      -32.713        4.057      118.201       98.293       58.691    13971.467     9661.503     3444.616        4.701        1.354      258.717       66.350        0.066      339.351       12.621      867.507
01/18/2015  21:16:00     -229.501      -40.168        0.267      127.413       87.161       53.696    16233.979     7597.118     2883.269        4.049        1.336      232.989       64.093        0.076      339.322       12.571      867.507
01/18/2015  21:17:00     -275.274      -33.648      -19.108      134.627       86.619       59.019    18124.409     7502.920     3483.188        5.319        1.456      277.323       65.671        0.056      339.342       12.606      867.500
01/18/2015  21:18:00     -356.829      -87.932      -18.040      142.462       91.740       57.544    20295.443     8416.291     3311.281        8.370        1.601      367.504       62.228        0.029      339.406       12.714      867.488
01/18/2015  21:19:00     -319.630      -46.179       -6.222      137.260       97.292       70.517    18840.229     9465.739     4972.653        6.880        1.664      322.949       77.093        0.057      339.410       12.721      867.451
01/18/2015  21:20:00     -286.159       -2.164      -23.284      104.767      117.073       55.169    10976.059    13706.042     3043.656        5.508        1.386      286.167       49.955        0.030      339.368       12.650      867.421
01/18/2015  21:21:00     -284.667      -85.040      -14.789      100.110       93.020       54.909    10022.058     8652.776     3014.979        5.508        1.084      297.098       51.073        0.030      339.326       12.578      867.399
01/18/2015  21:22:00     -376.395      -36.671      -21.813      113.074       95.628       57.078    12785.618     9144.716     3257.901        8.434        1.259      378.177       54.497        0.021      339.334       12.592      867.392
01/18/2015  21:23:00     -475.035      -37.450      -33.024      132.452      129.813       64.598    17543.542    16851.491     4172.915       13.335        1.928      476.509       63.296        0.018      339.382       12.673      867.398
01/18/2015  21:24:00     -332.050      -31.900      -15.413      151.443      108.749       61.304    22935.075    11826.324     3758.134        7.501        1.926      333.579       74.812        0.050      339.367       12.647      867.405
01/18/2015  21:25:00     -319.938      -82.925      -19.908      128.604       79.473       53.794    16539.029     6315.923     2893.745        6.769        1.287      330.510       62.665        0.036      339.341       12.604      867.405
01/18/2015  21:26:00     -300.276      -60.615      -15.220       96.710       85.002       42.604     9352.868     7225.300     1815.098        5.623        0.920      306.333       35.271        0.013      339.326       12.577      867.393
01/18/2015  21:27:00     -281.245     -114.748      -13.898      100.563      103.785       52.675    10112.850    10771.349     2774.673        5.805        1.183      303.753       50.896        0.028      339.314       12.559      867.404
01/18/2015  21:28:00     -328.302      -38.878      -12.850      108.416       93.630       58.230    11754.024     8766.657     3390.726        6.668        1.196      330.596       56.171        0.029      339.318       12.565      867.413
01/18/2015  21:29:00     -285.936     -104.621       -3.419      141.220       95.272       60.055    19943.006     9076.684     3606.549        6.267        1.631      304.475       63.673        0.044      339.299       12.534      867.397
01/18/2015  21:30:00     -370.156     -122.495      -28.782      144.290      115.896       67.087    20819.659    13431.826     4500.612        9.579        1.938      389.898       71.324        0.033      339.397       12.699      867.378
01/18/2015  21:31:00     -347.174      -70.122      -12.412      108.070       85.298       53.616    11679.049     7275.831     2874.729        7.371        1.091      354.185       54.469        0.024      339.375       12.660      867.361
01/18/2015  21:32:00     -368.174      -79.837      -21.493      138.081      110.092       61.058    19066.315    12120.305     3728.057        8.865        1.746      376.731       66.479        0.031      339.394       12.693      867.356
01/18/2015  21:33:00     -314.821     -121.014       -4.509      156.142      115.258       57.269    24380.193    13284.333     3279.758        7.735        2.047      337.278       65.623        0.038      339.394       12.696      867.358
01/18/2015  21:34:00     -258.964      -77.405       -7.746      105.720       90.939       58.266    11176.760     8269.817     3394.942        4.797        1.142      270.285       58.608        0.047      339.358       12.632      867.378
01/18/2015  21:35:00     -325.107      -59.936      -10.022      143.978      112.013       61.594    20729.543    12546.949     3793.768        7.322        1.854      330.586       57.851        0.031      339.383       12.675      867.392
01/18/2015  21:36:00     -252.609      -81.117       -8.704       92.893       83.352       48.028     8629.033     6947.586     2306.672        4.417        0.894      265.313       46.705        0.031      339.361       12.639      867.395
01/18/2015  21:37:00     -330.717     -119.693       -9.807      117.536      105.210       57.624    13814.720    11069.101     3320.501        7.600        1.410      351.710       60.232        0.029      339.332       12.588      867.396
01/18/2015  21:38:00     -283.671      -19.141      -22.428      106.832       98.576       47.978    11413.105     9717.135     2301.853        5.238        1.172      284.316       40.599        0.020      339.289       12.516      867.385
01/18/2015  21:39:00     -283.437      -99.746      -16.621      102.372       76.498       42.964    10480.081     5851.970     1845.887        5.437        0.909      300.476       47.513        0.025      339.277       12.497      867.382
01/18/2015  21:40:00     -241.107      -48.644      -22.341       80.295       84.043       52.687     6447.253     7063.148     2775.893        3.864        0.814      245.965       43.601        0.031      339.262       12.472      867.372
01/18/2015  21:41:00     -274.857      -96.706      -14.718      136.539       93.809       60.146    18643.028     8800.036     3617.540        5.808        1.553      291.373       57.724        0.039      339.229       12.416      867.374
01/18/2015  21:42:00     -285.094      -69.104      -15.624       98.404      103.555       53.279     9683.317    10723.550     2838.641        5.477        1.162      293.350       52.073        0.032      339.207       12.378      867.395
01/18/2015  21:43:00     -384.620     -103.969      -22.259      129.814       91.495       54.854    16851.659     8371.336     3008.956        9.373        1.412      398.425       49.124        0.015      339.239       12.432      867.406
01/18/2015  21:44:00     -358.377      -29.974      -48.914      103.161       98.045       53.260    10642.098     9612.737     2836.639        7.740        1.155      359.628       40.458        0.013      339.241       12.438      867.434
01/18/2015  21:45:00     -351.579      -24.303      -31.577      106.837      116.287       53.855    11414.205    13522.695     2900.312        7.651        1.392      352.418       51.186        0.021      339.255       12.460      867.463
01/18/2015  21:46:00      -89.387      -32.792       -0.165      117.441       68.418       45.773    13792.447     4681.055     2095.179        1.481        1.028       95.212       49.605        0.271      339.204       12.375      867.489
01/18/2015  21:47:00     -329.674      -44.182      -22.770      107.181      106.850       54.733    11487.694    11416.948     2995.672        6.852        1.295      332.622       53.277        0.026      339.263       12.473      867.511
01/18/2015  21:48:00     -225.627      -49.560       -9.212      119.458       92.912       58.460    14270.202     8632.697     3417.616        3.988        1.316      231.006       54.600        0.056      339.269       12.482      867.527
01/18/2015  21:49:00      -95.057       -2.418       24.825      118.944       65.847       38.732    14147.566     4335.832     1500.144        1.482        0.999       95.087       50.909        0.287      339.246       12.447      867.518
01/18/2015  21:50:00      -79.741      -13.125        4.155       69.542       40.721       30.822     4836.090     1658.221      950.000        0.699        0.372       80.814       31.079        0.148      339.229       12.420      867.534
01/18/2015  21:51:00      -55.356      -11.661       13.229       40.905       49.629       36.892     1673.207     2463.006     1361.028        0.444        0.275       56.571       17.941        0.101      339.272       12.493      867.516
01/18/2015  21:52:00      -42.856     -199.463        1.655       57.168       71.118       32.044     3268.135     5057.712     1026.824        2.549        0.468      204.015       21.972        0.012      339.323       12.573      867.543
01/18/2015  21:53:00       -1.018     -179.901        4.974       70.636       95.138       48.572     4989.388     9051.208     2359.248        2.439        0.820      179.904       14.201        0.006      339.389       12.687      867.593
01/18/2015  21:54:00       62.750      -23.027       29.815       56.465      106.707       72.508     3188.270    11386.422     5257.417        1.259        0.992       66.842       69.380        1.077      339.305       12.546      867.602
01/18/2015  21:55:00        9.087     -170.577      -16.708      116.740       85.105       41.173    13628.266     7242.891     1695.184        2.601        1.128      170.819       28.594        0.028      339.340       12.605      867.691
01/18/2015  21:56:00        6.168      -86.095       -1.901       69.662       66.001       31.901     4852.819     4356.179     1017.651        0.884        0.511       86.316       24.571        0.081      339.340       12.607      867.717
01/18/2015  21:57:00       24.107       57.930       35.424       42.794       62.418       58.396     1831.360     3895.992     3410.116        0.716        0.457       62.745       38.058        0.368      339.260       12.473      867.681
01/18/2015  21:58:00       50.459      -66.410       -7.029       47.264       88.385       31.573     2233.858     7811.933      996.871        0.902        0.552       83.405       34.459        0.171      339.209       12.386      867.693
01/18/2015  21:59:00       63.002      -96.067      -10.325       25.678       66.901       18.647      659.350     4475.700      347.726        0.939        0.274      114.883       23.822        0.043      339.301       12.540      867.743
01/18/2015  22:00:00       32.419       27.043       25.977       29.973       22.314       23.202      898.397      497.897      538.335        0.220        0.097       42.217       18.649        0.195      339.231       12.424      867.750
01/18/2015  22:01:00       10.278       19.396       43.474       26.082       35.354       26.801      680.284     1249.902      718.291        0.251        0.132       21.951       26.664        1.476      339.149       12.284      867.744
01/18/2015  22:02:00       65.252       66.934       55.410       48.863       26.778       37.888     2387.597      717.072     1435.468        0.817        0.227       93.477       32.295        0.119      339.234       12.428      867.748
01/18/2015  22:03:00      105.411       76.297       40.770       45.715       30.647       32.249     2089.892      939.269     1039.983        1.133        0.203      130.126       28.993        0.050      339.178       12.335      867.761
01/18/2015  22:04:00       19.425       11.315       -0.982       41.351       35.577       18.965     1709.937     1265.727      359.660        0.192        0.167       22.480       17.837        0.630      339.160       12.300      867.828
01/18/2015  22:05:00      -54.418        2.061       -4.142       11.958       12.094       11.312      143.002      146.262      127.971        0.170        0.021       54.457        6.677        0.015      339.040       12.101      867.872
01/18/2015  22:06:00       -8.315      -38.278        7.758       22.461       44.303       19.885      504.516     1962.783      395.406        0.223        0.143       39.170       24.923        0.405      339.136       12.262      867.878
01/18/2015  22:07:00       21.765      -65.910       -5.265       34.511       60.711       32.655     1190.979     3685.772     1066.335        0.539        0.297       69.411       36.264        0.273      339.213       12.392      867.850
01/18/2015  22:08:00       -1.960       39.923       71.516       23.320       51.727       32.158      543.841     2675.697     1034.141        0.548        0.213       39.971       32.040        0.643      339.120       12.234      867.807
01/18/2015  22:09:00        7.490       50.768       88.600       30.594       40.742       21.749      936.019     1659.925      473.038        0.678        0.153       51.318       22.414        0.191      339.009       12.048      867.775
01/18/2015  22:10:00       31.648       24.855       58.713       30.881       26.967       23.844      953.650      727.199      568.536        0.366        0.112       40.241        9.332        0.054      338.900       11.866      867.759
01/18/2015  22:11:00       52.045       35.110       52.411       60.834       44.649       37.270     3700.736     1993.541     1389.057        0.688        0.354       62.781       43.327        0.476      338.914       11.888      867.768
01/18/2015  22:12:00       20.597       25.915       15.814       29.955       27.063       29.468      897.317      732.432      868.336        0.192        0.125       33.103       24.777        0.560      338.976       11.993      867.798
01/18/2015  22:13:00      -61.404      -14.734       -2.618       25.147       17.852       14.226      632.378      318.698      202.376        0.257        0.058       63.147       14.222        0.051      338.905       11.874      867.840
01/18/2015  22:14:00      -21.234      -18.405        6.351       33.045       18.995       14.420     1091.978      360.818      207.936        0.125        0.083       28.100       15.255        0.295      338.822       11.735      867.875
01/18/2015  22:15:00      -13.266      -23.845       11.976       19.333       26.830       10.641      373.780      719.846      113.237        0.105        0.060       27.287        2.894        0.011      338.907       11.876      867.877
01/18/2015  22:16:00      -39.003      -19.181        1.401       15.664       11.285       10.462      245.352      127.360      109.456        0.119        0.024       43.464        9.940        0.052      339.133       12.259      867.851
01/18/2015  22:17:00      -68.302      -16.299        1.154       30.608       23.448       16.649      936.848      549.831      277.189        0.335        0.088       70.220       16.680        0.056      339.067       12.146      867.869
01/18/2015  22:18:00      -51.637      -24.506        3.894       24.345       18.764       11.743      592.687      352.075      137.898        0.218        0.054       57.157        3.678        0.004      339.003       12.040      867.857
01/18/2015  22:19:00      -17.375       -7.670       -6.011       26.364       13.107        5.839      695.052      171.788       34.100        0.065        0.045       18.993        7.306        0.148      339.100       12.204      867.840
01/18/2015  22:20:00      -75.745      -36.902       -3.384       36.923       19.727       12.402     1363.300      389.168      153.811        0.451        0.095       84.256       11.782        0.020      339.181       12.340      867.866
01/18/2015  22:21:00      -74.556      -32.979       -3.862       23.893       16.529       12.146      570.874      273.214      147.529        0.383        0.050       81.524        8.690        0.011      339.135       12.262      867.871
01/18/2015  22:22:00      -75.003      -16.488       -6.672       31.394       24.744       10.534      985.592      612.288      110.955        0.383        0.085       76.794       14.984        0.038      339.134       12.260      867.859
01/18/2015  22:23:00     -121.213       15.557       -6.457       34.540       33.233       15.887     1193.042     1104.435      252.406        0.876        0.127      122.207       14.676        0.014      339.103       12.207      867.869
01/18/2015  22:24:00     -114.039      -31.028       -7.279       38.174       36.719       17.034     1457.266     1348.268      290.162        0.856        0.155      118.184       14.892        0.016      339.036       12.094      867.862
01/18/2015  22:25:00     -176.244      -85.141       -5.108       83.660       76.761       44.040     6998.964     5892.235     1939.538        2.658        0.742      195.732       40.369        0.043      339.183       12.341      867.840
01/18/2015  22:26:00     -154.084      -80.167       -2.359       88.419       46.712       38.206     7817.947     2182.015     1459.679        2.082        0.573      173.691       40.110        0.053      339.166       12.312      867.834
01/18/2015  22:27:00     -261.463      -46.192      -10.170      107.128      102.713       53.140    11476.322    10549.982     2823.843        4.772        1.243      265.512       49.833        0.035      339.300       12.535      867.811
01/18/2015  22:28:00     -283.416      -76.756       -3.036      108.870      105.108       55.459    11852.673    11047.660     3075.696        5.610        1.299      293.626       55.736        0.036      339.380       12.670      867.806
01/18/2015  22:29:00     -336.298      -67.645       -8.425      170.545      148.279       69.846    29085.688    21986.712     4878.517        8.684        2.798      343.034       81.399        0.056      339.492       12.859      867.810
01/18/2015  22:30:00     -305.514      -81.663       -1.137      166.649      151.090       64.302    27771.984    22828.303     4134.730        7.736        2.737      316.240       77.184        0.060      339.497       12.869      867.810
01/18/2015  22:31:00     -422.116      -35.837      -34.220      158.326      132.200       72.281    25067.186    17476.806     5224.555       11.419        2.388      423.635       80.032        0.036      339.537       12.935      867.825
01/18/2015  22:32:00     -361.730      -47.335       -9.525      182.522      123.285       74.784    33314.171    15199.207     5592.668        9.363        2.705      364.814       88.877        0.059      339.499       12.870      867.835
01/18/2015  22:33:00     -327.943      -47.462       -6.912      139.255       95.193       61.267    19391.986     9061.797     3753.684        7.102        1.610      331.360       61.966        0.035      339.468       12.819      867.843
01/18/2015  22:34:00     -245.899      -32.461        0.439      138.251       97.866       54.464    19113.216     9577.691     2966.284        4.658        1.583      248.033       65.682        0.070      339.470       12.824      867.829
01/18/2015  22:35:00     -354.832      -20.592      -16.996      166.731      150.329       71.235    27799.250    22598.756     5074.403        9.104        2.774      355.429       70.832        0.040      339.517       12.901      867.802
01/18/2015  22:36:00     -320.466     -103.128      -10.340      161.024      153.557       72.965    25928.572    23579.629     5323.820        8.413        2.742      336.651       68.931        0.042      339.525       12.915      867.770
01/18/2015  22:37:00     -273.558      -54.180       -2.120      153.124      117.928       63.041    23446.978    13907.062     3974.186        5.954        2.066      278.872       81.892        0.086      339.481       12.842      867.738
01/18/2015  22:38:00     -362.786      -72.778      -15.407      147.493       96.709       65.365    21754.092     9352.713     4272.524        8.626        1.769      370.014       71.728        0.038      339.439       12.768      867.723
01/18/2015  22:39:00     -358.520      -16.640       -7.155      173.629      100.516       74.657    30147.172    10103.369     5573.721        8.734        2.291      358.906       85.396        0.057      339.443       12.778      867.703
01/18/2015  22:40:00     -313.169      -42.061      -17.748      132.250       89.200       55.508    17489.941     7956.661     3081.180        6.434        1.426      315.981       59.338        0.035      339.444       12.779      867.681
01/18/2015  22:41:00     -258.447      -38.497      -13.232      101.888       93.802       50.697    10381.164     8798.904     2570.174        4.510        1.088      261.299       46.758        0.032      339.451       12.790      867.654
01/18/2015  22:42:00     -310.984      -44.311      -21.614      121.525      106.757       51.402    14768.409    11396.975     2642.175        6.397        1.440      314.125       53.658        0.029      339.463       12.810      867.627
01/18/2015  22:43:00     -212.471      -23.515       -5.955      129.095      112.326       60.426    16665.588    12617.082     3651.271        3.933        1.647      213.768       63.741        0.089      339.424       12.744      867.625
01/18/2015  22:44:00     -210.393      -45.451        4.975      116.464       87.026       57.504    13563.951     7573.576     3306.661        3.540        1.222      215.246       59.861        0.077      339.430       12.755      867.648
01/18/2015  22:45:00     -127.987      -83.384        5.373      104.301       65.087       50.395    10878.662     4236.314     2539.616        2.051        0.883      152.754       57.601        0.142      339.467       12.819      867.695
01/18/2015  22:46:00     -182.248      -85.433        4.254      149.714       89.106       61.757    22414.207     7939.909     3813.961        3.734        1.708      201.278       63.145        0.098      339.657       13.139      867.709
01/18/2015  22:47:00      -82.405     -116.447      -10.903       84.476       67.462       43.617     7136.132     4551.092     1902.422        1.703        0.679      142.655       35.278        0.061      339.633       13.098      867.725
01/18/2015  22:48:00      -18.275     -121.403       -8.248       54.818       54.445       31.244     3005.036     2964.302      976.210        1.104        0.347      122.771       26.270        0.046      339.649       13.127      867.768
01/18/2015  22:49:00        3.227      -63.769        1.617       48.397       98.774       61.479     2342.281     9756.309     3779.641        0.998        0.794       63.851       65.202        1.043      339.505       12.883      867.804
01/18/2015  22:50:00      -19.453        9.919       20.599       38.849       54.141       43.165     1509.258     2931.259     1863.193        0.360        0.315       21.836       42.078        3.713      339.172       12.322      867.868
01/18/2015  22:51:00       42.347       70.592       22.096       52.438       54.570       46.378     2749.794     2977.924     2150.950        0.757        0.394       82.320       28.020        0.116      339.416       12.735      867.902
01/18/2015  22:52:00       45.748      -14.691       16.138       73.038       27.718       24.068     5334.572      768.300      579.248        0.462        0.334       48.049       14.691        0.093      339.054       12.126      867.934
01/18/2015  22:53:00       30.264       36.012       20.487       55.496       37.257       37.642     3079.832     1388.069     1416.892        0.426        0.294       47.041       45.990        0.956      339.043       12.106      867.973
01/18/2015  22:54:00       75.081       48.698       15.420       50.957       35.670       35.165     2596.584     1272.373     1236.609        0.668        0.255       89.491       25.177        0.079      338.824       11.737      867.966
01/18/2015  22:55:00      -42.014       -4.100      -11.309       69.149       61.901       33.461     4781.558     3831.772     1119.658        0.582        0.487       42.213       28.667        0.461      339.051       12.119      867.976
01/18/2015  22:56:00     -129.746      -78.175        1.855      137.655       94.414       51.609    18948.831     8913.976     2663.517        2.673        1.526      151.477       55.121        0.132      339.503       12.879      867.949
01/18/2015  22:57:00     -229.863     -103.469       -1.746      119.369       99.195       60.928    14248.858     9839.631     3712.173        4.567        1.390      252.077       71.829        0.081      339.530       12.925      867.962
01/18/2015  22:58:00     -188.640     -141.224       -3.004       94.990       92.300       45.254     9023.021     8519.243     2047.896        3.756        0.980      235.646       28.000        0.014      339.507       12.884      867.938
01/18/2015  22:59:00     -110.632      -69.362       26.386       94.751       79.553       46.894     8977.720     6328.740     2199.024        1.762        0.875      130.578       66.724        0.261      339.397       12.699      867.922
01/18/2015  23:00:00       13.243       25.614       35.659       34.034       36.412       39.588     1158.317     1325.868     1567.238        0.308        0.203       28.835       26.479        0.843      339.119       12.233      867.917
01/18/2015  23:01:00       47.683       91.797       31.894       61.550       56.244       39.852     3788.422     3163.415     1588.177        1.013        0.427      103.442       37.499        0.131      339.037       12.095      867.943
01/18/2015  23:02:00      127.189       77.871       42.054       51.867       39.643       51.023     2690.179     1571.559     2603.371        1.544        0.343      149.134       31.906        0.046      338.878       11.828      867.922
01/18/2015  23:03:00       61.642       14.571       43.518       41.222       43.298       29.386     1699.226     1874.719      863.564        0.517        0.222       63.341       28.404        0.201      338.448       11.107      867.948
01/18/2015  23:04:00        3.351       84.235      107.426       38.221       77.397       70.592     1460.862     5990.298     4983.295        1.554        0.622       84.301       69.118        0.672      338.399       11.023      867.935
01/18/2015  23:05:00       31.395      186.284      169.189       47.340       72.936       40.720     2241.092     5319.714     1658.084        3.676        0.461      188.911       45.331        0.058      338.325       10.897      867.860
01/18/2015  23:06:00       20.137      118.673      143.037       50.345       63.546       31.214     2534.631     4038.070      974.289        2.125        0.377      120.369       29.280        0.059      338.278       10.821      867.815
01/18/2015  23:07:00       90.659      -35.495       32.097       51.269       66.360       46.284     2628.541     4403.590     2142.188        0.984        0.459       97.360       42.554        0.191      338.285       10.831      867.822
01/18/2015  23:08:00       -1.638      -59.918       -4.946       58.565       45.698       34.168     3429.822     2088.279     1167.480        0.515        0.334       59.941       21.718        0.131      338.331       10.911      867.846
01/18/2015  23:09:00      -89.246      -56.896        5.894       63.944       40.600       30.194     4088.845     1648.381      911.687        0.894        0.332      105.839       24.796        0.055      338.372       10.978      867.868
01/18/2015  23:10:00      -99.692      -72.278        4.558       60.787       45.270       34.909     3695.071     2049.407     1218.650        1.107        0.348      123.137       28.475        0.053      338.344       10.931      867.868
01/18/2015  23:11:00     -113.191      -92.192        0.782       55.118       39.331       36.493     3037.989     1546.908     1331.723        1.361        0.296      145.985       34.248        0.055      338.386       11.001      867.879
01/18/2015  23:12:00      -64.535      -52.494        2.245       55.182       40.809       28.571     3045.097     1665.351      816.287        0.623        0.276       83.189       30.119        0.131      338.368       10.971      867.891
01/18/2015  23:13:00       -2.436        5.042       12.166       31.955       32.196       18.509     1021.103     1036.567      342.590        0.129        0.120        5.600       20.079       12.858      338.349       10.940      867.878
01/18/2015  23:14:00       87.787      -76.534       -3.318       38.280       45.398       20.979     1465.343     2061.000      440.116        0.877        0.198      116.465       19.395        0.028      338.508       11.206      867.852
01/18/2015  23:15:00       51.822        1.096       51.353       56.087       86.631       39.320     3145.768     7504.966     1546.023        0.876        0.610       51.834       44.389        0.733      338.548       11.274      867.853
01/18/2015  23:16:00       41.150       54.373        0.398       49.127       37.982       22.364     2413.440     1442.610      500.143        0.450        0.218       68.189       18.079        0.070      338.522       11.230      867.880
01/18/2015  23:17:00      -52.730       47.132      -19.272       23.543       17.687       10.553      554.281      312.843      111.369        0.318        0.049       70.724        6.070        0.007      338.524       11.233      867.889
01/18/2015  23:18:00      -35.916       67.457      -16.651       39.014       25.228       16.652     1522.057      636.442      277.301        0.428        0.122       76.423       13.299        0.030      338.534       11.250      867.890
01/18/2015  23:19:00       -4.514       80.375       -6.061       30.691       28.782       18.188      941.909      828.398      330.810        0.431        0.105       80.502       17.112        0.045      338.450       11.109      867.897
01/18/2015  23:20:00       52.127       68.051       -9.011       32.395       26.924       18.026     1049.415      724.907      324.934        0.476        0.105       85.721       17.065        0.040      338.370       10.974      867.877
01/18/2015  23:21:00       99.303       58.208       14.161       41.509       20.835       20.543     1723.019      434.087      422.026        0.801        0.129      115.106       18.846        0.027      338.399       11.025      867.852
01/18/2015  23:22:00        4.177       43.310       45.132       19.884       19.927       16.486      395.380      397.066      271.797        0.250        0.053       43.511        7.343        0.028      338.308       10.873      867.845
01/18/2015  23:23:00       16.837        4.728       16.622       17.022       12.355       12.635      289.748      152.654      159.645        0.059        0.030       17.488        7.912        0.205      338.287       10.837      867.861
01/18/2015  23:24:00       22.338      -13.264        8.908       22.005       21.043       29.458      484.199      442.792      867.772        0.127        0.090       25.979       20.705        0.635      338.403       11.031      867.848
01/18/2015  23:25:00       82.073       39.811        5.741       29.992       22.650       12.549      899.529      513.031      157.467        0.496        0.079       91.219       15.258        0.028      338.369       10.975      867.798
01/18/2015  23:26:00      103.495       49.956        7.315       48.047       29.087       21.993     2308.539      846.028      483.704        0.845        0.182      114.922       17.693        0.024      338.484       11.167      867.766
01/18/2015  23:27:00       19.440       50.498       55.205       28.852       34.281       20.162      832.410     1175.176      406.512        0.419        0.121       54.111       17.039        0.099      338.395       11.017      867.801
01/18/2015  23:28:00       -4.873       27.160       49.138       14.649       27.985       21.340      214.583      783.138      455.415        0.231        0.073       27.594       21.806        0.625      338.361       10.962      867.803
01/18/2015  23:29:00       27.447      -91.417      -10.757       18.034       25.066       17.736      325.238      628.293      314.561        0.525        0.063       95.449        7.566        0.006      338.529       11.242      867.785
01/18/2015  23:30:00        5.489      -22.503       -9.394       46.722       31.472       21.592     2182.979      990.474      466.207        0.213        0.182       23.162       22.161        0.915      338.531       11.245      867.816
01/18/2015  23:31:00      -98.318      -35.230       -1.906       50.499       40.649       26.478     2550.138     1652.327      701.101        0.791        0.245      104.439       24.798        0.056      338.364       10.966      867.881
01/18/2015  23:32:00      -90.620      -21.330       -2.205       31.783       48.872       19.229     1010.169     2388.507      369.748        0.622        0.188       93.097       11.886        0.016      338.290       10.841      867.899
01/18/2015  23:33:00      -40.490       25.614      -11.618       18.793       17.533       13.647      353.160      307.406      186.228        0.164        0.042       47.911        6.274        0.017      338.365       10.967      867.896
01/18/2015  23:34:00       30.974       -7.309       -0.852       21.463       17.118       16.544      460.681      293.032      273.697        0.102        0.051       31.825       10.908        0.117      338.694       11.519      867.879
01/18/2015  23:35:00       10.261      -31.479       15.779       29.708       20.246       21.036      882.565      409.907      442.499        0.154        0.087       33.109       18.800        0.322      338.699       11.530      867.894
01/18/2015  23:36:00      -68.362      -40.310        3.066       41.763       24.666       23.207     1744.160      608.406      538.582        0.460        0.145       79.362       20.366        0.066      338.456       11.119      867.938
01/18/2015  23:37:00      -31.441      -59.596        0.111       59.038       40.953       30.448     3485.494     1677.144      927.102        0.531        0.304       67.381       25.141        0.139      338.484       11.167      867.977
01/18/2015  23:38:00      -64.702      -49.866        4.933       50.440       36.599       22.508     2544.216     1339.453      506.617        0.554        0.220       81.689       19.109        0.055      338.464       11.133      867.986
01/18/2015  23:39:00      -67.414        0.909        3.020       28.413       33.387       15.144      807.286     1114.670      229.343        0.335        0.108       67.421        5.231        0.006      338.667       11.472      867.952
01/18/2015  23:40:00       -7.630       -5.738       13.150       21.531       28.607       16.238      463.578      818.342      263.671        0.090        0.077        9.546       10.600        1.233      338.645       11.438      867.925
01/18/2015  23:41:00       55.390      -61.449        8.372       40.221       20.617       19.238     1617.711      425.064      370.112        0.466        0.121       82.728       14.168        0.029      338.711       11.548      867.915
01/18/2015  23:42:00       39.193       16.344       37.968       36.483       30.337       28.521     1330.997      920.352      813.442        0.315        0.153       42.464       26.089        0.377      338.630       11.412      867.913
01/18/2015  23:43:00       46.054       38.608       16.258       29.936       42.378       29.953      896.147     1795.874      897.188        0.373        0.179       60.096       16.630        0.077      338.402       11.029      867.901
01/18/2015  23:44:00        0.581       -4.615       27.446       15.770       36.190       16.674      248.689     1309.715      278.014        0.131        0.092        4.651       18.957       16.610      338.334       10.914      867.892
01/18/2015  23:45:00       14.659      -48.966       12.176       23.299       30.119       25.319      542.826      907.142      641.030        0.243        0.105       51.113       19.398        0.144      338.376       10.987      867.928
01/18/2015  23:46:00      -33.102      -99.606       12.145       65.879       56.865       32.693     4340.087     3233.626     1068.852        0.990        0.432      104.963       32.818        0.098      338.466       11.135      867.955
01/18/2015  23:47:00       -5.421      -38.283       12.409       39.923       55.085       37.600     1593.859     3034.405     1413.734        0.384        0.302       38.665       29.055        0.565      338.377       10.988      867.921
01/18/2015  23:48:00       17.788      -41.589        4.526       39.987       57.668       35.228     1598.974     3325.587     1241.018        0.412        0.308       45.234       20.871        0.213      338.274       10.813      867.892
01/18/2015  23:49:00        0.938      -11.451       16.300       36.183       48.417       28.961     1309.180     2344.199      838.751        0.244        0.225       11.490       27.281        5.638      338.250       10.773      867.886
01/18/2015  23:50:00      -33.530      -49.153        5.309       46.876       36.532       26.317     2197.324     1334.576      692.591        0.390        0.211       59.500       24.888        0.175      338.322       10.894      867.909
01/18/2015  23:51:00     -104.099      -78.247        8.254       58.722       37.041       29.675     3448.257     1372.064      880.582        1.136        0.285      130.228       24.728        0.036      338.204       10.696      867.932
01/18/2015  23:52:00     -121.270      -72.785      -10.969       45.741       37.083       20.180     2092.219     1375.121      407.224        1.200        0.194      141.436       16.123        0.013      338.204       10.696      867.947
01/18/2015  23:53:00      -23.769      -37.587        8.356       23.984       29.067       12.877      575.239      844.884      165.815        0.182        0.079       44.472       12.202        0.075      338.195       10.681      867.926
01/18/2015  23:54:00      -27.706      -45.546      -12.004       16.019       19.368       14.636      256.607      375.125      214.226        0.192        0.042       53.311       10.137        0.036      338.290       10.843      867.875
01/18/2015  23:55:00      -73.614      -56.715        4.654       52.203       29.003       23.217     2725.192      841.175      539.012        0.638        0.205       92.928       22.148        0.057      338.277       10.819      867.865
01/18/2015  23:56:00      -77.424      -45.720        3.389       65.187       41.356       30.423     4249.297     1710.346      925.556        0.749        0.344       89.916       33.099        0.136      338.203       10.694      867.864
01/18/2015  23:57:00      -72.609      -15.832       -0.722       31.101       22.882       18.518      967.243      523.565      342.900        0.368        0.092       74.315       18.708        0.063      338.189       10.672      867.800
01/18/2015  23:58:00     -119.953       22.342       -9.360       28.877       25.667       15.234      833.889      658.806      232.073        0.835        0.086      122.016       10.782        0.008      338.177       10.652      867.787
01/18/2015  23:59:00      -85.225        1.417       -3.434       28.355       28.637        9.705      804.007      820.071       94.192        0.450        0.086       85.237        6.203        0.005      338.156       10.616      867.790
